GFSSW_850_thetae_000.txt.gz
Theta_e
305 305 307 307 308 310 312 313 315 316 317 316 317 316 316 315 316 315 313 310 312 326 327 328 329 327 326 326 326 321 318 319 319 316 316 317 319 322 323 322 322 323 324 325 325
304 304 304 305 306 310 311 311 312 312 312 313 313 315 316 315 315 314 315 312 310 322 328 329 330 329 326 326 324 320 319 320 318 315 316 319 321 323 322 320 321 323 324 324 324
308 305 305 305 306 309 310 310 310 309 311 312 312 313 314 314 314 314 314 314 310 315 327 326 328 329 325 325 322 319 320 319 321 321 320 321 322 324 321 319 321 322 323 323 323
306 307 306 306 306 306 308 310 310 310 309 311 312 312 313 314 314 317 314 313 312 311 325 326 325 326 323 322 323 322 321 321 322 323 323 322 323 321 321 322 322 322 322 322 322
305 306 307 305 307 307 307 307 308 309 309 309 310 311 312 312 312 313 317 315 314 313 323 327 325 325 323 322 323 323 323 324 325 325 324 323 320 319 320 322 322 322 322 322 322
306 307 306 305 305 305 306 306 307 309 309 307 308 310 311 312 310 311 314 315 317 316 319 326 325 325 324 323 323 324 325 325 325 325 322 319 320 319 321 322 322 322 321 321 321
309 310 310 309 307 305 306 305 305 308 309 308 308 310 311 310 309 309 310 311 315 317 317 325 325 325 325 324 325 325 324 321 320 321 320 321 320 318 323 321 321 320 319 320 320
307 309 310 311 310 309 307 308 307 305 307 308 309 308 309 310 309 309 312 311 313 317 315 326 326 325 325 324 321 320 319 322 320 318 319 319 319 316 319 320 320 319 317 319 320
306 307 308 310 312 312 309 308 308 307 305 308 309 309 310 310 309 309 311 314 316 316 317 325 326 326 325 323 322 319 323 319 318 316 317 318 317 315 318 318 318 317 318 319 319
308 306 307 310 312 313 311 310 309 307 307 307 309 308 308 311 310 309 309 315 317 316 320 326 326 325 324 324 331 324 322 320 319 318 316 316 315 316 317 317 317 316 317 318 318
305 308 309 311 312 313 313 311 307 306 307 308 309 308 311 310 311 309 309 314 317 316 323 326 328 329 325 326 323 320 319 321 317 315 315 314 314 315 316 316 314 315 317 317 317
305 308 310 312 313 314 312 310 306 307 309 306 310 310 309 311 313 311 310 315 317 314 321 327 327 326 322 323 325 320 320 318 317 316 315 315 315 314 313 314 314 314 317 317 317
305 307 311 313 313 314 314 310 306 308 310 309 308 310 311 310 313 312 311 315 317 313 321 326 327 325 325 322 323 320 320 321 321 316 315 315 316 315 313 313 313 315 317 317 317
306 306 312 313 312 313 312 311 308 308 310 311 309 310 310 312 313 313 312 316 317 314 321 326 324 326 326 326 324 327 317 319 318 318 319 315 319 315 313 313 312 315 317 318 317
307 307 310 313 310 313 312 310 309 308 311 310 310 310 310 312 314 315 309 315 318 317 322 326 325 327 328 327 323 327 318 318 318 316 315 316 317 315 312 315 313 312 316 317 317
306 307 309 312 311 312 313 310 309 313 314 311 312 312 312 312 315 315 316 317 319 319 320 321 323 324 326 324 321 318 317 315 313 313 318 316 317 316 314 312 313 312 314 317 316
308 308 307 310 313 311 312 311 312 315 311 313 313 313 314 314 315 316 316 317 320 321 323 319 324 318 321 319 315 317 319 323 322 320 320 314 314 316 314 311 312 312 314 316 316
309 308 308 310 314 310 310 310 317 315 312 314 314 313 315 315 317 316 320 322 320 317 322 323 326 316 313 322 320 318 317 318 324 321 319 313 317 316 313 311 312 316 316 316 316
309 309 311 311 314 310 309 314 317 318 316 317 315 314 316 315 319 321 319 321 321 317 321 323 323 312 312 312 319 315 318 315 317 315 319 318 315 314 313 311 310 313 314 316 315
310 312 314 314 314 310 311 315 319 319 316 315 316 316 320 317 321 319 321 321 322 318 314 315 315 314 312 312 311 313 312 318 315 324 324 318 315 317 315 315 311 309 313 315 315
316 315 316 317 313 313 315 314 320 317 316 318 319 318 319 318 320 319 319 320 319 316 314 312 313 316 312 313 313 312 313 311 314 314 319 318 317 311 313 313 311 310 313 315 315
315 314 315 313 317 318 318 322 319 320 321 321 319 319 319 317 320 321 322 319 318 318 319 316 312 315 315 314 311 311 311 312 317 316 311 312 316 310 309 309 312 312 313 315 316
314 316 315 315 321 321 321 320 320 321 322 322 318 318 316 316 322 321 322 318 319 319 319 316 316 319 321 318 315 315 312 310 310 310 311 315 316 310 307 310 313 315 316 316 315
314 316 315 315 316 317 321 321 323 320 321 320 318 317 318 320 318 319 320 318 319 319 320 318 316 316 321 319 315 317 314 311 313 314 313 312 315 314 311 312 313 314 315 316 315
314 314 315 315 315 314 317 321 322 322 319 319 321 318 319 320 319 319 317 316 316 317 315 316 318 315 312 315 316 315 315 311 313 314 317 316 313 314 312 312 311 312 313 312 313
314 312 312 310 311 313 313 317 317 316 318 321 320 318 318 320 319 319 317 317 317 315 315 313 314 312 311 311 311 315 315 311 313 312 313 313 314 310 311 312 314 315 315 313 313
312 313 313 309 309 312 315 315 315 314 313 315 316 317 313 312 311 314 313 311 314 315 313 311 310 312 315 312 312 312 310 313 312 311 312 314 310 309 312 312 313 314 315 315 314

GFSSW_850_thetae_003.txt.gz
Theta_e
304 304 304 305 307 308 311 312 312 315 317 318 319 318 317 317 317 316 316 315 312 322 326 326 327 328 327 326 326 321 322 323 321 318 321 316 321 323 324 322 322 322 322 324 323
303 303 305 304 304 305 307 308 308 310 313 316 316 317 316 317 317 316 317 316 315 311 321 327 328 329 327 326 326 320 322 323 320 317 318 318 321 323 323 321 321 321 322 321 322
303 304 305 304 305 305 307 309 310 309 311 311 313 314 315 316 316 316 316 316 316 313 312 327 328 329 327 325 324 320 324 320 321 321 320 320 322 323 321 323 321 321 322 322 322
307 305 304 305 306 306 306 307 310 311 310 309 311 313 314 315 316 315 315 313 314 314 312 325 326 327 325 324 322 322 320 321 323 323 323 323 324 323 322 323 322 322 321 322 322
307 306 305 307 305 308 307 307 307 308 309 309 309 311 314 314 313 315 316 314 315 318 315 322 327 326 327 324 322 321 323 324 324 325 325 324 323 323 321 326 324 322 321 322 321
307 308 309 309 307 307 306 306 306 307 309 309 309 310 312 313 311 312 313 315 315 318 316 319 326 326 326 324 326 324 324 325 324 325 324 321 323 321 325 325 324 322 322 320 320
306 309 311 311 311 309 306 305 306 306 308 310 309 308 311 312 310 309 310 312 313 316 317 319 326 324 326 324 325 325 326 323 323 324 323 321 322 320 324 320 320 321 319 318 318
309 310 310 310 311 311 310 308 309 306 307 309 309 309 310 310 310 309 310 310 311 312 315 318 325 325 324 325 323 326 322 329 324 319 320 320 325 319 318 318 318 317 318 318 319
305 307 306 306 307 310 312 311 308 309 308 307 308 309 310 309 308 308 309 312 312 312 315 317 324 326 325 323 323 322 329 325 324 319 320 319 321 318 318 318 317 317 318 318 318
306 309 308 308 309 309 312 313 309 310 309 307 308 309 309 311 310 310 309 310 315 317 318 319 325 326 326 327 332 323 326 321 321 319 316 317 318 316 316 316 317 317 317 318 318
305 307 307 309 311 311 312 313 310 309 308 307 308 307 310 310 310 310 309 310 313 317 317 320 326 329 327 326 324 320 323 324 321 316 316 317 315 317 316 316 314 314 316 317 318
304 304 307 308 312 312 312 313 310 308 308 307 308 309 309 311 312 311 309 310 313 316 316 322 327 326 323 324 322 320 322 321 319 316 316 318 318 318 315 315 314 314 316 316 317
304 305 307 307 312 313 313 314 310 308 308 309 307 309 310 309 311 311 310 311 316 314 316 322 325 324 325 325 327 322 322 321 323 318 315 315 319 316 314 312 312 314 317 316 316
304 306 308 309 311 314 313 313 308 307 309 310 309 307 309 310 311 311 311 312 316 313 315 322 323 325 326 325 325 328 319 321 320 322 325 316 323 317 315 313 312 314 316 316 316
305 305 307 309 310 310 311 310 308 305 313 310 309 309 309 310 311 312 311 312 316 314 317 323 324 325 327 326 323 326 321 322 320 319 315 316 320 318 311 313 313 312 315 316 316
306 305 307 308 311 311 311 311 307 310 312 312 310 311 311 311 312 313 312 313 316 315 315 322 322 326 326 323 323 314 318 318 314 315 320 317 319 320 316 314 313 312 314 316 316
308 307 308 308 312 311 311 307 310 313 310 312 312 311 311 311 312 313 313 314 318 317 317 321 325 322 324 321 317 318 324 328 325 321 323 313 316 319 314 311 314 314 314 316 316
312 310 310 309 309 311 308 309 314 314 310 311 311 311 312 311 313 314 314 313 317 317 317 324 327 320 320 322 321 323 324 325 327 323 320 312 319 319 312 312 312 314 315 316 316
313 309 310 310 310 309 307 312 314 314 310 313 311 311 312 313 314 315 314 314 316 317 318 320 323 314 317 315 320 318 324 317 317 314 320 320 317 316 313 312 309 311 314 316 316
309 312 313 313 312 309 307 313 314 312 314 311 311 311 311 313 314 315 316 315 318 317 314 318 317 315 311 314 311 318 315 322 317 324 324 320 316 321 316 314 310 310 312 315 315
311 312 314 312 311 310 312 311 314 316 313 313 315 315 314 314 313 316 315 320 320 318 314 311 314 315 311 314 313 315 318 315 315 316 322 321 320 312 313 311 313 310 313 315 315
312 313 315 313 313 313 315 313 316 316 316 315 315 318 316 313 313 317 319 319 320 319 315 312 313 315 314 313 312 312 315 315 318 316 312 314 319 311 309 309 311 310 313 315 315
312 314 314 314 318 317 317 317 318 319 320 319 317 317 314 316 321 320 321 318 319 319 317 315 315 319 320 317 314 314 311 311 311 311 313 318 319 310 309 311 311 312 313 314 315
312 317 315 313 315 318 321 320 321 320 321 321 316 316 316 317 317 319 321 318 318 319 318 316 315 317 321 318 314 315 312 310 314 315 313 313 315 313 312 312 311 313 315 315 315
311 311 316 315 316 316 318 319 321 322 320 320 319 315 318 319 318 319 319 316 317 319 316 317 318 315 312 315 315 315 315 311 313 315 318 316 313 313 311 311 311 311 312 312 313
312 309 311 310 310 316 316 321 320 318 319 321 320 315 317 320 319 318 317 318 319 314 316 313 316 312 312 312 313 316 314 313 312 311 312 312 313 310 310 310 313 313 313 313 312
311 312 312 310 309 313 315 317 318 315 315 312 316 316 318 315 314 316 318 316 316 313 311 314 311 313 316 311 311 314 311 312 313 310 313 315 315 308 311 311 312 312 312 312 312

GFSSW_850_thetae_006.txt.gz
Theta_e
304 304 304 304 305 306 312 316 319 317 320 320 319 319 319 319 318 318 317 317 315 313 320 320 325 328 330 328 326 323 327 327 327 326 326 321 324 326 325 324 323 323 324 323 322
304 304 304 305 305 304 305 306 308 310 311 313 317 318 319 318 318 318 318 318 317 314 322 323 326 329 329 328 327 326 328 327 325 325 325 324 325 326 326 326 325 323 323 322 322
307 307 304 305 305 305 306 305 308 309 308 309 311 315 316 316 317 317 316 316 316 317 315 320 328 329 328 327 327 326 328 326 325 324 323 325 326 326 327 328 325 324 323 323 322
307 308 306 305 305 306 305 306 306 310 312 310 310 311 314 315 316 317 316 314 315 317 320 317 324 328 329 329 326 327 326 325 325 325 325 326 326 327 328 327 327 326 325 321 322
308 308 306 306 308 306 306 307 306 309 311 310 308 310 313 315 315 315 316 315 314 318 320 317 323 325 330 328 327 327 326 325 325 325 325 326 327 328 327 327 327 326 323 321 321
307 308 309 310 310 310 307 306 307 307 308 309 309 309 312 314 313 313 313 313 313 317 320 317 322 324 324 327 328 326 326 326 325 326 326 326 327 325 326 326 325 324 323 320 321
306 307 308 311 311 311 310 308 305 306 307 309 310 310 312 311 310 309 310 311 312 314 318 318 319 325 324 328 327 327 328 327 327 326 327 326 327 327 325 321 320 321 319 319 318
304 310 309 310 310 310 311 311 309 306 306 309 310 310 310 310 309 310 310 310 311 312 315 318 318 322 327 326 327 329 329 330 327 327 327 324 328 326 322 321 320 319 320 320 319
304 308 307 309 308 307 309 312 312 308 308 308 309 310 310 309 309 309 310 311 312 312 313 316 318 322 325 326 329 330 332 329 327 326 327 326 327 323 320 320 321 321 320 320 320
303 305 310 309 309 309 310 310 313 310 310 308 308 309 309 310 310 310 309 309 311 314 316 317 317 324 327 328 333 329 330 328 329 326 322 324 326 324 322 320 321 320 320 320 320
303 305 307 307 309 309 311 310 311 310 310 309 309 309 310 309 310 310 310 310 311 315 317 316 318 324 326 327 327 325 328 329 327 324 323 326 327 324 324 322 321 320 320 320 319
303 304 305 307 309 308 311 312 310 310 310 309 308 308 310 310 311 311 311 310 311 314 317 317 320 322 325 326 327 327 327 327 326 322 322 326 328 327 326 322 321 320 320 319 318
303 304 304 308 307 308 312 313 311 310 308 309 308 309 309 309 311 312 311 310 312 313 316 317 320 322 326 327 327 327 326 326 327 324 322 323 328 327 319 316 315 317 320 319 318
304 304 307 309 308 311 313 313 312 310 308 309 309 308 309 310 310 310 311 310 313 313 316 315 318 324 326 327 327 328 326 326 326 329 332 323 331 327 324 320 317 318 318 318 317
307 304 308 307 311 311 311 311 309 308 315 310 309 308 309 309 310 310 312 310 314 315 313 316 321 321 327 327 326 327 325 327 327 328 328 328 327 327 319 320 319 319 318 318 318
314 308 305 307 308 311 312 309 307 309 313 312 310 310 310 310 311 312 312 311 313 315 314 316 320 320 325 324 325 322 324 323 322 325 331 328 326 327 323 320 319 319 318 318 317
316 314 308 307 309 311 311 308 311 314 310 313 312 311 310 310 310 312 313 313 314 319 317 314 314 324 325 326 320 325 327 331 333 330 331 319 322 325 321 317 319 319 319 318 317
315 314 311 309 308 311 309 309 315 313 312 310 312 311 311 311 311 312 313 312 313 316 316 318 326 326 325 325 323 325 327 328 330 330 328 318 324 323 318 316 316 318 319 318 317
315 313 312 310 309 310 307 312 314 315 310 312 311 312 312 311 311 313 313 312 314 313 317 319 321 321 324 321 323 324 327 322 323 321 325 325 324 322 318 317 316 317 318 318 317
314 311 310 311 309 308 307 314 313 312 310 312 311 311 312 312 315 315 312 311 313 314 317 317 322 320 317 322 316 324 324 325 323 328 328 325 324 325 321 319 316 317 317 318 317
313 310 312 311 310 307 311 312 313 313 311 310 311 311 312 312 314 315 313 315 313 316 317 319 321 317 320 321 324 324 324 325 323 322 327 326 325 320 319 318 318 317 317 318 316
311 316 314 311 311 310 312 311 313 316 313 310 311 311 311 313 312 315 315 317 312 317 319 319 320 323 320 315 319 323 324 323 328 323 321 322 324 317 317 316 315 316 316 317 316
311 314 313 311 315 313 314 314 313 317 315 312 315 314 312 313 314 315 316 314 315 318 321 319 321 323 322 319 315 321 321 325 322 318 322 325 324 315 317 318 316 316 316 316 315
311 317 314 313 314 316 317 316 318 317 316 318 318 317 315 314 314 316 318 319 319 317 318 316 320 321 323 323 321 322 320 323 324 325 323 322 323 318 318 319 316 316 316 315 315
309 316 316 316 314 315 316 318 317 321 319 320 319 319 316 318 319 319 319 320 319 320 320 320 321 321 319 319 320 320 321 319 321 323 323 323 321 321 319 319 318 317 316 315 314
311 312 312 316 315 317 316 319 317 320 318 318 321 319 318 319 320 322 321 321 322 320 321 319 321 316 318 317 319 319 319 321 321 322 321 321 321 318 316 316 315 315 314 314 314
311 309 311 314 313 317 317 319 318 317 317 317 319 319 319 319 319 319 320 320 320 321 321 320 320 320 321 315 316 320 319 319 319 319 319 321 321 316 315 315 315 315 314 314 313

GFSSW_850_thetae_009.txt.gz
Theta_e
304 305 305 304 304 305 306 315 318 320 322 322 321 321 321 320 320 319 319 320 319 316 314 321 322 327 329 329 328 326 328 328 327 328 327 326 325 326 326 326 325 325 326 326 325
305 306 307 305 305 305 305 305 309 315 317 316 318 319 319 319 318 319 319 319 318 317 318 320 322 323 329 329 328 327 328 327 326 326 327 326 326 327 327 327 327 327 326 325 325
306 307 308 306 305 305 305 306 305 305 307 308 309 312 316 318 319 319 318 317 317 317 320 319 321 327 327 329 328 328 328 327 326 326 325 325 326 327 328 329 328 327 326 326 325
306 308 308 306 305 306 306 306 306 306 309 311 309 309 312 315 317 318 315 316 316 318 321 320 319 325 328 329 327 329 326 326 326 326 326 326 325 327 328 328 328 328 328 327 325
305 308 308 306 307 307 306 306 307 306 308 313 311 309 312 315 316 316 316 314 316 320 321 321 318 320 327 327 328 328 327 326 326 326 326 326 326 327 327 328 328 327 328 327 325
304 307 308 309 309 310 310 307 307 307 306 310 309 309 313 314 314 316 316 316 315 318 320 321 319 319 321 324 327 327 327 326 326 326 326 326 326 326 327 328 327 326 325 325 324
304 304 307 308 311 311 311 310 307 305 307 306 310 311 313 312 312 313 313 313 314 314 318 320 320 320 321 324 323 326 328 327 327 326 326 326 328 328 326 327 323 321 322 322 323
308 303 308 310 311 310 310 311 310 308 306 307 309 312 313 312 312 312 312 312 312 313 314 317 319 318 321 324 325 325 328 331 327 327 326 327 330 327 327 324 322 322 322 323 322
312 305 304 310 309 310 307 308 311 312 308 307 309 312 312 311 311 311 312 311 312 313 313 314 318 318 320 325 328 328 331 330 329 327 327 328 328 326 325 322 323 322 323 323 323
313 307 304 308 309 309 308 311 310 312 310 310 310 311 311 311 311 311 311 311 311 312 313 314 317 319 321 324 329 330 330 328 330 327 328 328 328 327 325 325 323 323 323 323 322
310 307 304 306 309 311 310 310 310 312 310 310 310 310 311 310 311 312 311 311 311 312 315 314 318 320 320 322 324 327 329 329 329 327 328 328 327 326 325 325 325 323 323 323 322
306 304 303 306 307 309 310 309 311 311 312 310 311 310 310 311 312 311 311 311 311 313 313 316 318 317 318 321 324 327 328 329 327 326 326 326 327 327 327 327 327 323 323 323 321
305 303 303 305 307 309 311 308 311 311 310 308 310 310 310 310 311 312 311 311 312 312 313 316 317 316 317 318 326 328 329 328 328 327 325 326 328 328 327 326 323 322 323 323 320
309 304 304 306 308 308 310 311 312 312 309 311 310 310 309 309 310 310 312 312 311 312 312 314 314 317 318 320 324 329 327 326 327 328 330 327 329 327 327 322 320 320 322 322 320
314 307 304 307 311 311 311 311 311 310 317 312 310 309 310 309 310 309 310 312 312 312 311 312 315 317 319 322 323 328 327 326 327 329 331 330 331 328 327 325 323 322 322 321 320
316 314 307 308 308 310 309 311 309 310 316 313 310 310 310 310 310 311 310 311 311 311 313 312 315 317 318 321 324 326 327 328 328 328 330 329 330 328 327 325 324 322 321 321 319
316 316 314 308 310 310 309 308 310 315 311 313 312 311 311 312 312 312 312 312 314 313 315 314 312 314 319 321 322 327 328 333 331 331 329 326 329 328 321 321 322 322 321 320 319
316 316 314 310 310 310 309 308 314 314 312 311 311 311 312 311 311 312 312 313 312 312 315 319 319 315 315 323 324 327 328 328 330 329 328 323 327 326 322 320 320 321 321 320 319
315 315 312 312 309 309 308 311 315 315 312 312 313 314 313 311 310 310 312 314 312 311 318 318 320 317 318 324 323 325 330 323 327 326 328 326 325 322 321 320 319 320 321 320 319
314 314 312 312 310 309 309 312 314 313 310 311 313 313 313 313 312 312 313 314 313 311 311 316 320 316 322 323 321 325 325 328 326 328 329 327 326 326 322 322 320 320 321 320 320
314 311 312 311 310 309 310 311 313 312 310 313 313 311 312 312 312 313 314 313 312 312 312 316 315 317 319 325 324 326 327 327 326 326 328 329 326 324 321 321 321 320 320 320 320
312 314 313 310 310 309 311 309 310 313 312 314 311 311 312 311 313 314 314 313 311 313 316 317 318 319 321 317 323 325 326 326 328 326 325 325 325 320 320 320 319 319 319 320 319
312 313 312 310 313 311 310 311 311 312 315 314 312 312 311 312 313 315 315 313 313 313 320 320 321 326 325 320 321 324 324 326 326 325 326 326 326 319 320 320 319 319 319 320 319
312 316 311 311 312 315 313 314 314 313 315 313 313 312 313 314 313 315 316 316 316 314 318 319 321 324 325 324 324 326 325 325 325 326 325 326 324 320 321 321 319 318 319 319 318
311 315 314 313 313 313 315 316 315 318 316 314 318 315 315 313 314 317 315 318 316 316 318 320 323 321 321 322 323 324 325 324 326 326 326 325 324 323 321 321 320 319 319 319 318
311 312 314 317 314 316 315 316 316 315 318 318 320 318 316 316 314 314 317 319 320 319 318 319 323 321 322 321 322 323 323 324 324 325 325 324 325 323 322 320 320 319 318 318 317
313 311 312 316 318 317 318 317 317 316 318 318 319 320 319 317 316 319 317 319 320 320 322 320 323 322 323 320 321 323 322 322 322 322 323 324 324 323 318 318 319 318 318 318 317

GFSSW_850_thetae_012.txt.gz
Theta_e
304 304 305 305 305 304 304 306 313 318 320 324 325 323 322 322 321 321 320 320 321 320 318 315 321 322 327 330 329 328 329 329 328 328 327 326 325 325 326 326 326 326 326 326 325
304 305 307 307 306 306 306 305 305 310 316 319 321 322 321 320 320 319 320 319 320 319 318 319 320 322 323 329 329 328 329 328 326 325 325 326 325 326 327 327 326 327 327 326 325
304 305 308 308 306 305 305 305 306 305 306 309 313 315 315 317 318 318 318 317 318 318 317 321 320 322 325 326 329 329 330 327 325 325 325 326 326 325 326 327 327 327 328 328 328
304 305 308 309 306 306 307 307 307 306 306 308 309 308 308 313 318 318 317 317 320 322 321 322 320 320 326 327 327 329 328 327 326 326 326 326 325 325 325 326 328 328 328 328 328
310 305 307 310 307 307 308 308 306 307 306 309 312 310 309 314 315 316 315 315 317 317 321 321 321 319 323 325 326 327 328 327 326 326 326 326 326 325 325 326 327 327 328 327 327
313 306 305 309 309 310 310 311 309 307 307 308 311 311 311 314 313 314 316 315 316 318 320 321 322 320 319 321 324 327 327 328 327 326 326 326 325 326 326 326 326 327 327 326 325
313 309 304 306 308 311 311 311 310 308 307 307 308 310 313 312 312 313 314 316 315 315 316 319 319 321 319 319 322 324 324 327 327 327 326 326 326 325 326 326 326 326 323 322 323
310 311 307 304 309 310 310 310 311 311 308 307 307 312 312 313 312 312 312 313 313 313 314 315 317 319 320 319 322 326 324 327 327 327 326 325 327 326 326 326 326 324 322 323 323
313 310 312 304 309 311 311 308 310 310 312 309 307 311 311 312 312 312 312 312 312 312 313 313 314 317 319 320 323 325 327 327 328 326 326 325 326 325 326 325 325 323 322 323 323
313 310 313 306 308 310 309 309 310 312 311 311 311 310 310 311 312 312 312 312 312 312 312 313 314 317 319 320 323 324 328 325 328 326 326 327 326 325 326 325 323 323 323 323 323
314 308 311 306 307 310 311 311 310 311 311 311 311 310 312 312 311 311 312 312 312 312 313 313 316 318 318 318 319 322 324 328 325 327 326 327 326 327 325 325 325 325 323 323 322
314 309 310 305 307 309 310 310 310 311 311 312 311 311 311 311 311 311 311 312 312 313 312 314 315 314 315 317 319 320 324 327 326 326 326 327 327 326 324 324 324 325 324 323 321
314 312 305 304 307 308 309 310 311 310 310 311 312 311 312 311 311 312 312 311 312 312 312 314 314 314 314 316 318 319 322 326 328 326 326 325 326 324 323 324 325 326 325 323 321
314 313 304 305 306 307 310 311 310 311 311 310 310 311 311 310 310 311 312 312 312 312 312 313 313 313 315 315 317 319 321 324 327 330 331 324 326 324 324 324 324 323 323 322 320
314 314 306 304 311 310 311 312 311 310 316 311 311 310 311 310 310 310 311 312 313 312 312 313 313 313 315 317 316 319 321 322 327 330 329 329 327 325 324 325 320 317 321 321 320
315 316 309 307 309 310 310 310 310 311 314 313 310 311 311 310 310 310 310 311 311 312 312 312 312 313 313 314 315 317 319 323 327 329 333 331 327 326 325 323 319 318 322 321 320
315 315 314 310 309 309 309 310 311 314 312 314 312 311 310 312 311 310 311 311 312 313 312 313 312 312 311 317 315 319 323 329 331 333 333 325 329 326 320 320 321 319 321 320 319
315 315 315 309 311 311 308 309 313 313 313 311 311 311 313 312 312 311 312 311 311 312 313 314 313 314 311 315 319 321 322 325 332 333 326 324 327 325 319 319 321 321 321 320 319
315 316 316 310 310 310 308 310 313 314 313 312 312 313 312 312 313 312 312 312 311 311 314 316 315 313 316 313 319 319 318 319 328 324 325 323 323 319 318 318 318 320 320 320 319
315 315 315 313 311 310 310 312 312 312 311 311 316 312 312 312 311 311 312 311 312 312 311 312 318 317 316 318 320 321 322 327 326 328 328 325 324 322 319 317 317 319 319 320 319
313 313 313 313 310 309 311 311 310 311 310 312 313 313 312 312 311 311 310 311 312 313 310 310 312 317 315 323 322 323 326 327 327 327 327 326 324 319 318 318 316 317 320 320 319
314 313 312 312 311 310 311 311 310 312 311 312 312 313 311 312 311 312 312 313 313 312 313 311 314 319 318 317 321 323 325 326 327 327 325 323 321 317 317 317 317 317 320 320 319
312 312 312 311 312 311 310 311 310 311 314 313 314 312 311 312 311 311 314 314 312 313 314 311 316 321 320 322 323 326 326 325 324 324 326 323 320 316 316 316 319 318 320 320 320
312 315 311 310 311 312 312 313 312 311 312 313 314 312 312 311 311 314 314 315 313 313 314 319 321 318 326 325 323 326 325 324 325 326 325 323 318 318 318 317 317 318 320 320 319
311 314 312 312 311 312 313 313 314 313 314 314 313 312 312 313 313 313 314 316 316 312 315 314 323 322 323 324 324 325 325 324 325 325 324 323 320 317 317 316 316 318 320 320 319
311 311 312 315 311 312 312 314 315 313 316 317 315 318 316 314 313 313 314 315 316 316 314 315 321 322 321 320 322 325 324 324 323 323 322 323 323 319 317 319 318 318 319 319 319
312 312 312 316 317 315 316 315 316 315 313 314 316 314 319 315 314 313 314 315 317 318 319 318 321 322 320 320 321 321 321 323 323 322 323 325 322 319 316 317 317 318 319 319 318

GFSSW_850_thetae_015.txt.gz
Theta_e
303 304 305 307 309 307 306 304 306 312 317 319 323 322 323 323 322 322 321 321 320 320 320 319 316 319 322 324 328 329 325 328 326 325 325 325 323 324 324 325 326 326 326 326 325
303 304 305 308 310 308 306 306 305 305 309 316 319 321 322 322 321 320 320 319 320 320 320 318 318 320 321 325 328 327 327 328 324 323 323 324 324 324 325 326 327 327 327 325 324
309 304 305 308 309 307 305 305 306 306 305 306 310 315 316 317 317 318 317 318 318 321 319 317 319 320 321 322 325 328 329 326 326 326 325 323 324 325 324 325 326 327 327 327 328
312 306 305 307 309 306 308 308 307 307 306 307 308 308 308 313 318 318 317 317 319 321 320 318 320 320 322 324 324 326 328 327 327 327 326 324 325 324 325 324 325 325 327 327 327
313 312 306 305 310 307 308 309 308 307 307 306 310 312 310 312 315 316 315 315 316 317 320 320 321 321 318 321 322 324 325 327 327 327 326 325 324 324 325 325 325 325 326 327 327
313 314 311 305 308 309 310 311 310 309 306 307 308 312 311 313 309 311 314 315 316 317 319 319 321 321 321 318 319 321 323 325 326 327 326 324 324 324 325 325 325 325 325 326 326
315 313 311 306 305 308 310 311 311 310 309 307 307 308 311 311 312 313 313 315 315 315 315 319 319 320 321 319 319 321 323 323 324 326 326 326 325 323 325 325 325 325 325 325 323
315 314 310 310 304 308 310 311 311 310 311 308 307 307 309 310 310 312 313 315 314 315 314 314 315 315 319 320 319 321 324 325 323 323 326 326 329 323 325 325 325 326 326 323 322
315 315 311 312 306 309 310 311 309 310 309 312 308 307 309 309 311 312 312 313 313 312 312 312 313 314 318 320 320 320 323 324 324 323 325 326 327 323 325 325 324 325 324 322 322
314 315 311 311 310 307 311 310 310 309 311 311 309 310 310 310 311 311 312 312 312 312 312 313 313 314 315 319 320 319 321 322 324 323 324 326 327 322 325 324 324 324 322 322 323
315 316 311 311 311 306 310 310 311 311 310 312 312 309 311 311 311 312 312 312 312 312 312 313 313 314 314 316 317 316 318 322 323 322 324 325 325 324 323 324 322 321 321 322 322
314 315 312 310 309 306 310 310 311 311 311 312 312 311 311 311 312 311 311 312 312 312 310 311 314 312 313 314 317 317 318 319 319 322 324 325 325 324 323 324 323 324 323 322 321
314 314 313 309 306 307 309 310 310 310 309 311 311 311 312 312 311 312 312 312 311 312 311 312 313 312 313 314 316 317 318 318 319 321 323 324 326 324 323 324 324 325 324 322 322
314 314 313 307 305 307 308 307 309 310 311 311 310 312 311 311 311 312 311 311 312 311 311 311 310 311 313 314 314 316 315 317 318 321 327 325 331 324 324 322 320 321 320 320 320
314 314 314 304 307 306 308 309 310 311 313 309 311 310 311 311 311 311 311 312 312 312 312 311 312 312 312 313 313 314 314 316 317 320 323 326 329 324 321 324 322 318 318 320 320
315 314 314 306 311 309 310 311 311 311 310 312 310 311 311 311 311 311 311 311 312 313 312 311 311 312 312 311 312 314 315 316 318 321 326 325 326 324 322 322 321 316 318 318 319
315 315 315 306 309 311 310 309 309 312 310 313 311 311 310 311 311 311 311 312 313 313 313 313 312 311 312 314 313 313 315 318 321 323 324 323 323 325 319 319 321 316 317 318 319
315 315 315 310 308 309 309 309 310 310 311 311 311 309 313 310 312 312 311 312 312 310 311 310 307 311 311 312 313 314 314 319 319 323 325 327 330 327 322 317 320 317 318 318 318
315 315 314 310 310 309 308 310 308 311 313 312 311 312 313 311 310 312 311 311 309 309 308 310 312 312 311 311 313 314 315 314 321 324 326 329 323 319 315 316 317 317 317 317 318
315 315 313 312 310 310 309 310 309 311 312 312 315 313 313 311 310 312 311 311 311 309 309 311 313 311 311 311 312 315 315 318 318 328 330 325 320 320 317 317 317 317 317 317 317
315 314 313 312 310 309 310 310 310 311 311 312 314 315 312 311 310 310 310 311 311 310 309 311 312 313 309 316 314 316 320 318 320 322 329 328 323 316 316 316 318 317 317 317 318
313 314 311 310 311 309 311 310 310 311 311 311 311 313 313 310 310 309 310 310 312 311 312 311 313 315 314 315 316 315 319 319 322 326 325 319 318 314 314 313 316 317 317 317 318
313 312 311 310 311 311 310 311 311 311 312 312 313 312 312 312 313 310 312 312 311 312 312 311 314 315 318 319 320 319 321 320 321 322 326 320 318 315 312 313 314 316 317 317 318
312 313 311 311 311 311 312 312 312 310 311 312 314 313 312 311 311 312 311 314 312 312 312 310 315 318 323 324 323 323 320 321 321 324 324 318 317 317 315 315 312 316 318 318 318
313 313 311 312 311 312 312 312 314 312 310 312 314 313 312 310 310 312 312 313 313 313 312 310 316 316 315 316 321 323 323 319 319 324 324 317 317 316 315 314 313 317 317 317 317
311 312 311 311 310 311 312 314 314 313 312 316 315 314 312 312 310 312 314 313 315 313 311 312 317 319 324 322 323 325 324 324 323 324 323 322 323 314 314 315 314 317 318 317 316
311 312 313 314 312 312 313 313 314 314 313 312 314 314 314 314 314 316 313 313 314 314 313 315 318 323 320 324 323 325 324 323 322 322 321 323 321 314 314 314 314 316 318 318 317

GFSSW_850_thetae_018.txt.gz
Theta_e
309 303 304 305 308 308 307 306 305 307 317 318 320 321 324 324 323 322 321 320 319 319 319 318 318 319 322 323 326 328 325 326 325 324 324 323 323 325 324 323 324 325 325 326 326
314 307 304 305 308 309 307 306 306 305 306 315 317 320 322 322 320 321 320 321 320 320 320 319 317 318 320 322 323 326 327 327 323 323 322 323 323 324 324 325 326 326 326 326 325
316 312 304 305 308 308 306 306 306 306 306 305 311 316 318 319 318 320 319 319 319 320 319 319 317 319 320 321 324 327 329 325 325 325 325 323 322 324 323 323 325 326 326 325 324
315 313 309 305 307 308 307 308 308 308 307 306 307 306 308 312 316 316 317 317 317 321 321 319 317 320 319 322 324 322 325 327 327 327 327 324 325 323 323 324 325 325 325 325 326
316 313 313 307 305 310 307 309 310 309 307 307 308 311 309 311 313 316 315 315 316 320 321 320 319 320 318 318 320 320 322 324 326 327 327 326 324 323 324 325 325 325 325 325 326
315 315 313 313 305 309 309 310 311 310 308 307 307 310 311 311 310 312 315 315 316 318 318 320 320 319 320 318 317 318 319 321 323 325 326 326 325 324 324 325 325 325 325 324 324
315 316 314 312 309 305 309 310 311 311 310 307 307 307 311 311 311 311 310 312 314 315 314 318 318 321 321 319 319 319 320 320 320 322 324 325 326 326 326 325 325 325 325 324 325
314 315 315 312 310 304 308 311 311 311 311 310 307 308 307 307 309 311 313 313 314 315 315 314 315 318 317 319 318 319 319 322 321 321 322 324 328 324 326 325 323 324 325 325 325
314 315 315 314 311 306 309 310 311 308 310 311 310 307 307 308 309 309 312 313 314 314 314 314 313 314 315 320 319 317 318 319 322 321 322 324 326 323 325 325 323 324 325 325 324
314 314 314 314 311 308 310 311 311 310 309 311 311 311 311 310 310 310 312 312 312 312 312 312 312 312 314 319 321 319 318 317 319 321 321 323 324 323 324 323 323 324 324 324 323
314 315 314 314 311 310 309 311 310 310 310 312 312 311 310 312 311 311 312 312 312 312 311 311 312 313 312 314 315 316 315 316 317 319 320 322 323 322 323 322 321 323 323 323 321
314 314 315 315 311 311 307 310 310 310 310 311 311 311 312 311 311 311 311 312 312 312 310 312 313 311 310 311 314 315 317 317 316 316 319 320 322 322 322 323 322 322 322 322 320
313 313 314 314 311 310 306 309 310 310 310 310 311 312 311 312 312 312 312 311 311 312 313 312 311 310 312 313 314 314 315 315 316 316 316 317 319 321 322 322 323 323 323 323 321
313 313 314 312 310 308 308 309 309 309 309 310 310 312 311 312 312 312 311 311 311 312 311 311 310 311 312 313 313 315 314 315 316 316 317 319 324 321 322 323 321 322 321 322 321
312 314 315 314 308 305 306 308 308 310 302 308 310 310 311 312 311 311 312 312 313 311 311 311 310 311 311 311 312 313 313 314 315 317 316 317 319 321 322 322 323 322 319 322 321
313 314 315 311 306 306 307 308 310 305 304 312 310 310 310 311 312 311 311 311 312 312 312 310 311 311 310 310 312 313 313 314 314 317 319 316 319 320 323 322 321 320 320 320 319
313 314 314 312 307 307 310 311 307 302 308 313 311 310 310 312 312 311 312 312 314 314 311 311 312 311 312 313 311 312 313 313 313 315 315 315 317 317 319 318 320 321 316 318 318
312 315 314 312 309 309 311 309 304 307 310 311 310 310 311 310 311 312 312 312 310 311 313 313 313 310 311 313 314 313 313 313 312 312 313 318 321 322 318 318 319 320 320 318 317
312 315 314 310 309 311 309 311 309 308 311 311 310 311 311 311 311 312 311 311 309 311 312 312 311 310 310 311 312 312 314 312 314 316 321 322 325 323 321 316 314 318 317 315 316
312 314 312 312 308 310 309 311 309 312 311 311 312 311 312 310 311 311 309 308 310 309 308 309 308 310 311 310 311 311 311 313 312 317 318 324 327 326 322 318 315 315 315 315 316
309 313 312 312 307 309 309 310 310 312 311 312 312 314 312 310 309 309 309 309 309 309 308 309 309 311 309 311 312 312 313 313 312 314 326 324 325 320 318 317 317 315 315 315 316
312 308 311 311 310 308 310 310 310 311 311 311 311 313 313 311 309 308 309 309 310 309 309 309 311 311 311 311 311 311 312 312 315 316 316 321 321 317 315 317 318 316 315 315 316
312 311 310 311 309 309 310 310 310 311 311 312 312 312 311 311 311 309 309 309 311 311 311 311 314 314 314 312 312 315 313 315 315 316 322 324 322 313 312 315 317 315 315 315 315
309 312 310 310 309 311 311 312 312 311 311 311 312 312 313 312 309 311 310 312 311 312 312 310 313 315 316 321 318 318 314 316 316 317 318 318 318 317 313 313 313 315 315 315 316
310 311 310 310 311 311 311 313 312 313 311 311 311 313 314 312 310 310 310 312 312 313 312 310 314 313 314 314 316 319 316 319 320 319 320 319 320 318 315 313 314 315 315 315 315
312 311 310 310 310 312 312 313 314 313 313 313 312 314 312 312 309 310 312 312 313 313 313 310 313 313 319 319 318 322 320 321 320 316 315 315 316 315 311 312 313 315 315 315 315
311 311 312 311 311 312 313 312 313 313 312 312 313 314 314 313 312 311 313 311 313 314 313 313 314 317 323 322 322 326 322 320 319 316 315 316 318 313 314 313 312 315 316 316 316

GFSSW_850_thetae_021.txt.gz
Theta_e
316 314 305 304 305 308 308 308 306 305 313 318 320 321 322 323 323 322 321 321 320 318 318 318 318 318 321 319 324 327 324 325 323 322 323 322 323 323 324 322 323 324 325 325 326
316 315 313 304 305 308 309 307 306 305 306 314 317 319 320 321 322 323 321 320 321 320 320 319 318 317 319 321 323 325 325 324 322 321 320 322 322 322 323 323 325 325 325 326 326
316 315 315 309 305 308 308 306 306 306 306 305 312 316 318 319 319 319 319 320 321 320 320 320 319 318 319 320 322 324 326 323 324 325 325 322 322 324 323 321 323 325 325 325 325
316 315 315 312 308 308 308 307 308 308 307 307 306 307 314 316 316 316 317 317 318 321 321 320 318 319 318 320 321 321 322 325 326 326 326 324 324 323 322 322 324 324 325 325 325
316 316 315 313 311 312 309 308 309 308 307 307 307 308 308 310 314 315 315 315 318 321 321 321 319 319 317 317 319 318 320 322 322 324 326 326 325 323 324 325 325 325 324 324 324
316 317 315 315 313 309 312 308 310 310 308 307 307 310 310 309 308 313 315 316 317 321 322 321 320 318 319 317 317 317 317 318 319 320 322 324 324 325 325 324 325 325 324 324 325
314 315 314 315 314 311 311 309 310 310 310 308 307 307 311 310 311 309 315 315 316 317 318 318 319 320 320 320 319 318 318 317 318 319 320 323 324 324 325 325 326 326 324 325 325
314 314 315 316 314 311 306 308 311 312 311 310 308 308 308 308 308 312 310 311 313 315 315 315 318 318 319 318 318 318 317 320 317 318 320 322 324 323 325 325 325 326 325 324 325
313 312 313 314 315 311 307 307 311 310 308 310 311 309 309 309 308 309 312 312 313 313 315 315 314 313 314 318 320 318 319 318 318 319 321 322 323 321 323 324 323 324 324 324 325
313 312 314 314 315 311 307 309 311 311 308 310 311 310 310 311 310 309 310 312 312 313 313 312 312 314 315 318 318 317 317 316 317 320 319 320 321 319 321 322 322 322 324 325 325
314 313 314 314 314 312 307 313 311 309 309 311 312 312 310 311 310 311 310 311 312 311 310 311 313 314 314 312 314 314 316 317 314 315 316 316 318 318 319 320 321 321 323 324 324
313 313 314 314 315 313 308 311 310 309 310 310 311 312 311 311 311 311 311 312 312 311 309 311 312 310 309 310 312 313 316 316 314 314 315 315 315 315 315 317 320 321 321 323 324
310 313 314 314 315 312 311 308 310 310 309 309 310 311 311 311 312 312 311 312 310 311 310 311 310 310 310 310 312 312 313 313 314 313 313 313 313 312 314 316 318 321 322 322 323
307 312 314 314 314 312 311 308 308 309 302 307 310 310 311 311 312 311 311 311 311 312 311 312 311 310 310 311 311 312 311 313 313 314 314 314 315 314 315 316 318 320 321 322 323
306 310 314 314 313 312 311 307 308 309 301 307 311 310 312 311 312 311 312 311 312 311 310 311 310 310 311 311 311 312 311 313 314 314 313 314 316 312 315 316 317 318 320 322 322
307 307 312 315 312 312 310 306 309 304 303 310 309 310 312 311 312 311 311 312 312 313 311 310 310 310 310 310 310 312 312 312 313 314 315 313 314 313 311 314 317 317 320 321 322
306 305 310 313 312 307 306 308 308 304 307 311 309 309 309 311 311 312 312 313 313 314 312 312 312 310 311 311 310 311 314 315 316 315 313 311 314 314 311 313 316 318 319 322 322
304 307 310 312 312 306 308 308 301 306 308 310 310 310 310 309 311 312 312 311 312 312 313 312 312 312 310 311 312 311 313 314 314 311 310 309 311 313 313 312 313 317 319 319 318
305 305 308 312 311 307 309 310 306 306 309 310 310 311 311 311 311 311 312 310 310 310 311 311 310 310 310 310 312 313 313 311 313 313 316 315 314 318 313 315 314 314 316 317 316
304 306 310 312 308 309 309 306 307 310 309 309 310 310 311 311 311 310 309 308 310 308 309 310 307 309 310 310 311 311 311 314 314 314 312 312 318 318 318 318 315 313 314 315 316
304 305 308 310 309 309 310 310 308 311 311 310 310 312 311 310 310 309 308 307 308 308 309 310 310 308 310 312 312 312 312 312 311 311 313 316 315 317 318 318 315 312 314 315 315
303 305 309 310 311 308 310 309 309 310 311 310 311 312 313 311 310 307 308 308 308 308 310 309 310 311 310 310 310 310 310 311 313 309 310 309 312 313 312 312 315 313 314 315 315
308 308 309 310 307 309 310 310 310 311 311 311 312 311 311 313 312 308 308 308 308 308 309 310 312 312 314 310 310 312 311 310 310 312 312 312 309 313 315 314 316 316 315 314 314
307 306 309 308 308 309 311 311 311 310 311 311 312 311 312 311 310 310 309 310 308 309 310 310 312 313 314 315 312 312 312 311 312 313 313 313 314 316 317 316 314 314 314 314 314
306 308 306 309 309 309 310 312 312 313 311 311 312 312 314 314 311 311 310 310 311 312 312 310 312 312 312 312 312 314 313 313 312 312 312 312 317 316 316 315 316 314 313 313 314
310 310 310 309 309 310 311 312 313 312 312 312 313 312 312 314 310 308 309 309 313 313 313 310 310 311 313 315 314 316 314 313 312 312 312 316 317 314 314 314 312 313 313 313 313
310 310 310 311 311 312 312 313 312 313 312 312 311 312 314 313 312 311 310 310 311 314 314 310 311 315 321 319 317 319 318 314 314 314 316 318 316 314 314 314 313 313 314 314 314

GFSSW_850_thetae_024.txt.gz
Theta_e
319 316 315 314 303 304 307 309 308 307 306 315 319 318 320 322 322 321 322 321 320 319 318 318 318 318 318 319 322 325 323 323 322 321 321 321 321 322 323 322 323 323 325 325 326
320 317 315 314 312 304 307 309 308 306 306 306 317 318 320 321 324 323 322 321 321 320 318 319 319 317 317 320 322 324 323 322 320 319 320 320 321 321 322 322 323 324 325 325 325
316 318 316 314 314 306 307 309 306 306 306 306 307 315 316 320 320 319 320 321 320 321 321 320 319 317 317 319 321 323 323 321 322 324 324 322 321 323 322 322 323 323 324 325 325
314 317 316 315 314 311 306 308 307 308 308 307 306 306 314 316 314 316 316 317 319 320 322 321 319 317 317 318 320 320 320 323 324 325 325 324 324 322 323 323 324 324 324 324 326
313 314 317 316 314 313 308 309 308 308 308 307 307 310 308 312 315 315 315 316 317 321 322 321 319 318 317 316 317 319 318 321 321 320 321 323 323 324 324 326 325 325 325 325 324
314 313 315 317 315 314 311 311 308 309 309 308 307 310 310 307 308 309 315 316 318 321 321 322 320 319 318 317 316 316 317 316 317 318 318 319 320 322 323 324 325 324 324 324 325
315 314 313 316 316 314 313 309 309 310 310 308 307 308 310 309 310 310 315 316 318 321 321 321 321 319 319 318 318 318 317 316 316 317 317 319 320 321 321 321 323 323 325 324 325
314 313 313 314 315 314 313 309 309 311 311 310 310 309 308 309 308 311 312 315 315 317 315 314 318 318 319 318 317 318 317 318 315 316 317 320 321 320 321 320 322 322 323 323 324
310 314 313 314 314 316 313 308 308 311 311 309 311 310 309 310 309 308 311 311 313 313 315 315 313 313 315 316 317 318 318 318 316 315 317 319 320 320 320 321 321 322 323 323 324
306 312 313 313 314 314 313 307 309 312 309 310 311 311 311 311 309 308 309 311 312 313 314 314 313 313 313 315 315 316 318 317 317 316 314 316 317 316 317 318 318 320 321 322 323
303 308 313 313 314 315 312 309 311 310 309 309 311 311 310 311 310 310 310 310 311 311 311 311 313 315 314 312 313 314 316 317 316 315 315 315 315 314 314 316 317 318 319 320 321
303 306 310 313 314 315 312 310 311 309 309 309 310 312 311 311 311 311 310 311 311 311 309 310 311 311 310 311 313 313 314 314 312 312 313 313 314 313 312 313 315 317 318 319 321
303 304 308 313 315 315 313 308 310 310 308 308 309 310 312 311 312 311 311 311 310 309 309 310 310 309 310 310 311 312 311 310 310 310 311 312 312 309 309 311 311 312 314 316 319
303 303 306 311 313 314 311 309 309 309 299 304 309 310 310 311 311 312 311 311 310 310 309 311 310 310 309 310 309 311 309 311 312 312 312 310 313 310 309 309 308 311 314 316 317
301 302 304 307 309 313 311 309 308 307 301 307 310 311 311 310 311 311 311 311 312 312 311 312 310 310 312 310 309 311 310 311 312 312 312 312 313 309 308 310 310 312 315 318 319
302 301 302 304 312 314 312 309 307 300 304 310 309 311 312 311 312 311 312 311 312 312 311 310 309 309 309 309 309 310 310 311 312 313 315 312 312 311 309 309 308 309 313 314 317
303 301 302 304 310 313 311 308 306 304 306 310 310 309 310 311 311 312 312 313 314 314 312 312 312 311 310 310 310 311 314 315 315 315 313 309 312 312 308 308 308 309 311 314 317
304 302 302 303 306 311 307 304 304 306 307 309 308 309 309 309 311 311 312 312 312 313 313 310 309 311 310 310 310 311 312 314 315 310 308 308 310 311 309 310 311 311 313 316 317
304 303 305 303 306 308 307 308 306 305 309 310 309 309 310 310 311 311 312 311 310 311 313 313 309 309 310 309 310 313 313 311 314 314 316 312 310 310 311 309 310 311 311 312 316
304 305 304 304 308 308 307 307 307 308 308 308 310 309 311 311 311 312 310 306 309 309 307 308 311 307 309 310 310 312 310 313 313 315 315 309 309 311 312 313 313 312 310 313 313
304 305 307 308 305 308 309 307 307 310 309 309 309 310 310 311 311 310 307 306 307 307 307 309 310 308 310 311 311 313 314 313 312 313 310 309 308 310 313 313 315 314 314 314 315
304 305 309 308 307 308 310 308 309 310 310 310 310 311 310 310 310 309 307 307 307 307 309 309 310 311 308 309 309 310 311 311 312 308 309 308 310 312 313 314 314 314 313 313 315
306 306 309 306 307 309 309 309 310 311 310 310 310 311 311 312 312 309 307 307 307 308 308 309 311 312 311 310 310 311 311 310 310 310 308 308 309 307 309 313 314 314 314 314 313
305 306 308 307 307 309 309 310 310 310 311 310 312 311 311 313 311 311 308 308 307 308 309 309 312 312 313 313 310 312 311 311 311 312 310 310 310 309 310 314 315 314 314 314 313
307 304 305 306 308 309 308 309 310 312 310 310 312 312 312 315 312 312 308 309 309 309 310 310 312 311 312 312 310 312 312 312 312 310 310 309 309 309 313 313 314 313 314 313 312
308 309 308 307 308 308 310 310 310 312 311 312 312 311 312 314 311 310 309 308 309 312 312 311 311 312 312 312 313 313 314 313 311 311 311 311 311 311 313 314 314 314 313 314 312
306 310 310 309 309 310 310 310 311 311 311 312 311 312 313 313 311 312 310 309 310 312 313 312 311 314 316 314 314 318 314 313 312 311 311 312 311 310 311 314 313 314 314 313 313

GFSSW_850_thetae_027.txt.gz
Theta_e
316 316 318 316 314 313 304 306 309 309 308 306 313 317 319 319 322 322 320 320 320 319 318 318 318 318 317 319 323 324 326 326 323 321 322 320 321 321 322 321 323 323 323 324 325
315 315 318 316 315 313 307 305 309 308 307 306 309 317 318 320 322 323 322 321 321 320 319 318 318 317 317 320 321 324 326 324 321 319 321 320 320 321 322 321 322 323 323 324 324
310 315 315 317 315 314 313 305 309 306 306 306 305 313 317 318 320 320 321 321 322 321 321 320 319 317 317 319 320 322 325 321 322 322 323 323 323 323 322 323 322 323 323 324 325
316 313 314 316 316 314 314 306 308 307 308 308 307 306 312 316 312 316 316 317 319 322 321 322 319 317 317 318 318 320 320 322 322 322 323 324 324 324 323 323 324 323 323 324 324
314 314 314 314 317 315 314 312 308 308 308 308 307 308 307 311 315 314 315 315 318 322 322 321 319 317 317 316 317 319 318 319 320 319 319 320 321 322 323 324 324 325 325 325 325
311 314 315 314 314 317 314 313 308 308 309 309 307 309 309 306 308 311 315 315 317 321 321 321 320 318 317 316 316 316 316 316 317 317 317 319 319 319 319 319 320 322 324 323 324
306 310 313 315 313 316 314 313 311 309 310 309 307 307 309 310 309 310 311 315 319 321 320 320 320 319 318 318 318 318 318 317 316 317 317 318 318 319 319 319 320 320 320 321 322
304 307 310 313 313 315 316 313 311 309 310 310 311 310 309 309 308 309 312 316 319 320 319 318 319 319 319 318 316 318 317 318 315 316 316 317 317 317 318 319 319 320 320 318 317
303 302 306 311 313 314 316 314 309 309 312 311 311 310 310 310 310 308 310 314 314 316 314 314 315 315 316 317 316 317 317 318 317 315 317 318 320 318 318 317 318 319 320 321 321
302 303 303 308 313 314 316 313 308 311 311 309 310 310 310 310 309 308 310 311 312 311 313 314 313 313 313 316 315 315 317 316 316 315 314 315 316 315 314 315 316 316 316 317 319
302 303 302 305 311 314 315 311 309 310 309 309 309 310 310 310 310 310 308 311 312 312 312 311 313 313 314 312 313 314 315 315 315 315 313 314 314 314 313 313 313 314 314 315 316
302 302 303 304 308 313 315 310 309 309 309 310 309 311 310 311 311 311 309 311 311 311 308 311 312 311 312 313 313 314 315 315 313 312 312 312 313 313 312 313 313 313 313 314 314
301 302 302 303 306 311 314 313 311 310 307 307 309 309 311 311 311 311 310 311 310 309 309 311 310 309 311 311 312 312 314 313 312 311 310 310 311 310 309 309 310 311 312 312 313
301 301 302 302 304 311 312 312 311 311 299 304 308 309 309 311 310 311 310 310 310 311 309 310 310 310 309 311 311 312 310 311 311 311 311 309 312 310 310 310 310 308 309 310 311
301 301 303 302 304 307 311 309 310 308 299 306 309 310 310 310 310 311 311 311 311 311 310 311 310 310 311 310 308 311 309 310 311 312 311 311 312 311 308 310 310 309 309 310 311
301 301 302 302 302 305 309 309 309 305 301 311 309 311 312 310 311 310 311 311 311 312 311 309 309 309 309 309 309 310 310 311 312 313 315 312 313 312 311 309 309 309 310 311 312
302 303 302 303 303 305 309 307 306 303 306 310 310 311 311 311 312 312 312 313 313 314 312 311 313 311 309 310 309 310 313 315 316 316 314 309 312 312 310 310 309 309 308 310 311
303 304 304 303 302 308 308 306 304 306 307 308 309 310 310 311 311 311 312 313 312 312 314 313 309 311 311 311 311 311 312 315 314 313 311 308 313 312 309 310 310 309 309 310 310
304 304 304 302 303 304 306 309 306 306 309 309 309 309 309 309 309 311 311 311 311 312 314 311 310 308 309 309 310 312 312 311 313 312 315 313 310 308 309 309 310 312 314 313 312
303 303 303 304 304 303 304 308 306 307 308 308 310 308 309 310 310 311 310 307 310 309 310 309 309 306 308 309 310 312 310 313 312 314 314 313 311 312 309 310 313 314 315 314 314
304 304 305 304 304 304 308 307 308 308 308 308 309 309 309 311 310 311 308 306 306 307 308 308 308 307 309 310 310 312 313 313 311 313 313 311 311 306 307 314 314 314 315 314 314
302 306 305 306 304 303 309 307 310 309 309 309 309 309 309 309 310 310 308 306 306 306 309 308 309 308 307 308 309 309 311 311 314 313 312 309 310 313 312 312 314 314 315 314 314
303 306 306 307 307 308 308 309 310 310 309 310 310 310 310 309 310 308 307 306 307 307 308 308 310 309 309 309 309 311 311 311 311 312 313 312 310 307 307 311 314 314 314 315 313
305 307 305 306 306 308 309 309 310 310 310 310 311 310 310 312 310 310 308 308 306 307 309 308 310 310 312 313 312 312 312 311 311 313 312 311 310 308 308 308 311 314 314 315 313
306 304 304 306 307 308 308 309 310 310 310 310 311 311 311 313 311 311 308 308 307 308 309 309 312 311 311 311 311 311 312 311 312 311 312 310 309 308 307 308 314 313 312 314 314
308 308 307 306 308 308 309 308 309 311 310 311 311 311 311 314 311 309 309 308 309 307 309 310 312 312 312 312 313 313 315 313 311 311 311 311 310 308 311 312 311 310 311 314 313
304 308 309 307 308 309 308 308 308 310 310 311 311 311 312 311 311 311 312 309 309 311 311 313 312 314 316 315 316 318 317 314 312 311 311 312 311 310 310 311 311 310 312 311 313

GFSSW_850_thetae_030.txt.gz
Theta_e
315 314 316 316 318 316 314 311 304 308 309 308 307 316 318 318 318 322 321 321 319 318 318 319 318 319 319 320 325 325 324 324 323 323 322 322 322 322 322 323 324 324 324 325 324
317 315 314 315 318 316 315 313 305 308 308 307 306 315 318 320 320 322 321 321 321 320 319 320 319 319 320 321 323 324 325 323 323 323 322 322 323 323 323 324 324 325 324 324 324
315 316 312 315 315 317 314 314 311 307 307 306 306 310 316 318 320 321 321 322 321 321 322 320 319 319 319 321 322 323 325 322 323 322 323 324 324 323 323 324 324 325 325 324 325
307 312 315 313 314 316 315 314 313 306 307 308 307 306 312 314 319 316 318 319 321 323 323 321 320 319 320 320 320 322 321 322 322 323 324 324 324 324 323 322 322 324 324 324 325
306 307 312 313 314 314 317 314 313 307 308 308 308 308 307 314 316 315 314 315 317 323 323 321 320 320 320 319 320 320 319 319 320 321 320 320 321 322 321 322 323 324 324 324 325
305 305 308 311 313 314 315 315 313 310 308 309 308 308 310 309 309 313 314 315 318 322 323 322 321 319 319 319 319 318 319 319 319 319 319 319 319 319 319 319 320 320 321 322 323
303 304 304 307 311 314 314 316 313 312 308 310 308 308 310 312 309 309 310 314 317 322 321 321 320 319 320 320 319 319 320 319 319 318 319 318 320 320 319 319 319 319 320 320 321
302 302 303 304 308 313 314 316 313 311 309 310 310 310 311 309 309 310 310 316 318 319 321 320 320 320 319 319 318 319 319 321 319 318 318 318 320 318 319 319 320 320 320 319 320
302 302 302 304 304 310 313 315 314 310 310 311 310 310 312 310 309 308 311 315 318 317 317 318 319 317 318 320 319 319 321 320 320 317 318 319 321 320 319 319 319 320 320 321 321
301 300 302 301 302 308 313 314 314 310 312 311 310 310 310 311 309 309 310 313 314 315 314 314 314 315 315 318 321 319 319 318 318 317 317 318 319 318 318 317 318 319 319 319 320
300 300 301 303 303 306 312 316 311 312 310 311 311 310 310 310 309 309 311 311 313 314 316 314 316 316 315 314 316 316 317 318 316 316 316 316 316 316 315 315 315 315 316 317 318
300 300 301 301 303 303 308 311 310 311 311 310 311 310 311 311 311 311 311 312 313 315 314 314 314 314 313 314 314 314 316 316 315 314 314 314 315 314 314 314 314 314 314 314 315
300 300 301 301 302 302 303 311 311 310 311 310 310 310 311 311 312 312 310 311 313 314 314 315 313 311 313 313 313 313 313 314 315 314 313 313 315 315 314 313 312 312 312 313 313
301 301 302 302 302 304 306 309 309 311 312 309 310 310 310 311 312 312 311 312 312 313 313 314 312 311 312 313 313 315 312 312 313 313 315 312 317 315 315 314 313 313 312 312 313
301 300 301 302 303 303 307 308 309 310 317 308 309 310 310 310 311 311 311 311 313 312 312 313 312 313 312 312 312 313 311 311 312 313 313 314 313 314 313 314 314 314 314 313 312
301 302 303 301 302 302 305 309 309 310 313 310 309 311 311 310 311 311 311 311 311 312 312 312 311 311 312 311 311 311 312 312 312 313 316 314 314 315 315 315 314 313 313 312 312
301 303 302 304 302 302 304 305 309 316 308 310 310 312 311 310 312 312 313 313 314 314 314 312 313 311 310 312 311 311 314 314 316 316 315 313 315 315 314 313 313 313 312 312 313
304 303 303 303 302 301 305 306 314 309 310 309 310 312 312 310 311 312 313 314 312 312 314 315 316 313 312 312 312 312 312 315 315 315 314 312 314 313 313 312 312 311 313 316 316
302 303 304 304 305 305 305 310 313 309 309 310 310 311 311 310 311 311 312 312 312 312 313 315 313 310 311 311 311 312 314 313 314 314 315 313 312 312 312 312 312 313 315 315 316
303 303 303 304 303 304 305 311 308 309 309 310 311 310 310 310 312 311 311 310 311 311 311 312 313 309 310 311 311 312 311 313 314 313 313 313 312 313 312 312 316 315 315 316 316
302 302 303 303 303 303 310 309 310 309 309 310 311 311 311 311 311 311 312 309 310 310 311 311 310 310 310 311 312 311 313 314 312 313 313 313 313 311 311 311 314 314 315 316 316
302 304 303 303 305 305 310 310 309 310 310 310 310 311 311 311 311 312 311 309 308 309 311 310 310 310 311 310 310 310 311 311 314 314 313 314 314 312 313 314 315 313 313 315 315
302 305 304 304 309 310 308 311 310 311 310 311 312 312 310 312 313 311 310 308 307 309 311 310 311 312 314 313 311 311 311 311 312 313 314 315 313 311 312 314 312 312 313 314 315
304 306 305 304 307 309 311 311 311 310 311 311 311 311 312 312 311 311 310 309 308 309 309 309 311 312 314 316 315 314 313 312 312 314 314 314 313 311 311 310 310 310 311 313 315
306 305 305 308 308 309 310 311 311 312 311 311 312 312 312 313 312 312 310 310 309 308 309 310 312 312 312 312 313 313 313 313 313 312 314 313 313 312 312 311 310 309 311 312 314
306 308 306 307 307 309 310 311 312 311 312 312 313 312 312 313 311 312 311 311 311 310 311 311 312 312 313 313 314 315 315 316 315 314 313 313 314 312 312 311 310 312 311 311 314
303 307 308 308 309 310 310 310 311 311 311 311 311 312 312 312 311 312 310 310 309 311 311 312 312 313 315 314 315 320 319 317 315 313 314 315 313 312 312 311 311 311 312 313 314

GFSSW_850_thetae_033.txt.gz
Theta_e
316 317 317 314 316 316 318 315 313 307 306 309 309 307 316 318 317 317 321 322 322 319 318 322 320 320 320 321 322 325 326 325 325 323 323 323 323 323 323 323 324 325 325 327 329
314 314 315 316 315 316 318 315 314 313 305 309 308 307 317 319 320 320 321 322 320 320 320 321 321 320 320 321 322 325 325 323 322 323 323 323 323 323 323 323 323 325 325 326 328
307 307 311 314 314 315 317 318 314 314 306 308 307 306 315 319 321 322 322 321 321 321 322 320 320 320 321 321 322 323 325 322 322 324 324 323 323 323 324 325 323 324 325 326 327
304 306 307 309 312 314 315 318 315 314 307 307 308 306 311 317 321 321 321 321 322 323 324 321 320 320 320 322 321 323 322 322 322 323 324 324 323 323 323 323 323 323 326 326 326
303 303 305 307 310 313 314 314 316 314 310 308 309 308 308 316 317 317 316 317 320 323 324 322 321 320 321 320 320 321 322 320 321 322 322 322 322 323 323 323 323 323 324 326 325
303 303 304 305 306 311 313 314 315 314 311 308 309 308 313 312 313 316 315 316 320 323 324 323 323 321 321 321 321 320 320 320 320 320 320 321 320 320 320 320 320 321 322 323 324
303 303 303 302 304 307 312 314 314 314 312 308 309 309 313 314 311 311 314 317 321 322 323 323 322 321 321 321 320 320 322 321 321 320 320 320 321 321 319 319 320 320 320 320 321
303 302 303 302 303 304 308 313 314 315 312 308 310 312 312 312 312 310 312 316 318 322 323 323 321 320 320 320 320 320 321 323 321 320 320 319 321 321 320 320 320 320 320 320 320
302 302 302 301 302 303 305 311 314 316 312 309 310 313 314 311 310 310 312 316 317 319 321 322 321 320 320 321 321 321 323 323 322 320 320 320 323 322 321 321 320 320 321 321 321
301 300 300 300 302 302 303 308 313 315 311 311 312 312 311 312 312 311 312 316 316 318 319 319 319 318 318 322 324 323 323 322 321 320 319 319 320 319 319 319 319 320 320 320 321
300 300 300 300 302 302 304 307 312 314 313 313 313 312 312 312 311 311 312 316 315 316 316 315 317 318 319 320 320 318 319 320 319 318 318 318 318 318 317 317 317 317 318 319 319
301 300 300 300 301 301 304 303 309 310 311 312 312 312 312 312 312 311 312 314 315 316 315 316 318 317 316 316 316 317 318 318 317 316 316 316 317 316 316 316 316 316 316 317 317
300 300 301 301 301 301 304 304 307 310 313 312 312 312 312 312 313 311 312 313 315 315 315 317 316 313 315 315 316 316 316 315 315 315 315 316 317 317 317 316 316 315 315 315 315
300 301 302 301 301 304 305 304 306 310 312 312 312 311 312 312 313 313 312 313 313 314 314 315 314 313 314 315 315 316 315 314 314 315 318 314 318 316 316 316 316 315 314 314 314
301 301 302 301 301 303 305 306 306 308 319 312 311 311 311 312 312 313 312 312 313 314 314 315 314 314 314 314 313 314 313 313 314 314 314 315 316 316 315 316 315 315 315 315 315
301 301 304 303 302 302 304 306 305 308 319 311 310 311 312 311 312 312 312 312 312 313 313 314 312 313 314 313 313 312 312 312 313 313 316 315 315 316 316 316 316 317 316 314 314
301 303 303 304 303 303 303 305 309 314 310 312 311 311 312 311 312 313 313 313 314 315 315 313 313 312 312 313 312 312 314 316 317 317 316 314 316 315 315 314 314 315 314 313 313
302 303 305 303 304 303 305 305 314 313 312 310 312 311 312 310 312 312 312 313 312 313 314 314 318 314 312 312 313 312 313 316 316 317 316 315 315 314 314 314 313 313 313 312 315
301 303 304 305 304 302 305 309 315 312 310 311 312 313 313 311 312 313 313 313 313 312 315 316 315 312 313 312 312 313 314 312 314 313 314 313 313 313 313 313 313 313 312 313 316
302 303 303 303 303 302 307 307 311 310 310 312 312 311 312 311 313 312 312 312 312 312 312 314 315 312 312 312 311 312 313 314 314 315 315 314 314 314 314 314 313 313 315 316 316
303 304 303 304 304 304 310 311 311 310 310 312 312 311 310 311 313 312 313 312 312 312 312 311 312 312 310 312 313 312 313 313 313 315 316 316 315 314 313 312 312 315 315 315 315
302 304 304 304 306 307 311 311 310 310 311 311 312 312 312 312 314 314 314 312 310 311 312 311 310 312 312 311 311 312 312 312 315 314 315 315 315 313 312 312 314 314 313 313 314
303 303 303 305 310 311 309 311 310 311 312 312 313 312 312 313 314 314 313 310 309 311 311 311 311 313 315 313 312 312 312 311 313 314 316 316 315 312 311 312 312 313 312 311 313
305 305 303 305 308 310 312 312 312 312 313 312 313 312 313 313 313 313 312 311 309 309 309 311 311 312 316 319 316 314 313 313 313 316 315 315 315 314 313 313 312 311 311 311 311
307 306 306 310 311 311 311 312 312 313 312 313 313 313 314 314 314 313 312 311 310 310 310 311 313 311 312 312 313 314 314 315 314 314 315 315 315 315 314 313 313 312 311 311 311
305 308 307 308 309 311 311 311 312 313 313 313 314 313 313 314 313 313 311 311 312 311 311 311 313 313 313 312 314 316 315 317 317 317 317 315 315 314 313 312 311 312 312 311 312
304 306 308 308 310 311 311 312 312 312 312 312 312 313 313 313 312 312 311 311 311 312 311 312 313 313 314 314 315 321 319 318 317 317 317 318 316 315 313 313 312 312 312 312 313

GFSSW_850_thetae_036.txt.gz
Theta_e
307 312 314 316 316 314 317 317 317 315 313 305 308 309 308 313 317 318 318 320 321 323 319 324 322 321 320 322 322 323 326 325 324 323 323 322 322 324 323 323 324 325 325 328 337
305 306 309 313 314 315 315 317 317 316 314 307 307 308 308 316 318 321 317 321 322 322 318 322 321 321 320 321 322 324 326 327 323 322 322 322 323 323 323 323 323 324 325 326 329
305 305 305 306 307 312 314 316 318 318 314 310 307 307 308 318 319 319 321 319 322 321 321 321 321 321 321 320 321 322 324 322 322 321 324 324 323 323 323 323 323 323 325 325 327
305 304 304 305 306 308 310 314 316 318 315 313 307 307 307 317 320 322 321 322 321 321 323 323 320 320 321 321 321 321 322 322 322 322 323 324 323 323 323 323 323 323 323 326 326
304 305 304 303 304 307 308 312 314 315 315 312 307 309 306 316 318 319 317 321 322 323 322 324 320 320 320 319 321 321 321 321 322 322 321 323 323 322 323 323 323 323 323 324 326
304 304 304 304 303 304 305 308 313 315 316 312 308 308 309 313 314 316 315 316 318 322 323 323 321 320 321 320 319 320 320 320 320 320 320 320 321 321 320 320 321 322 322 322 323
303 303 303 303 303 303 303 306 311 314 316 313 308 309 313 314 312 312 314 316 320 321 323 324 323 321 321 321 321 320 320 320 320 320 320 320 320 320 320 320 320 320 320 320 321
303 302 303 302 302 303 302 304 308 315 317 314 308 310 313 313 314 313 312 315 318 322 322 323 322 321 321 320 320 321 321 322 320 320 320 320 320 319 320 320 319 319 320 320 320
301 301 302 302 301 302 303 302 306 313 315 314 309 312 313 313 313 313 312 315 317 321 321 323 321 320 321 321 322 320 321 321 321 320 320 319 320 320 320 321 321 320 320 320 320
301 301 300 301 300 300 302 303 304 310 312 311 312 312 312 313 312 311 313 317 317 318 321 322 319 320 320 322 322 321 321 320 321 320 319 319 319 318 319 319 319 320 321 320 321
300 301 300 301 300 301 302 304 307 311 314 312 312 312 312 313 312 311 314 316 317 318 320 320 320 321 319 319 319 322 320 318 317 318 317 316 316 316 316 317 317 318 318 319 319
300 301 301 301 301 301 301 304 305 307 312 312 314 313 313 312 312 312 314 316 316 319 316 316 316 317 317 319 319 317 317 316 316 316 314 314 314 314 314 314 315 315 316 317 317
300 300 301 301 301 301 302 303 303 304 311 311 313 313 312 313 313 312 314 314 316 316 316 316 315 316 316 316 316 315 316 315 315 314 313 313 314 314 315 314 315 315 315 315 316
300 301 301 301 302 303 304 304 304 303 309 314 313 313 313 313 313 313 314 314 314 316 315 315 314 314 314 315 315 316 314 315 315 314 315 313 315 313 313 313 313 314 315 315 315
300 301 302 303 302 302 304 304 305 304 315 312 312 312 313 313 313 312 313 313 314 314 314 315 314 315 314 314 314 314 313 313 314 313 312 313 312 312 313 313 313 313 315 315 315
301 301 303 303 304 303 302 303 304 308 314 313 311 312 313 313 313 312 312 312 313 313 313 314 313 313 313 313 313 312 312 312 312 313 313 312 313 312 313 313 312 312 315 315 314
300 302 303 304 304 303 304 304 306 311 310 312 313 312 312 313 313 313 313 313 313 314 315 313 313 312 312 314 313 313 314 313 315 315 312 312 313 312 312 312 312 312 314 314 313
302 303 304 303 304 303 303 305 311 313 313 310 312 312 312 313 313 313 314 313 313 312 314 314 315 313 312 313 314 313 313 312 315 315 314 312 314 311 312 313 313 313 313 314 313
304 303 303 303 303 303 305 307 312 312 310 312 312 312 312 312 313 313 312 312 311 312 314 315 315 313 312 312 313 313 312 311 311 311 309 311 311 311 311 311 310 311 313 313 312
304 304 304 304 302 304 307 309 310 311 311 311 312 312 311 311 312 313 313 312 312 311 311 314 314 312 313 312 311 312 312 313 312 311 312 312 312 312 312 311 311 309 313 314 316
303 304 303 304 303 304 308 309 310 310 311 312 311 311 311 312 312 312 311 312 311 312 311 312 312 311 310 311 312 311 312 312 312 314 314 314 313 312 311 310 310 310 315 315 315
302 304 303 303 304 305 310 311 310 311 311 312 311 311 311 311 312 312 313 312 312 312 312 311 311 309 310 310 310 312 311 310 311 310 312 313 314 312 311 311 310 310 314 314 313
303 303 304 304 308 310 308 310 310 312 313 313 313 312 311 312 313 314 313 310 311 311 312 311 310 309 313 311 310 311 311 311 311 312 312 314 312 312 310 311 312 311 311 312 312
305 304 304 305 307 308 311 311 312 312 313 313 312 313 312 313 313 313 312 310 310 311 310 310 312 310 311 314 314 312 312 311 313 314 313 313 312 312 312 313 313 313 312 312 312
308 307 307 309 310 310 311 312 312 314 313 313 314 314 314 313 313 313 312 311 310 310 310 311 311 310 310 310 310 311 312 313 313 314 315 314 315 314 314 314 313 313 312 312 312
306 307 308 308 310 311 310 312 313 313 314 314 314 313 313 313 312 313 311 311 312 310 310 310 310 310 309 310 311 311 312 313 316 317 318 317 317 315 314 314 313 312 312 312 312
305 306 307 309 310 311 312 311 312 312 312 312 313 313 314 313 312 312 312 311 311 311 311 312 311 313 309 312 312 317 316 318 317 317 318 318 317 315 316 316 314 312 311 311 311

GFSSW_850_thetae_039.txt.gz
Theta_e
306 306 306 306 310 312 315 315 317 317 316 314 311 305 309 309 310 317 317 311 316 321 321 320 320 318 320 320 321 321 320 321 323 323 322 322 320 322 323 323 323 324 329 336 338
307 306 305 306 305 308 311 314 316 320 317 316 313 306 308 308 314 317 315 315 322 320 322 322 323 320 320 320 321 320 321 323 321 320 319 321 322 322 322 322 322 323 328 335 336
305 305 305 306 305 305 308 310 313 317 319 317 314 306 307 313 317 314 313 317 323 322 321 320 322 321 320 320 320 320 322 322 323 322 322 323 322 323 321 320 322 322 324 326 325
305 305 305 305 305 304 304 306 310 314 316 318 314 307 307 315 317 321 320 318 322 321 322 318 321 320 319 319 320 319 320 321 321 321 321 322 323 323 322 322 322 323 323 323 328
305 304 304 304 304 304 304 305 306 311 315 317 314 308 307 314 316 318 318 321 323 321 320 323 322 320 319 318 319 318 318 320 320 321 320 321 321 321 322 323 322 322 322 323 324
303 304 303 303 303 303 302 303 306 309 313 317 314 309 309 314 313 316 316 318 322 322 321 322 322 319 319 318 317 319 319 319 320 320 320 319 319 320 321 322 321 322 322 322 322
304 302 302 303 303 303 303 303 303 306 312 316 314 308 311 311 312 314 315 316 318 320 322 322 323 321 321 320 320 319 319 318 319 319 318 320 318 318 320 319 319 319 319 321 320
303 302 301 302 301 301 302 302 302 302 309 315 314 309 311 311 313 314 312 316 320 321 320 322 323 321 321 320 320 319 319 321 319 318 319 319 319 318 319 319 319 319 319 318 319
301 300 300 301 301 300 300 301 302 302 306 313 313 310 311 311 313 314 311 315 319 321 321 322 322 321 321 320 321 319 319 319 320 318 319 318 319 317 318 319 318 318 319 319 319
301 300 301 301 301 301 300 301 302 302 305 312 311 310 311 312 312 313 312 314 317 321 321 322 320 320 319 321 321 319 319 318 318 318 318 318 317 316 319 318 317 318 318 319 320
299 300 300 301 301 301 301 301 304 306 306 312 311 312 312 313 312 312 314 316 317 320 319 321 320 321 318 317 318 318 320 317 315 315 314 315 314 313 314 315 315 316 316 317 318
299 300 301 300 300 301 301 301 303 303 306 311 312 313 312 312 312 312 315 316 316 318 315 317 318 319 319 318 319 318 317 314 313 313 312 312 312 311 311 312 313 314 314 316 317
300 300 300 301 302 301 302 302 302 303 306 311 312 312 312 312 312 312 315 316 316 317 316 315 315 315 315 316 318 314 314 314 314 312 310 310 311 311 311 311 312 313 313 314 314
300 300 301 302 303 302 303 303 304 304 307 312 313 313 312 313 313 313 315 315 315 316 316 315 314 314 314 315 314 315 312 313 313 312 312 310 312 309 310 310 311 312 313 314 314
300 301 301 303 302 303 303 304 304 303 311 311 313 312 312 313 312 312 314 314 314 315 314 314 314 314 313 314 313 313 312 312 312 311 310 310 309 309 308 310 310 309 312 314 315
299 300 303 304 303 303 303 303 303 306 309 313 312 313 312 312 313 312 313 313 313 314 313 313 312 312 312 312 312 311 311 311 311 310 307 309 310 308 309 311 311 310 313 314 313
302 303 303 304 304 304 302 303 303 308 308 312 314 313 313 314 312 312 313 312 312 313 313 313 313 312 311 312 311 313 309 304 312 313 309 309 311 309 309 309 309 309 312 313 313
303 304 303 303 304 302 303 302 303 312 312 312 313 313 314 313 312 313 313 311 312 311 308 309 309 312 310 311 311 311 310 305 311 311 311 310 311 310 309 311 311 313 313 314 312
305 303 303 304 302 303 305 303 308 310 312 313 312 313 314 313 313 313 313 312 310 310 310 309 312 312 311 311 311 312 307 308 307 308 302 308 307 308 309 308 307 309 311 311 311
303 303 303 303 303 303 304 308 306 308 311 312 313 312 314 313 312 312 312 310 311 309 310 313 314 313 313 312 311 309 309 310 304 304 309 308 309 311 310 309 308 307 309 312 315
302 302 303 303 302 303 304 308 306 310 310 312 311 311 311 312 312 312 311 311 310 309 310 311 312 311 312 311 310 310 312 311 308 308 310 312 311 307 309 310 309 307 311 313 315
303 301 303 304 303 304 309 310 304 308 311 312 309 309 309 311 311 311 310 310 310 310 311 311 310 310 308 308 309 309 309 308 304 305 307 308 312 310 310 309 309 311 311 311 311
303 303 303 304 307 308 309 308 307 313 313 313 312 310 309 311 310 311 310 309 311 311 312 310 307 302 309 308 308 310 310 309 308 309 307 312 311 308 309 310 310 311 313 313 312
304 299 304 305 307 306 309 309 310 312 313 311 310 309 312 313 311 312 310 309 309 311 311 309 309 304 306 310 310 306 311 309 310 313 311 311 311 310 311 313 314 314 313 313 313
307 304 306 304 308 309 311 310 314 314 313 313 313 312 313 313 312 312 311 309 309 310 309 308 304 307 308 309 307 307 309 310 311 311 314 312 313 314 314 315 315 315 312 312 312
305 307 306 307 309 309 310 313 314 313 313 312 312 312 311 312 311 312 311 310 310 308 309 308 306 305 304 309 309 309 310 310 310 311 312 313 315 315 315 315 314 312 312 311 311
304 305 306 307 307 309 310 311 312 311 311 311 312 313 313 312 311 311 310 310 309 308 308 310 306 303 303 309 310 314 312 312 315 316 317 319 316 315 316 315 313 310 310 311 311

GFSSW_850_thetae_042.txt.gz
Theta_e
305 306 307 306 306 306 308 309 312 315 319 317 315 314 305 308 309 310 315 313 312 320 320 321 322 321 318 320 320 320 317 320 322 320 320 321 319 322 322 321 323 324 328 327 335
306 307 307 306 306 306 305 307 309 312 317 318 317 314 306 308 308 309 311 315 312 321 320 322 323 319 320 320 320 319 318 319 319 320 320 319 321 322 320 321 321 325 328 335 338
306 305 305 305 305 305 306 305 306 309 314 317 318 316 307 307 313 311 312 313 314 321 320 320 322 321 320 319 320 318 320 319 321 322 321 321 321 323 321 320 320 324 335 337 338
305 304 305 305 304 305 304 305 305 306 311 315 317 316 307 310 314 320 319 314 318 320 319 321 321 321 318 318 319 319 319 321 321 322 321 320 322 322 322 322 322 321 324 331 338
304 304 304 304 303 304 304 303 304 305 308 313 315 316 308 310 314 320 318 316 322 323 321 320 321 321 319 318 319 318 317 319 320 320 319 319 320 320 321 322 323 322 321 322 322
303 303 303 303 302 302 302 303 304 304 305 311 314 314 310 312 309 317 317 320 322 322 321 320 321 321 319 318 317 318 319 319 319 319 319 319 318 319 320 321 322 322 321 321 321
302 301 301 301 303 301 302 303 303 302 303 310 313 313 310 309 313 315 316 318 320 321 321 320 322 320 319 319 319 319 318 318 318 318 318 319 319 317 319 319 319 320 320 320 319
301 301 301 300 301 301 301 300 300 301 301 306 313 313 311 312 312 315 315 317 318 319 321 320 322 321 320 319 319 318 317 320 317 318 318 318 320 317 318 318 319 319 318 318 318
301 300 300 301 301 301 301 300 300 299 302 303 309 312 311 310 310 312 312 316 319 320 320 321 322 321 320 318 318 318 318 318 318 317 317 316 319 316 318 317 317 318 318 319 319
301 299 300 301 301 301 302 300 300 302 302 302 308 309 310 311 311 313 312 314 319 321 320 322 321 321 321 319 321 319 318 317 318 316 316 316 317 315 317 317 317 318 318 318 318
301 301 301 300 300 300 301 302 302 304 303 310 311 311 312 312 311 313 313 314 318 320 319 320 321 322 322 320 316 317 320 320 315 314 312 312 311 311 311 312 312 314 315 317 318
300 300 300 300 301 302 302 301 301 303 303 305 309 312 312 312 312 313 313 316 317 319 317 321 321 318 318 319 319 319 318 316 313 313 313 311 311 311 311 311 312 313 314 314 316
300 300 300 301 302 302 302 302 302 302 304 306 308 311 312 311 311 312 313 316 316 317 314 318 316 316 318 318 320 316 314 313 314 311 310 309 311 310 309 310 311 312 312 312 313
300 300 301 301 302 303 302 303 302 303 305 307 310 312 312 312 312 312 315 316 316 317 314 314 313 315 316 316 313 315 312 312 312 312 311 309 312 308 308 308 307 309 311 313 314
300 299 300 302 304 303 302 303 303 303 302 310 311 312 312 313 312 313 315 314 315 316 314 314 314 313 313 314 312 313 311 311 311 310 308 309 309 308 307 309 309 310 312 313 314
301 302 303 304 302 303 303 303 302 305 305 313 312 313 313 312 312 313 313 313 314 314 312 312 312 312 312 311 311 310 309 308 309 306 305 307 309 307 307 309 311 309 311 312 313
304 302 304 303 304 303 302 303 300 306 305 311 313 313 312 313 313 314 314 312 312 315 315 313 312 311 311 311 311 309 307 305 304 303 307 308 309 307 307 308 308 308 310 312 313
304 304 303 303 303 303 302 301 303 308 311 311 312 312 314 312 313 314 313 312 311 309 311 311 310 311 310 311 311 311 307 305 308 310 309 308 311 309 307 308 308 309 310 311 311
303 303 303 302 302 302 304 301 306 308 310 313 312 315 314 312 313 313 312 311 310 309 309 307 309 311 310 310 309 311 307 307 306 304 302 307 305 305 306 307 307 308 311 312 312
302 302 303 303 302 303 303 308 306 304 311 312 312 312 314 313 313 313 312 310 310 309 309 310 310 312 312 311 311 308 308 306 298 303 307 307 307 308 308 309 307 306 310 311 312
302 303 303 302 302 303 306 308 306 307 310 311 311 310 312 311 311 311 311 310 309 309 310 311 308 311 313 310 310 311 311 309 306 305 309 309 310 305 308 309 307 306 309 310 311
301 300 303 305 302 305 307 306 302 307 310 311 308 310 310 311 311 311 310 309 309 309 311 310 308 303 311 308 308 308 309 306 301 302 303 306 310 308 307 308 308 310 311 313 314
302 303 304 305 308 305 308 307 306 312 312 312 309 309 309 309 310 310 309 309 309 310 310 309 305 302 308 307 307 309 308 307 306 308 301 309 309 307 305 310 311 314 314 315 314
304 297 304 306 306 306 306 309 312 311 311 310 308 309 311 310 309 311 309 309 310 311 310 309 306 305 307 304 304 304 309 308 309 311 306 307 309 309 309 311 313 314 315 314 312
306 302 306 304 309 309 309 311 313 313 311 311 311 312 312 312 312 311 309 308 309 310 309 306 304 305 305 308 305 306 308 308 305 309 307 310 310 310 311 312 314 315 313 312 311
304 304 305 307 308 307 308 310 312 311 311 311 311 311 310 312 311 311 309 308 309 308 308 306 302 303 304 307 308 307 308 307 308 309 310 310 310 310 312 315 315 310 309 309 310
304 305 305 306 307 307 308 309 311 310 311 311 311 311 312 311 310 309 309 309 308 307 308 308 304 303 304 307 308 310 310 310 309 309 311 315 315 314 315 316 309 307 305 303 302

GFSSW_850_thetae_045.txt.gz
Theta_e
306 307 307 306 306 305 306 306 306 308 313 317 318 316 314 308 308 309 312 310 311 319 319 319 322 321 321 319 320 319 318 319 319 318 319 319 319 321 322 320 321 322 325 328 331
306 306 306 306 306 307 306 305 305 306 308 314 317 318 316 311 309 311 308 310 312 320 321 321 321 322 320 319 320 317 316 318 318 318 320 319 321 321 321 320 320 324 328 332 336
304 304 305 305 306 306 304 305 303 305 305 311 314 316 317 311 310 308 307 309 313 320 320 322 322 320 319 319 319 318 318 317 320 320 321 320 320 321 321 320 319 321 335 337 337
304 304 304 304 304 304 303 303 304 304 304 307 312 315 317 309 313 319 316 310 314 321 321 322 321 320 318 318 319 319 318 320 319 319 320 319 320 321 321 321 321 322 325 335 338
303 303 302 301 303 303 304 303 302 304 305 305 310 314 313 310 310 320 320 315 318 320 321 322 321 320 319 317 318 317 317 319 320 320 319 319 318 319 320 321 321 322 322 322 325
303 302 302 302 302 302 302 301 303 303 304 304 308 313 313 310 312 315 317 318 320 319 321 320 321 321 319 317 317 318 318 318 318 318 318 318 317 319 318 320 320 321 321 322 321
302 301 302 301 301 301 301 301 303 303 304 301 306 311 312 312 310 310 316 318 320 323 321 320 320 321 319 318 318 318 318 317 317 318 317 318 317 315 319 320 320 319 319 319 320
302 301 302 301 300 302 301 301 302 300 300 301 303 309 313 312 312 315 318 319 318 320 319 320 321 321 319 319 317 317 316 319 317 316 317 318 319 316 318 319 319 319 319 318 318
301 301 301 300 301 301 301 301 301 300 300 301 304 308 312 312 312 315 315 318 318 320 321 320 321 321 320 318 317 316 317 318 318 316 316 316 317 316 317 317 317 317 317 316 317
301 301 301 301 301 300 301 301 301 301 301 302 304 310 311 311 312 315 314 315 318 319 320 321 321 319 318 317 320 318 317 316 317 315 314 316 315 315 317 316 315 316 317 318 318
301 301 300 300 300 301 302 302 301 303 303 303 308 309 312 312 311 311 312 313 318 319 321 320 322 323 321 317 316 315 317 318 316 314 312 311 311 311 311 311 311 312 315 318 318
301 300 300 300 302 302 302 301 302 301 302 302 305 310 312 312 312 311 313 314 318 320 318 321 322 319 320 320 320 319 318 317 313 312 312 310 310 310 310 311 312 313 314 315 316
300 300 300 301 302 301 302 302 301 302 303 304 306 310 312 311 312 313 313 315 317 318 318 319 318 318 319 319 320 318 316 314 314 311 309 308 309 309 309 309 310 311 312 312 313
302 302 299 300 302 303 303 302 301 302 296 306 306 310 311 311 312 313 313 316 316 316 315 315 312 317 317 318 316 315 312 312 311 312 313 309 312 309 308 307 307 309 311 311 312
304 304 302 301 302 304 303 302 302 302 290 306 310 311 312 312 312 312 315 315 315 315 313 314 313 315 317 316 313 313 310 310 310 308 308 309 309 309 305 308 308 308 310 310 311
304 303 302 303 301 303 303 302 302 298 305 310 310 311 312 312 313 313 313 314 314 313 312 311 311 311 311 310 311 310 308 306 306 306 306 307 308 308 307 308 305 307 310 311 311
303 303 303 303 303 303 302 302 297 297 306 310 311 313 311 314 314 314 314 312 315 316 315 312 311 310 310 311 310 308 308 305 304 303 307 307 308 308 306 307 307 306 308 311 310
303 302 302 302 303 303 302 299 301 307 308 312 313 312 315 313 314 314 312 312 311 311 312 312 314 311 310 310 311 310 308 306 308 307 308 307 310 308 306 305 307 309 310 310 311
302 301 302 301 302 302 304 304 305 306 306 313 313 314 314 312 314 313 312 312 311 309 310 307 309 310 310 309 309 310 305 306 305 302 302 306 305 303 305 305 306 308 310 310 311
302 302 302 302 302 303 303 307 306 303 306 310 313 312 313 312 315 312 312 310 310 309 308 308 311 311 311 310 310 309 306 307 298 300 306 305 305 305 307 307 307 306 308 309 312
301 302 303 304 302 303 305 307 306 307 311 311 310 310 310 310 312 311 311 309 309 309 309 308 308 313 312 310 310 309 308 306 305 304 307 308 308 304 307 308 307 306 311 313 314
302 297 305 305 300 303 308 307 304 308 310 310 308 309 309 309 310 311 310 309 309 308 310 309 306 313 312 307 307 308 308 305 301 302 306 308 308 306 305 306 307 309 312 314 315
302 303 306 306 307 307 305 307 307 311 311 311 308 308 308 308 309 308 308 308 308 308 309 308 304 302 306 307 306 309 307 305 304 301 298 304 307 305 305 307 309 311 313 315 314
305 299 305 307 306 307 308 310 310 310 309 308 307 308 308 310 308 309 309 309 309 309 310 308 304 304 304 304 304 304 308 306 305 302 305 305 306 308 307 308 310 312 315 312 312
305 303 305 302 307 308 309 311 311 311 310 309 309 310 311 311 311 310 308 308 309 311 308 306 304 304 305 307 304 306 308 307 303 307 304 308 308 308 309 310 311 315 311 310 309
304 305 305 305 306 306 306 309 310 311 310 311 310 310 309 311 310 310 308 308 310 307 308 305 303 303 303 306 306 307 306 307 307 308 308 309 309 309 309 311 316 311 308 306 303
304 304 305 304 304 306 307 310 310 310 311 311 310 310 311 310 308 309 308 308 307 307 307 306 304 302 304 305 307 309 308 307 307 307 309 310 310 310 314 315 314 308 305 301 300

GFSSW_850_thetae_048.txt.gz
Theta_e
307 307 305 306 307 307 307 308 306 305 306 309 313 317 316 316 313 311 312 308 309 316 319 318 322 322 322 319 319 319 317 318 318 318 318 318 318 320 320 320 320 320 321 327 329
306 306 306 305 305 306 306 307 306 305 304 306 309 314 316 317 315 312 307 307 309 314 321 318 320 322 321 318 319 316 316 318 316 316 317 318 320 320 321 320 320 321 329 328 332
305 304 305 305 305 304 304 305 305 304 304 305 306 312 315 316 314 315 313 307 308 315 321 321 320 322 320 318 318 316 316 316 318 319 320 319 320 320 320 319 319 320 326 334 336
304 304 304 305 304 304 303 304 304 304 304 303 305 308 311 316 314 316 313 310 307 318 322 322 321 320 317 316 318 318 318 317 318 319 319 319 319 319 320 320 320 321 321 328 335
303 303 303 304 303 302 302 302 303 302 303 305 304 306 312 312 313 319 320 320 309 319 323 322 320 319 317 317 317 317 317 318 319 319 319 319 318 317 319 320 320 320 321 321 322
303 303 302 302 302 301 301 301 302 302 303 304 304 306 309 312 314 315 314 321 312 320 322 322 321 320 319 317 316 317 318 318 318 318 317 317 317 317 318 319 319 319 320 320 321
302 302 301 302 301 300 302 302 302 302 302 303 303 305 308 312 313 312 310 318 316 320 322 322 320 320 318 316 318 317 318 316 316 317 317 317 316 315 318 319 319 318 319 319 319
302 302 301 301 301 301 302 301 301 301 302 302 302 306 309 312 313 314 316 317 319 318 320 321 319 321 318 317 316 316 316 318 316 316 317 318 316 315 317 317 318 318 318 318 318
302 301 301 302 301 301 300 301 301 301 300 301 303 304 310 312 313 315 316 318 318 318 318 318 319 320 319 316 316 316 316 317 318 315 316 315 316 315 317 315 315 317 317 317 317
302 302 301 301 301 300 301 302 302 301 301 301 302 305 309 310 312 314 314 317 318 319 319 319 319 319 315 318 318 319 317 316 317 314 314 315 313 312 314 314 315 316 317 317 317
302 301 301 300 301 302 302 301 301 302 302 302 304 307 311 311 312 314 313 315 318 319 322 320 322 322 319 317 315 314 316 316 315 314 312 312 310 310 311 311 311 313 314 316 318
302 301 301 300 301 302 302 302 301 301 302 301 302 305 308 312 312 312 312 315 318 319 319 319 322 320 318 318 317 316 317 317 314 311 311 310 309 309 310 310 312 312 314 315 316
303 303 302 300 300 301 302 302 302 301 302 305 304 307 310 312 312 312 312 315 317 319 319 319 319 319 319 320 321 319 319 316 315 311 308 307 310 308 308 308 309 310 310 311 311
303 304 304 302 300 303 301 302 301 301 291 305 306 309 310 312 311 312 312 316 316 318 316 315 316 319 319 320 319 319 313 312 311 312 313 308 313 309 308 305 305 306 308 309 310
303 303 304 302 302 302 302 301 301 302 288 305 308 310 310 312 311 312 313 315 316 316 316 314 317 319 319 319 316 314 310 310 308 308 308 308 309 308 305 306 306 305 309 310 309
302 303 303 303 302 302 302 301 302 295 301 308 310 309 312 311 313 313 314 314 313 313 312 311 311 312 312 310 311 308 307 306 304 305 306 307 307 306 307 307 306 305 309 310 311
302 302 303 302 303 302 302 302 295 298 306 310 310 311 313 314 314 314 314 313 316 315 312 312 311 310 310 310 309 309 312 315 304 304 307 306 308 306 306 306 306 305 308 311 312
301 302 302 302 302 302 302 299 299 306 308 309 311 313 315 314 314 314 313 312 310 311 311 311 316 311 310 310 310 308 309 307 307 308 308 306 309 307 305 304 307 308 309 312 312
301 301 302 302 301 302 303 299 301 305 305 309 312 314 314 314 314 313 312 311 310 309 312 308 309 310 310 309 309 309 305 306 304 302 302 306 304 302 304 306 306 307 308 311 313
301 301 303 303 303 303 298 305 304 303 307 310 313 310 312 314 313 313 312 310 310 309 307 308 310 311 310 309 308 308 306 306 298 304 306 304 304 304 307 307 305 305 307 310 313
303 301 304 305 303 303 305 306 306 306 308 309 309 310 309 312 311 311 310 309 309 308 308 307 308 312 311 310 309 308 306 305 304 304 306 307 305 302 304 307 305 305 308 311 313
303 298 306 306 303 303 308 308 306 308 310 308 308 309 309 309 310 310 310 309 308 308 310 307 308 313 311 307 306 308 307 304 301 302 306 306 306 305 305 306 305 307 310 312 315
304 304 306 307 308 308 306 308 308 310 311 308 309 308 308 308 309 308 308 308 308 308 308 306 304 303 310 309 306 308 306 304 302 300 298 303 306 304 303 305 307 309 311 314 312
305 300 305 307 307 308 310 311 311 310 308 307 307 307 308 309 307 308 308 309 308 309 309 307 304 304 305 305 304 305 307 304 303 301 303 303 305 306 306 306 307 309 314 313 310
304 303 304 307 308 307 308 310 310 310 309 308 309 309 310 310 310 309 308 308 308 311 307 306 303 303 305 306 303 305 307 305 302 305 303 305 305 306 307 307 308 310 313 309 307
303 304 304 304 304 306 306 309 310 310 309 310 309 309 309 310 309 309 307 308 309 307 307 304 305 302 302 306 306 306 306 306 305 306 306 307 308 308 308 309 313 314 310 307 302
302 302 304 305 302 305 306 309 310 309 311 310 310 309 309 309 308 308 307 307 306 306 307 307 303 302 303 305 306 308 307 306 305 306 308 308 308 308 309 312 314 312 308 303 301

GFSSW_850_thetae_051.txt.gz
Theta_e
307 307 306 305 306 306 306 306 307 307 306 306 304 308 312 316 317 316 314 311 307 315 317 315 322 322 321 319 317 320 321 320 320 318 318 316 317 318 318 320 320 319 320 324 328
306 305 305 305 304 305 305 305 305 306 306 305 304 303 309 312 314 317 315 312 307 312 321 319 323 323 321 318 318 318 320 320 317 317 317 317 318 319 320 319 319 320 325 326 326
305 305 305 305 305 305 306 304 304 304 305 305 303 304 306 310 314 316 317 315 310 310 318 321 321 323 320 318 317 316 318 317 318 317 319 318 319 320 319 320 319 319 326 332 333
304 304 304 304 303 304 303 304 304 303 304 304 303 305 306 309 315 315 316 312 314 307 318 321 319 321 318 318 317 318 317 316 317 319 320 319 319 318 319 319 320 320 320 324 334
304 303 303 303 302 302 301 302 302 302 303 302 303 304 305 311 313 315 318 318 315 313 320 320 321 320 320 317 316 317 317 318 318 319 318 318 318 319 318 318 319 320 320 320 321
303 303 303 302 301 302 302 302 302 302 302 302 303 304 304 309 312 314 313 314 317 317 320 320 320 320 319 317 317 317 317 317 318 318 317 317 317 317 318 318 318 318 318 319 320
302 302 302 302 301 301 301 302 301 301 301 302 302 303 305 308 312 313 314 314 319 316 320 321 320 318 318 316 317 316 317 317 316 316 317 317 317 316 317 318 318 317 317 318 319
302 302 302 302 302 302 302 301 301 302 301 302 302 303 305 306 311 312 315 312 319 316 321 321 320 318 317 316 316 317 316 319 316 316 316 317 317 315 316 316 317 317 317 317 316
302 303 301 302 302 302 300 300 302 302 301 302 301 302 306 309 311 313 314 317 318 318 319 319 320 320 317 316 317 316 317 317 317 315 315 316 316 315 316 315 315 316 317 317 316
303 302 302 301 300 301 301 302 302 301 302 302 301 304 306 310 311 313 312 316 317 317 317 318 318 319 316 317 319 319 317 316 316 314 314 315 315 314 315 312 313 314 315 316 317
304 303 303 302 300 301 303 301 301 302 302 301 302 303 308 311 312 312 312 317 317 317 318 318 319 319 319 316 314 315 316 317 315 313 312 314 312 311 311 311 311 313 315 316 316
303 303 303 303 300 301 301 302 301 301 301 301 301 303 304 308 312 311 312 316 318 320 313 320 319 318 317 315 315 315 316 317 314 311 311 310 311 311 311 311 311 311 311 311 312
303 303 303 304 301 300 302 301 302 301 301 302 304 304 304 310 312 311 312 315 317 317 312 315 318 318 318 319 318 317 316 315 316 311 308 309 313 310 309 307 307 306 307 308 309
302 303 304 304 302 302 302 301 301 300 291 305 306 307 310 311 312 312 312 315 316 318 313 314 317 319 320 320 319 321 316 313 312 313 316 308 316 311 307 306 305 307 309 310 310
302 303 302 302 302 301 301 301 300 302 293 302 307 308 310 312 311 311 312 315 316 316 316 314 319 318 318 319 317 317 311 310 309 309 310 309 312 310 305 307 306 306 309 310 311
301 302 302 302 301 302 301 301 301 293 299 306 308 308 312 311 312 312 313 313 313 314 313 311 311 314 314 312 314 308 308 306 305 308 313 308 309 308 307 307 306 306 309 311 313
301 302 302 301 301 301 302 302 295 303 302 311 310 306 312 313 313 314 314 313 315 315 314 312 312 310 311 312 310 309 313 315 309 310 315 306 308 309 306 305 306 307 308 311 313
301 301 301 302 302 302 302 296 300 306 308 308 307 312 313 312 313 314 313 312 310 311 312 314 315 311 309 310 311 309 312 314 310 310 308 306 310 308 305 304 306 307 308 310 313
301 301 302 303 302 302 302 299 299 303 306 309 312 314 315 313 313 312 312 311 310 308 312 310 312 309 308 308 309 309 309 305 305 302 307 307 305 303 304 304 305 307 310 312 313
303 301 304 305 303 302 297 306 306 304 306 310 312 310 313 313 314 312 312 310 309 308 307 308 311 310 308 309 307 309 305 309 304 309 309 305 304 305 306 306 306 306 308 311 312
304 302 305 306 304 305 306 308 306 307 307 309 309 309 311 311 311 311 310 309 309 308 307 307 309 312 311 310 309 308 308 305 305 304 307 306 305 303 304 306 306 306 309 310 314
303 299 306 307 303 303 308 307 307 308 309 308 307 308 308 309 309 310 309 309 308 308 309 306 309 313 311 306 306 307 307 304 306 306 304 306 306 304 304 305 305 306 309 311 314
304 304 306 308 306 307 307 308 308 309 309 307 308 308 307 307 309 308 308 307 308 308 308 306 306 308 311 308 306 309 306 303 302 301 305 307 306 304 303 304 306 307 309 312 313
304 300 306 307 307 308 309 309 310 309 308 306 307 306 307 308 306 308 308 308 308 309 308 306 304 306 307 306 305 306 306 304 304 305 304 304 305 306 306 306 307 308 309 313 309
303 302 303 302 306 306 307 308 310 309 308 308 309 308 309 309 309 308 308 308 308 310 306 306 305 303 305 306 303 306 307 305 303 304 306 305 305 306 306 306 308 309 313 311 306
302 302 304 304 304 305 307 308 310 310 308 309 309 309 309 309 308 308 307 307 308 307 306 304 307 302 303 306 306 307 307 306 305 306 306 306 308 308 308 308 310 313 311 307 304
301 301 302 304 301 304 306 308 309 309 310 309 308 308 307 307 308 307 307 307 306 306 306 307 304 303 303 305 306 308 307 307 306 305 307 308 308 306 307 308 310 311 309 305 302

GFSSW_850_thetae_054.txt.gz
Theta_e
306 306 306 306 305 306 305 306 306 305 307 307 307 306 304 307 314 316 318 316 313 317 317 312 323 323 320 319 318 321 323 324 324 324 322 320 321 319 319 320 320 321 324 327 325
305 305 305 305 305 304 305 305 305 306 306 306 306 305 304 303 308 313 316 317 315 318 321 317 322 324 321 319 317 318 321 321 321 321 321 319 319 321 321 321 321 322 323 324 326
305 305 305 304 304 304 303 303 304 305 305 305 306 305 305 304 308 312 316 317 315 310 318 319 321 323 321 320 318 318 320 319 319 319 319 320 320 321 321 322 321 321 324 333 330
304 304 304 302 302 302 302 301 304 303 303 303 305 305 306 305 311 314 315 316 317 315 317 319 321 322 322 321 319 319 317 318 320 320 320 321 321 321 321 320 320 322 321 322 337
304 304 303 302 302 302 303 303 303 303 303 303 302 304 305 306 307 314 316 316 318 318 317 319 320 321 322 321 319 319 319 318 318 320 320 320 320 320 320 320 320 320 319 321 322
304 304 302 302 302 302 302 302 302 302 302 302 302 303 304 306 308 312 315 313 316 318 317 319 319 320 319 320 320 318 318 318 318 319 319 319 319 319 319 319 318 319 318 319 320
304 303 303 302 302 302 302 302 301 301 301 302 302 303 304 305 309 311 312 314 317 317 316 319 319 319 319 319 319 318 319 318 319 318 318 318 319 319 317 317 317 317 318 318 319
304 304 303 303 301 302 302 301 300 301 303 301 303 303 303 304 307 311 312 313 315 316 317 320 320 318 318 318 318 318 318 320 317 318 318 318 316 317 317 318 318 317 317 317 317
304 305 305 304 301 301 302 300 301 302 302 303 303 303 303 306 306 309 312 314 315 317 318 318 319 318 317 319 319 318 317 317 318 318 317 318 316 316 316 316 317 317 317 317 317
303 304 303 304 301 300 301 302 302 301 302 303 302 303 303 308 307 312 313 314 318 317 318 319 319 320 319 319 318 319 317 317 317 317 318 319 317 318 317 316 316 316 316 316 316
303 304 303 303 303 300 302 301 302 303 303 302 303 304 306 309 310 313 313 314 318 317 318 317 319 322 320 317 316 317 317 316 316 315 317 317 318 318 316 316 316 316 316 316 316
302 303 304 304 303 301 301 302 301 301 302 301 302 303 303 305 311 313 312 318 316 318 317 317 320 318 318 318 317 317 316 317 317 314 316 316 317 317 316 316 314 313 314 314 313
302 302 304 304 301 300 302 302 301 301 302 303 304 304 304 307 312 310 312 315 317 316 317 318 319 318 318 318 318 318 317 318 318 314 312 314 317 314 311 310 310 308 308 309 310
302 303 302 303 302 301 301 301 301 300 304 303 305 304 306 310 312 312 312 313 316 312 313 312 317 318 318 318 317 319 318 317 316 318 319 313 318 314 310 312 312 312 311 312 312
301 302 301 302 302 302 301 300 300 301 306 304 306 306 310 312 311 311 312 315 314 313 313 314 316 320 319 319 318 320 316 315 314 316 316 315 317 313 311 312 312 313 312 313 314
301 302 301 301 301 301 301 300 301 306 308 308 307 308 311 311 313 312 314 313 313 314 314 314 314 315 314 313 316 311 313 311 312 315 320 315 314 312 312 312 313 313 313 313 314
301 301 302 302 302 302 302 302 308 309 305 309 310 309 312 314 313 314 314 315 316 318 317 313 312 312 312 311 311 314 317 320 319 321 321 309 312 313 310 311 312 312 313 313 314
301 301 302 303 302 302 302 305 311 308 309 308 309 312 314 313 314 313 310 315 313 314 317 318 317 312 311 314 315 316 317 320 318 316 313 309 312 312 309 309 309 309 310 311 313
303 302 303 304 304 302 304 311 308 306 306 309 312 313 314 313 314 313 313 315 312 312 316 317 315 311 310 310 314 313 317 309 312 308 313 311 310 309 307 309 309 311 313 313 313
304 302 305 306 304 303 308 310 308 305 307 310 312 312 314 312 314 314 314 312 311 310 309 312 316 311 309 310 310 313 310 315 314 316 315 310 309 311 310 310 310 312 313 313 314
304 304 307 307 305 309 310 311 308 308 308 311 311 312 313 313 313 313 312 311 311 310 310 311 314 313 312 313 314 311 313 310 311 310 311 308 309 308 311 311 310 311 312 312 315
304 311 307 307 309 308 311 308 307 310 310 310 310 311 312 312 313 312 312 312 309 310 312 310 313 315 313 308 308 310 312 310 315 313 310 311 310 309 309 309 309 311 312 313 314
304 304 307 308 312 310 309 310 310 311 310 309 310 310 309 311 313 311 310 309 309 310 311 310 312 313 312 310 309 311 310 308 308 309 312 312 312 308 309 309 310 311 312 314 313
304 310 307 308 308 311 311 312 312 310 309 308 309 309 310 310 310 311 311 310 309 311 308 308 309 312 313 313 311 312 310 308 312 315 311 311 311 310 310 311 312 312 313 313 310
303 304 303 309 310 309 310 311 311 311 310 309 310 310 310 311 311 311 311 310 310 309 308 310 313 309 308 309 309 310 311 309 309 311 315 310 309 310 310 311 311 311 314 312 307
302 303 303 304 305 308 309 311 312 311 311 311 311 311 310 311 310 311 311 311 311 310 310 308 311 309 310 308 308 310 310 310 309 310 309 311 312 311 311 310 311 313 312 310 305
300 301 302 305 306 308 310 310 311 311 311 310 310 311 311 310 309 308 308 309 310 310 310 310 310 311 312 308 309 312 310 310 310 309 310 312 312 311 311 311 312 313 310 307 303

GFSSW_850_thetae_057.txt.gz
Theta_e
306 307 306 306 306 304 304 304 305 306 307 306 306 308 307 306 304 311 315 318 318 318 315 315 321 325 323 321 319 322 326 327 326 326 326 325 325 323 322 321 321 321 324 333 336
306 306 305 305 306 303 305 303 303 304 305 305 305 307 307 307 306 307 311 318 318 317 321 317 320 324 322 321 319 321 326 325 324 324 324 324 322 322 321 321 321 322 325 334 336
306 305 305 304 305 304 304 304 304 304 305 305 305 305 306 306 307 307 310 316 318 315 320 317 319 324 322 320 320 319 320 321 321 320 320 322 321 320 322 322 321 322 323 331 337
305 305 305 304 304 304 302 302 304 304 304 304 305 304 306 307 309 311 309 315 316 317 317 319 317 322 322 322 320 320 318 319 320 319 320 320 320 321 322 322 322 322 324 324 335
305 305 304 304 303 303 302 302 302 302 302 303 303 304 305 307 307 309 315 315 318 319 315 317 317 320 322 321 319 319 320 319 320 320 320 319 320 321 321 322 322 322 322 322 323
305 305 305 304 303 302 302 302 301 302 302 302 302 303 305 307 307 306 313 316 319 319 315 317 317 319 321 321 320 319 320 319 319 320 320 321 320 321 321 321 321 320 320 320 321
305 305 304 305 304 303 302 302 302 303 302 302 303 304 305 306 306 311 309 314 315 318 316 316 317 318 319 320 320 319 320 319 319 319 319 319 320 321 320 320 320 319 319 318 319
305 305 304 304 305 303 301 302 301 301 302 303 302 305 305 305 305 306 310 310 315 319 317 316 318 318 319 318 319 320 320 320 319 319 318 318 319 319 319 318 318 318 318 317 318
304 304 304 304 304 302 301 300 301 302 302 302 304 305 304 305 304 306 310 314 316 318 316 317 319 318 319 319 320 319 319 318 318 318 319 319 317 317 317 318 318 318 318 318 318
303 303 304 304 304 302 300 302 303 302 303 305 305 304 304 304 307 308 311 314 316 317 316 317 318 319 319 319 320 318 318 317 317 319 318 318 318 317 317 317 317 317 317 317 317
303 303 304 304 304 302 303 304 304 305 305 304 304 304 305 305 308 309 313 313 317 315 317 319 320 321 319 317 316 316 316 316 316 318 318 317 318 317 317 317 317 317 317 317 316
303 303 304 303 302 301 303 304 303 303 303 302 303 303 303 302 306 311 313 313 317 317 316 320 316 319 317 317 317 317 316 317 317 316 317 317 318 317 317 317 316 317 317 317 317
304 302 303 302 300 303 303 302 301 302 304 303 304 304 303 305 307 313 314 314 316 316 317 318 318 316 319 318 317 316 317 316 317 317 316 317 317 317 314 313 313 312 312 313 313
303 301 301 302 304 304 303 301 301 303 307 305 306 306 305 307 309 312 313 314 314 317 317 315 317 317 319 319 317 317 316 316 318 317 315 316 315 318 313 313 314 313 312 313 315
301 302 301 301 304 303 303 301 302 303 311 305 305 305 307 311 310 311 311 314 314 312 315 316 317 319 318 318 317 317 318 318 318 319 318 318 318 316 313 314 314 314 314 315 316
301 302 302 305 304 302 302 302 303 309 312 309 308 309 312 312 312 313 312 312 312 312 313 314 311 315 318 314 317 318 316 316 316 318 322 320 317 315 313 314 314 314 315 315 316
304 301 302 302 305 302 303 305 310 312 308 312 311 313 313 314 315 313 313 314 316 316 314 310 310 313 312 314 313 317 319 322 323 323 322 314 316 316 314 314 314 314 315 315 316
304 302 303 304 304 303 304 308 314 310 310 309 311 313 314 314 314 314 316 316 316 317 317 320 318 310 310 314 316 318 320 323 322 322 320 311 315 315 313 313 312 313 314 314 316
304 303 304 306 304 304 306 315 310 308 309 311 313 315 314 314 314 314 316 316 315 315 318 318 317 310 311 312 315 316 319 313 314 312 315 313 312 311 311 312 311 314 315 316 316
304 303 306 307 305 306 311 309 309 306 309 311 314 314 314 313 315 316 316 314 313 312 312 314 317 312 311 313 312 316 313 318 319 318 316 313 312 313 310 311 312 314 315 315 315
305 307 307 307 308 311 312 311 310 310 310 313 313 314 314 314 314 315 314 313 312 311 312 314 315 314 313 315 315 314 315 314 314 313 315 312 311 310 311 312 312 313 314 314 316
306 313 307 308 312 313 313 311 308 312 311 312 312 313 314 314 314 314 314 314 312 312 313 313 315 316 315 311 311 313 315 315 318 316 313 313 313 310 312 312 311 312 314 315 316
305 308 308 310 313 313 311 312 312 312 311 311 312 312 312 313 314 313 313 311 311 312 313 312 314 315 314 312 311 313 313 312 311 314 316 314 313 311 311 311 312 313 314 316 315
306 310 310 312 311 313 313 313 313 311 311 310 310 311 312 312 312 313 313 312 311 311 308 311 312 314 316 316 314 313 313 312 314 316 314 312 312 311 311 312 314 313 314 315 313
305 305 304 311 313 312 312 312 312 312 311 311 311 311 312 313 312 312 312 312 312 309 310 312 315 311 311 311 312 313 312 311 312 313 318 312 312 312 311 313 313 312 315 315 312
303 303 303 305 308 311 310 312 312 312 312 312 312 311 311 312 312 312 312 312 312 311 311 311 313 311 312 310 310 311 311 312 311 311 312 312 312 312 312 312 313 314 315 314 310
299 301 302 306 309 311 311 312 312 312 312 312 311 312 312 312 311 310 310 311 311 312 312 312 312 313 315 310 310 313 311 311 312 311 312 313 312 312 313 314 314 315 315 312 309

GFSSW_850_thetae_060.txt.gz
Theta_e
307 307 307 307 306 306 306 306 306 306 306 306 307 306 307 309 307 305 311 316 317 318 312 315 323 325 326 325 321 321 326 329 328 327 326 326 325 324 323 322 322 322 330 335 343
307 307 307 306 305 306 306 305 305 305 304 305 304 304 306 308 308 308 308 313 316 319 318 317 317 323 325 323 322 320 324 326 325 324 324 324 325 324 322 321 321 321 324 332 335
306 307 306 306 305 305 305 305 304 304 304 304 304 304 305 307 308 308 308 310 316 319 318 319 317 323 324 321 321 320 322 323 324 323 321 322 323 323 322 321 321 321 323 332 336
306 306 306 306 305 304 304 303 302 303 303 303 304 304 304 306 309 312 312 309 315 319 318 319 315 321 323 322 320 320 319 320 322 320 319 320 321 321 321 322 322 323 324 330 335
306 306 306 305 305 305 304 302 302 302 303 303 303 303 304 307 307 307 310 311 313 318 318 318 316 320 322 321 320 320 319 319 319 320 320 319 319 318 321 321 322 323 323 322 324
306 306 305 305 304 305 305 302 302 302 303 303 303 303 304 306 306 307 308 313 316 317 317 318 316 319 320 321 320 319 320 319 319 321 320 319 319 318 321 321 322 321 321 321 322
306 305 305 304 304 304 305 302 303 303 303 302 302 303 305 305 306 308 307 309 316 317 318 316 316 316 319 320 321 319 319 319 319 320 320 320 320 319 321 321 321 321 320 320 319
307 304 304 305 305 304 304 301 302 301 301 302 303 305 305 304 304 306 307 309 314 317 318 315 316 316 319 319 320 320 319 321 319 319 319 319 319 319 320 320 320 320 319 319 318
305 304 304 305 304 304 301 299 300 300 301 302 304 304 305 305 305 305 306 307 311 315 317 315 316 318 318 320 320 320 319 319 319 318 318 318 318 317 319 319 319 318 318 318 318
304 304 304 304 304 303 300 302 302 302 305 305 305 305 305 304 306 306 305 306 312 316 317 317 317 318 318 320 322 320 321 317 319 318 318 318 318 317 317 317 317 318 318 318 318
304 303 304 301 300 300 304 305 305 306 305 305 305 304 305 304 304 308 308 306 308 317 317 316 318 318 318 318 317 316 317 318 316 318 318 318 318 317 317 317 317 317 317 317 317
302 304 301 302 301 304 305 304 303 303 303 304 303 303 303 303 306 308 307 307 309 317 316 317 318 317 317 317 317 316 315 316 316 318 317 316 316 316 316 316 317 317 317 316 316
301 302 301 302 304 304 303 303 301 303 303 304 305 305 304 304 306 308 312 311 311 315 316 317 316 317 318 317 317 315 315 315 316 316 316 316 315 316 316 315 315 314 314 314 314
303 301 302 303 305 304 303 301 302 303 307 306 306 306 306 304 305 311 312 314 316 315 316 318 316 317 319 319 317 317 315 316 318 316 316 315 311 315 314 312 312 313 311 312 313
304 302 302 304 304 304 302 302 302 304 310 306 306 305 306 304 309 311 312 312 315 314 316 315 316 318 316 319 317 317 316 317 317 317 318 315 314 316 311 312 312 312 314 315 316
304 304 301 305 305 305 303 304 304 308 313 309 305 306 309 310 312 311 313 313 313 312 313 313 312 315 315 316 317 317 316 316 317 317 320 318 315 312 311 312 312 313 314 315 317
304 304 303 304 305 304 304 304 308 312 309 311 310 311 312 313 311 310 312 315 316 316 315 313 311 311 312 317 317 317 316 318 321 320 320 315 316 314 311 311 312 313 315 316 316
304 305 306 306 305 306 305 307 311 311 310 310 312 314 314 314 312 314 317 317 316 314 314 316 315 311 310 315 316 318 317 317 318 320 315 312 314 313 311 313 314 315 315 315 316
304 305 307 307 305 306 306 310 309 308 309 311 314 314 314 314 314 316 316 316 317 315 317 317 315 310 311 313 315 318 319 313 314 312 313 311 311 310 311 310 312 313 314 315 316
304 306 307 307 309 308 311 308 310 307 309 312 314 314 314 315 316 316 315 314 314 312 314 314 316 311 313 312 312 315 316 316 313 311 316 312 312 311 309 310 310 312 315 315 315
308 309 310 308 310 310 311 311 311 311 310 312 313 313 313 314 315 315 315 313 312 311 312 314 316 315 313 314 315 314 317 314 313 312 314 310 309 310 309 309 309 312 314 315 316
307 311 309 310 312 314 313 311 309 312 312 312 312 313 314 313 314 314 315 314 312 312 314 313 314 316 315 311 312 313 315 315 319 316 310 310 310 308 308 309 312 313 314 314 316
304 308 310 312 314 314 312 313 312 312 311 312 312 312 312 313 314 313 313 312 311 312 312 312 313 313 313 312 311 313 313 313 311 312 315 313 309 310 309 310 311 313 314 315 316
306 307 307 312 312 313 313 314 314 312 311 310 311 311 312 313 312 313 313 312 311 310 310 311 312 313 313 315 313 312 312 312 310 309 312 311 310 310 309 310 312 313 314 316 314
304 305 304 308 312 311 312 312 313 313 312 311 311 311 313 313 312 313 312 312 312 309 311 312 311 307 311 312 309 312 312 311 305 310 308 311 310 309 308 311 312 312 314 315 313
302 302 302 304 307 310 310 312 312 313 312 312 312 311 311 312 312 312 312 312 312 310 311 311 310 309 310 310 310 310 310 311 310 310 310 310 311 310 312 312 313 314 315 314 312
297 299 301 304 307 310 311 311 312 312 312 312 312 312 312 312 311 311 311 311 311 311 311 311 309 309 310 310 310 310 310 310 311 310 310 310 310 311 312 314 314 315 315 313 310

GFSSW_850_thetae_063.txt.gz
Theta_e
306 307 307 307 307 307 306 306 307 305 305 306 305 306 306 307 310 308 306 312 316 317 317 316 312 323 327 326 322 324 327 329 327 328 326 325 323 322 322 322 323 332 336 340 341
307 307 307 307 307 306 306 306 305 305 303 303 305 305 306 305 307 309 307 306 315 317 315 316 313 324 324 325 322 320 323 325 324 325 324 321 324 322 321 321 324 333 334 334 335
307 307 307 307 307 306 305 304 304 304 304 303 304 303 305 305 307 307 308 307 311 316 318 315 315 322 323 323 322 321 320 321 323 324 321 321 322 322 320 320 321 330 327 327 328
307 307 307 306 306 305 305 305 304 303 303 303 302 302 303 305 307 309 310 313 308 315 316 318 315 320 322 321 322 319 320 320 322 321 323 319 322 321 320 321 322 321 327 330 332
306 307 306 305 305 305 305 306 304 303 302 302 302 303 303 304 305 309 308 313 311 313 317 319 317 320 321 321 320 320 318 319 319 319 321 319 318 318 318 322 322 326 330 332 333
306 308 305 305 306 305 304 305 304 303 302 303 303 303 303 306 303 305 307 310 312 315 317 318 317 319 320 320 319 319 319 319 319 320 319 318 318 319 319 321 321 322 321 322 322
305 307 305 304 305 305 305 305 302 303 303 303 301 303 304 303 305 308 307 308 312 314 317 317 316 317 319 319 320 319 319 318 319 319 319 319 319 318 320 319 320 321 320 320 320
305 306 304 304 304 304 303 299 301 301 300 301 304 303 304 303 304 306 305 307 308 314 317 317 317 316 317 319 319 319 317 320 318 318 319 318 319 317 319 319 320 320 320 320 319
305 305 303 301 302 301 299 299 298 299 300 301 304 303 304 305 305 304 305 306 309 314 316 316 317 316 316 318 319 319 318 318 318 318 318 317 317 316 318 318 319 320 319 319 318
304 303 302 299 300 301 303 303 302 302 305 305 304 304 304 305 305 306 304 306 307 313 315 317 316 315 316 318 321 320 317 317 318 316 317 318 317 316 316 318 318 319 318 318 318
301 302 301 302 300 302 303 304 304 305 305 304 304 304 304 304 303 304 305 306 307 312 318 316 317 317 316 317 315 317 318 316 316 316 317 318 317 317 316 316 316 317 317 317 317
303 301 302 302 303 303 302 302 303 302 302 303 304 303 303 303 304 307 308 306 307 309 315 317 317 315 315 316 317 315 316 317 315 316 317 317 317 316 315 314 316 316 317 317 316
300 302 302 303 303 302 302 301 301 303 303 304 305 305 304 303 306 308 307 308 307 309 316 317 316 315 317 316 317 316 313 313 316 315 314 314 314 314 313 315 316 315 315 315 314
296 304 301 304 304 304 303 301 302 303 306 308 306 305 306 304 306 307 305 309 306 313 313 316 315 316 317 317 316 317 313 314 315 314 316 314 314 310 313 312 311 313 313 314 313
296 304 301 305 304 304 303 303 303 304 308 307 306 305 306 306 308 306 310 310 307 315 313 316 315 317 319 318 317 315 314 315 315 314 314 315 312 311 311 311 310 311 311 311 315
299 304 303 304 305 305 304 303 305 304 310 308 305 307 307 308 310 312 312 311 313 314 312 314 313 315 315 315 316 316 315 313 313 315 315 316 313 311 310 313 310 310 314 315 316
298 304 306 304 305 305 304 305 302 307 308 312 310 311 311 312 311 312 313 314 315 312 313 313 312 311 314 316 315 318 313 313 315 312 315 311 315 313 310 309 309 311 314 316 317
298 304 307 307 306 305 305 303 304 309 308 310 312 312 313 312 312 314 315 316 312 311 312 312 318 313 311 313 318 318 313 312 314 314 314 310 316 313 308 310 313 314 315 316 317
300 305 307 306 306 307 306 303 308 305 309 310 312 314 314 315 314 315 315 316 314 315 312 312 312 310 311 313 314 317 315 313 310 309 307 309 310 311 310 310 312 313 315 315 316
304 307 307 306 307 308 303 307 307 306 309 311 315 314 314 314 316 315 314 313 315 314 313 312 313 312 312 313 313 315 314 314 306 310 314 309 310 310 311 310 310 311 313 314 316
308 309 310 308 308 308 306 305 310 309 309 312 313 312 313 314 314 314 313 312 311 310 312 314 312 314 313 314 316 314 315 314 311 308 311 309 308 308 311 310 309 311 314 315 315
306 305 309 310 308 309 307 309 310 311 311 311 312 313 313 312 312 313 313 312 311 311 314 312 313 314 316 313 313 314 315 313 311 313 305 305 309 306 307 308 309 312 314 314 316
304 307 310 310 312 309 310 312 311 311 310 311 311 311 311 312 313 312 312 311 311 310 311 311 311 310 311 310 310 313 313 315 310 309 308 307 308 305 306 309 312 313 313 314 315
305 302 305 309 310 311 311 312 313 311 311 310 310 310 311 311 311 312 311 311 311 309 310 311 310 310 309 310 310 310 313 310 310 310 312 309 309 308 307 308 309 312 313 315 315
301 302 303 305 308 304 308 312 311 312 311 310 310 310 311 311 311 311 311 311 311 309 310 310 307 306 310 311 308 311 311 310 306 309 307 310 309 308 307 307 309 313 314 315 314
300 300 300 302 305 305 309 311 311 312 311 312 311 311 310 312 310 311 310 310 311 309 310 308 306 305 306 310 309 309 309 310 309 309 309 309 309 307 308 311 312 312 315 314 313
295 297 299 301 305 307 308 308 311 311 312 311 311 310 311 311 310 309 309 309 308 308 308 309 306 305 307 309 309 308 309 309 310 308 309 309 308 308 309 311 312 313 315 314 312

GFSSW_850_thetae_066.txt.gz
Theta_e
307 308 308 308 308 308 307 306 306 306 305 305 305 306 306 307 308 311 310 308 316 317 317 316 314 321 324 322 324 324 326 327 326 326 326 324 323 322 321 322 324 331 339 340 342
308 308 308 308 307 306 306 307 305 304 305 303 304 304 305 306 306 307 309 308 313 318 318 317 315 316 324 324 323 323 327 326 324 323 323 325 325 324 320 327 335 337 340 343 342
307 307 308 307 306 306 305 306 306 305 304 304 302 302 303 304 305 305 307 309 307 313 318 315 316 316 323 324 322 321 323 322 323 323 322 324 324 325 318 319 331 336 340 340 340
307 309 308 306 306 307 305 304 306 304 303 302 302 301 303 304 305 311 308 311 313 309 317 317 315 319 321 322 322 321 320 322 322 322 323 322 322 323 318 321 321 323 325 329 330
306 307 306 307 306 307 305 304 305 304 302 302 302 302 303 304 304 307 308 308 312 311 316 318 316 318 320 321 322 321 320 320 321 321 320 321 321 321 319 322 322 327 332 330 330
307 306 305 304 304 304 304 305 305 302 302 303 304 303 303 305 303 304 306 308 312 312 315 316 317 318 319 321 321 321 320 320 319 318 320 322 321 318 319 321 328 332 332 332 331
307 305 304 302 302 303 304 304 302 302 302 303 301 302 303 302 304 306 305 308 312 312 314 315 317 317 317 319 321 319 320 319 319 319 318 319 318 317 318 320 320 321 321 321 321
306 305 304 299 300 299 299 299 301 300 301 302 303 303 302 304 304 304 306 307 310 312 314 315 317 315 317 318 319 319 318 321 318 318 319 317 318 316 318 318 319 319 319 320 319
303 304 304 299 299 302 303 301 299 299 300 301 303 303 302 304 305 305 306 306 308 310 314 317 317 315 316 318 319 319 319 318 319 317 318 316 318 317 318 317 319 319 319 319 318
304 301 302 302 301 302 304 304 301 303 304 304 304 304 303 304 304 303 304 306 307 311 315 316 317 314 315 318 321 320 318 317 319 317 317 317 316 316 317 316 318 319 319 319 319
301 303 302 302 303 303 301 303 304 305 304 304 304 303 304 303 302 305 305 306 306 308 314 317 317 316 316 316 317 318 316 318 317 316 317 318 317 317 316 315 315 317 318 318 317
299 303 301 303 302 302 301 302 302 302 302 302 303 304 303 303 303 306 306 305 305 311 313 318 316 314 314 316 317 318 317 316 315 316 317 316 317 316 316 314 315 317 317 317 316
294 300 302 303 303 303 302 301 301 303 303 304 305 305 304 303 305 307 307 307 306 309 309 316 314 314 315 317 318 316 317 315 315 314 314 315 315 315 314 314 316 316 316 316 316
295 301 303 304 304 304 303 301 302 303 305 306 306 304 305 304 306 307 307 308 308 310 308 316 314 315 315 317 315 317 313 313 315 315 317 313 315 310 313 312 311 314 314 315 314
295 301 304 304 304 304 303 303 304 303 310 307 307 305 305 305 307 306 305 308 310 311 311 315 315 316 317 316 314 315 312 313 313 313 313 314 313 311 309 311 310 310 312 313 313
296 302 305 305 305 305 304 303 304 301 310 308 306 308 308 307 306 306 310 309 310 313 314 314 313 314 315 315 316 315 313 312 313 314 314 313 312 310 310 311 312 309 310 311 314
297 304 307 305 305 304 304 304 300 308 306 312 312 311 311 308 311 311 309 309 314 314 314 314 313 312 313 315 315 316 312 315 319 319 314 312 313 313 309 308 309 309 312 314 315
299 305 307 306 306 305 305 301 303 307 307 310 312 312 313 313 313 313 313 314 311 311 313 315 318 314 311 314 318 317 312 310 315 315 314 310 315 314 309 309 311 313 315 316 317
303 306 307 306 307 306 305 300 302 300 306 310 311 313 314 314 314 315 314 314 313 311 311 311 313 311 312 313 314 317 314 311 307 306 306 309 309 309 309 309 310 312 314 316 317
307 309 307 307 307 308 301 306 303 305 307 309 313 312 314 315 315 314 314 314 314 313 310 310 312 311 312 313 313 315 313 313 304 309 312 309 308 310 311 311 311 311 313 315 317
308 310 309 309 309 308 301 301 307 309 308 311 312 312 312 313 314 313 312 311 311 313 312 309 309 312 313 314 316 316 316 312 310 307 311 310 308 304 310 311 312 312 314 314 316
307 303 309 310 308 306 306 308 309 311 310 310 310 311 312 311 311 312 312 311 310 310 314 312 311 314 313 313 313 314 315 312 311 310 303 304 306 304 307 309 311 311 313 314 315
306 307 308 309 310 305 309 311 310 311 311 310 310 310 310 311 311 311 311 310 310 310 310 311 308 308 312 311 311 315 313 313 309 304 302 305 306 305 305 307 311 312 313 314 315
305 298 305 307 307 309 309 311 312 310 310 309 309 309 310 310 309 311 311 310 310 309 311 310 309 307 308 310 309 311 313 312 310 307 309 307 308 307 308 309 310 313 314 314 315
301 300 301 300 304 304 306 310 312 313 310 310 310 309 310 311 311 311 310 310 310 308 309 307 304 305 310 310 306 309 312 310 308 313 312 313 308 307 308 308 309 312 313 313 314
299 298 299 300 303 303 308 309 311 312 310 311 310 310 310 310 309 310 310 309 310 308 309 306 306 303 306 310 308 309 309 310 308 308 309 309 310 307 308 308 309 310 312 314 314
294 297 298 299 302 306 305 304 309 310 311 311 310 310 310 310 309 308 309 309 308 307 307 307 305 303 305 308 308 307 308 308 310 308 309 309 309 307 307 309 310 311 313 314 314

GFSSW_850_thetae_069.txt.gz
Theta_e
308 308 308 308 308 307 306 306 306 308 307 305 306 306 304 306 307 308 312 310 312 317 317 317 315 319 322 322 323 324 325 326 325 325 325 324 324 325 322 320 326 332 339 339 343
308 308 308 308 307 307 306 305 306 307 305 304 306 305 305 305 306 306 308 310 308 316 317 318 316 316 322 322 323 324 325 324 322 323 324 323 323 324 322 319 338 339 341 342 343
308 307 308 307 307 306 308 306 306 306 306 305 304 304 304 303 304 304 306 309 308 313 317 317 317 315 321 322 322 323 325 323 323 323 323 324 322 323 320 317 331 341 342 343 343
307 306 307 307 306 306 306 305 305 306 305 303 302 302 302 303 303 309 307 308 308 312 313 317 317 315 320 321 322 322 322 322 323 324 324 324 322 320 320 318 320 340 339 340 342
306 306 307 308 305 305 304 304 305 305 303 303 302 301 302 304 303 308 306 311 310 312 312 316 316 316 319 319 322 319 320 320 322 322 322 322 321 319 319 322 321 332 336 339 340
306 306 306 303 303 303 304 305 305 302 302 301 303 303 303 303 303 303 304 307 309 310 311 315 316 315 319 320 320 321 319 320 320 318 317 320 320 318 320 320 322 329 333 331 336
305 306 306 302 299 298 298 300 302 302 302 302 301 302 302 302 303 306 303 307 310 311 311 314 317 316 318 318 321 320 320 320 319 319 320 320 319 320 319 321 324 333 333 334 332
304 305 305 305 299 301 301 298 301 301 302 303 303 303 302 304 304 304 306 307 309 313 311 314 317 315 317 318 319 318 318 321 319 319 319 320 322 320 319 321 317 319 318 319 321
303 303 302 303 301 301 302 302 299 300 299 301 303 303 302 305 305 304 305 304 308 312 310 314 316 315 316 315 317 318 320 319 319 318 318 318 318 319 319 320 317 319 319 319 319
299 302 302 302 302 302 302 303 301 302 303 303 304 303 303 304 303 304 305 305 307 311 312 314 317 314 313 315 318 319 318 318 319 318 318 317 316 315 317 316 317 318 319 319 318
296 297 303 302 302 302 301 303 304 304 304 304 304 303 304 303 302 304 305 306 305 308 314 315 315 314 315 314 315 315 316 318 317 316 318 318 317 317 315 314 314 316 317 319 319
298 295 303 302 302 302 300 302 302 302 302 303 302 303 304 302 303 305 306 305 304 308 312 318 312 312 313 315 316 316 316 317 316 315 318 317 317 316 316 316 316 315 316 317 317
299 295 302 302 303 302 302 301 301 303 303 304 304 304 303 303 304 305 306 306 305 307 309 315 315 313 315 316 316 316 315 315 317 314 313 315 316 316 314 314 316 316 315 316 317
299 296 303 304 304 303 303 301 302 302 305 306 306 304 304 304 305 306 307 307 306 308 310 315 314 314 315 317 315 317 314 314 314 315 318 315 318 312 313 313 312 316 316 315 315
297 297 304 304 304 304 303 302 303 303 302 308 307 305 305 306 307 306 307 308 307 308 307 314 314 314 316 316 313 315 312 313 313 314 314 313 314 312 309 311 313 313 315 314 315
298 300 304 305 304 304 303 303 304 298 304 308 308 308 308 307 306 306 307 309 310 310 312 314 313 313 314 314 314 314 312 312 312 312 314 313 313 312 309 309 311 311 314 313 313
298 303 306 305 305 304 303 304 299 306 306 310 311 308 308 308 309 310 310 311 312 314 314 315 314 313 313 314 315 314 312 314 316 317 315 310 312 315 309 307 308 309 310 311 313
299 305 306 306 306 304 304 298 303 308 309 310 311 311 313 312 311 311 310 312 311 312 312 316 317 314 311 313 314 313 311 310 316 316 314 310 314 313 309 309 309 310 311 311 314
303 307 307 306 306 306 304 298 301 298 304 309 310 314 312 313 313 314 313 314 312 311 312 312 314 312 313 313 313 315 316 308 306 304 306 309 308 307 308 308 307 310 311 311 314
306 308 307 307 306 306 298 303 300 304 307 309 312 311 314 315 315 313 314 313 314 311 309 309 314 311 313 313 313 314 311 313 303 308 312 310 308 310 310 309 307 309 312 315 316
308 309 308 308 307 306 299 299 305 307 308 310 311 311 311 313 313 311 311 310 311 312 309 307 309 312 314 315 316 317 316 312 309 306 311 310 309 304 305 308 309 310 313 315 316
307 301 309 309 304 303 305 308 309 310 308 309 310 310 311 310 311 311 311 310 310 311 312 310 309 313 314 311 313 315 316 310 309 309 302 303 307 305 302 306 310 311 313 315 316
306 307 308 308 303 303 307 310 310 310 310 310 309 309 309 310 311 310 310 309 310 310 310 310 310 313 312 311 312 316 315 311 306 302 302 306 308 304 305 307 311 312 314 314 315
304 298 306 306 305 307 306 310 312 310 309 309 308 308 309 310 308 310 310 310 309 309 310 310 308 307 308 307 310 314 316 311 308 306 307 305 308 308 307 307 309 312 313 314 314
300 299 298 298 303 304 305 308 311 311 309 309 309 308 309 310 310 310 310 310 309 309 308 307 308 305 309 310 306 308 312 313 307 313 311 313 308 309 307 306 309 312 312 313 314
298 297 298 298 300 303 305 307 310 309 310 310 310 309 309 309 309 310 309 309 309 307 308 305 304 303 305 309 308 308 308 312 312 311 311 311 309 307 307 309 309 312 313 313 314
294 297 298 297 297 304 301 304 307 308 310 310 310 309 310 309 308 307 308 308 307 307 306 306 304 302 303 306 306 307 306 308 310 307 310 311 313 307 305 307 309 310 311 312 313

GFSSW_850_thetae_072.txt.gz
Theta_e
307 308 308 308 308 308 309 309 306 306 306 308 307 306 305 306 305 307 309 311 309 317 317 317 316 321 322 322 323 324 325 325 324 325 324 323 323 323 323 320 324 333 339 338 342
307 306 308 307 307 307 307 308 306 306 305 307 306 305 305 304 305 306 307 309 309 312 316 318 314 318 321 322 322 323 324 323 321 322 324 322 322 322 322 319 333 338 339 340 342
306 306 307 306 307 306 306 306 305 304 305 306 306 304 304 303 303 305 307 307 310 311 314 317 317 317 320 322 322 323 324 321 322 323 323 324 323 322 320 318 318 320 338 341 343
306 305 306 306 308 305 304 303 304 305 306 305 304 303 302 302 302 308 310 307 310 312 314 315 316 315 318 320 321 322 323 322 323 324 323 323 322 321 320 321 321 320 331 339 339
306 305 306 306 304 300 305 305 305 304 303 302 302 301 302 303 302 307 306 311 310 312 312 314 316 315 317 319 321 319 319 322 322 323 322 323 320 319 321 322 321 322 329 334 336
306 305 305 305 302 299 298 303 302 302 301 302 303 303 302 302 303 303 304 307 309 309 311 312 314 315 317 320 320 320 320 321 323 323 319 319 319 318 322 322 321 320 329 332 333
303 305 306 305 303 304 302 299 303 301 302 301 301 301 302 302 303 305 303 305 308 308 310 311 315 315 317 318 320 319 321 320 321 320 320 318 320 319 322 320 320 320 328 334 334
305 304 305 304 304 303 303 303 301 300 302 302 303 302 301 303 304 303 305 305 308 310 309 311 315 314 316 317 319 318 318 321 319 319 319 318 321 319 320 320 321 320 318 332 333
306 302 304 304 303 303 302 303 299 299 299 301 302 302 302 304 304 303 305 305 308 309 309 312 313 314 316 315 315 318 320 318 320 318 320 320 320 318 318 320 320 320 320 318 322
305 304 303 304 302 304 302 303 301 300 302 303 303 303 304 304 303 303 305 304 307 310 311 313 314 313 312 314 318 318 315 317 320 319 319 320 319 318 318 320 319 318 319 317 318
304 303 300 304 302 303 301 304 303 304 304 303 303 303 303 303 302 305 304 304 305 309 311 311 312 313 315 313 314 313 315 316 316 318 318 319 319 316 319 317 318 318 316 317 318
303 302 298 303 302 302 300 302 302 301 301 303 303 302 303 302 302 305 305 304 304 310 307 315 312 311 313 315 314 314 314 315 316 317 318 318 318 318 317 315 315 315 316 316 317
302 300 297 303 303 303 302 300 301 303 303 304 304 304 303 303 304 305 306 304 305 307 308 314 313 312 314 315 315 314 314 314 315 315 314 316 318 318 317 318 316 316 316 316 316
299 298 299 303 304 303 303 301 302 302 304 306 305 304 304 304 305 305 306 306 305 308 309 314 311 314 314 316 314 316 313 313 314 316 318 315 320 316 318 316 315 316 315 317 316
298 297 302 303 304 303 303 302 303 303 308 307 305 305 304 306 306 306 307 307 307 308 308 315 312 315 316 316 313 315 312 313 313 313 314 314 316 315 308 313 316 316 315 316 317
299 298 304 305 304 304 303 303 304 296 304 308 307 307 306 306 306 305 307 309 308 308 308 311 312 314 314 313 313 311 311 312 312 312 315 313 314 314 310 309 309 311 314 316 316
299 303 306 305 305 304 303 304 297 303 304 309 308 306 307 308 307 306 308 309 311 312 312 315 315 312 312 314 314 311 311 313 315 313 315 310 313 315 311 307 307 308 311 313 315
299 305 306 306 305 303 304 299 302 306 306 309 311 310 311 309 310 309 309 311 311 307 312 317 316 314 310 312 313 313 312 309 315 314 313 309 314 313 310 309 309 309 311 311 312
304 307 306 306 306 304 303 295 301 299 304 308 310 310 312 313 313 312 311 311 310 311 312 313 315 312 313 312 312 314 316 307 305 303 305 309 308 307 306 306 307 308 309 310 310
306 307 307 307 306 305 297 303 298 301 306 308 310 310 312 312 313 312 313 313 313 311 308 309 315 312 313 313 312 312 309 314 303 308 311 309 308 309 308 308 307 307 309 309 311
307 308 307 307 306 305 297 300 304 306 307 309 311 311 311 313 311 310 310 311 311 310 307 307 310 314 313 313 313 315 313 310 308 306 311 310 309 304 306 304 304 306 310 310 313
307 300 307 308 304 300 303 306 308 309 308 308 309 310 310 309 310 310 311 309 310 310 310 308 308 313 314 311 311 314 314 308 307 307 301 303 307 304 303 302 305 308 311 313 315
305 306 305 306 301 302 306 309 309 309 309 309 309 308 308 309 311 310 310 309 309 310 310 308 307 312 312 311 311 314 314 311 305 303 301 308 310 303 304 308 310 310 312 315 315
303 299 304 305 304 306 306 308 310 310 309 308 308 308 308 309 307 309 310 309 308 309 310 308 306 306 308 307 309 313 315 314 309 315 309 307 308 307 306 308 308 310 312 314 315
299 297 298 297 301 302 304 307 310 310 308 308 308 308 308 310 310 310 309 309 308 309 307 307 308 305 307 309 306 309 312 314 314 313 315 313 309 310 308 306 307 311 312 313 313
297 297 297 297 299 302 304 304 308 308 308 309 309 308 308 309 308 310 308 308 309 307 307 304 305 304 306 308 307 308 308 311 313 313 313 313 312 308 308 308 308 309 311 312 313
295 296 298 296 297 303 300 301 306 306 309 309 309 308 308 308 307 307 307 307 307 306 306 305 303 303 304 306 306 306 306 307 310 311 312 314 313 307 306 306 308 309 311 312 313

GFSSW_850_thetae_075.txt.gz
Theta_e
307 308 308 307 308 307 307 307 308 307 306 305 307 307 307 304 303 305 308 310 311 314 314 316 316 319 322 323 323 323 325 325 324 324 324 322 324 323 321 320 329 336 338 338 343
308 307 307 307 307 306 306 306 304 306 304 305 307 307 306 304 304 304 304 308 311 312 315 317 316 317 321 322 323 323 325 324 321 323 324 322 322 322 322 321 320 322 336 340 343
309 308 307 306 304 304 306 305 303 304 305 306 306 306 304 303 302 303 308 306 309 311 314 317 316 317 320 321 322 322 325 321 322 323 323 324 323 322 321 318 320 319 324 340 343
308 307 306 305 305 303 303 305 304 305 305 305 305 303 303 302 301 308 307 311 309 310 312 314 317 316 318 321 321 324 322 322 323 324 323 323 322 321 321 320 321 320 323 338 344
304 306 305 305 306 302 298 304 303 302 302 302 302 301 301 302 302 304 305 309 310 311 313 313 316 314 317 319 320 320 321 322 323 323 322 322 320 319 320 322 321 321 323 337 341
306 304 305 305 305 302 304 299 303 301 301 302 303 302 302 302 302 304 304 308 310 310 312 313 315 314 316 319 320 319 319 322 323 322 319 321 320 320 320 321 323 322 321 332 336
306 305 303 305 305 305 303 304 300 301 302 301 302 301 301 302 304 303 305 305 307 308 310 311 314 314 316 317 319 319 321 321 322 321 321 320 322 321 320 320 320 321 322 326 334
305 305 303 303 305 303 303 302 302 300 302 302 303 301 301 304 303 303 305 305 307 308 308 310 313 314 315 317 318 319 319 323 320 321 320 319 325 320 320 319 320 320 322 320 327
305 305 304 302 304 303 305 302 301 299 299 300 301 302 302 304 303 303 304 304 306 308 308 309 311 314 315 316 318 318 320 319 321 320 320 318 320 319 318 318 319 320 321 321 319
304 304 304 298 303 304 304 301 302 300 301 302 302 302 303 303 303 302 304 304 307 308 310 310 310 314 313 316 318 318 318 318 320 320 319 319 320 318 318 317 319 320 321 320 319
304 304 303 299 304 303 303 302 302 303 303 302 303 303 303 303 302 305 305 304 306 308 310 310 311 314 315 313 313 314 316 318 318 319 319 320 319 318 319 319 320 321 320 319 319
304 304 302 300 304 303 301 302 302 301 301 302 303 303 302 302 303 304 303 304 304 309 310 311 313 311 313 314 314 316 315 316 315 318 318 319 319 317 319 318 320 320 321 318 316
303 302 298 304 303 302 302 300 301 301 302 303 303 303 303 302 304 305 305 303 304 308 311 313 312 311 314 315 315 313 314 314 316 317 315 317 318 319 317 317 317 320 320 318 315
302 299 298 304 304 303 303 301 301 302 299 305 304 303 303 303 304 305 305 304 304 309 311 313 312 312 314 316 314 316 312 313 314 318 320 316 320 318 318 318 318 317 320 318 316
298 299 301 304 304 303 303 302 302 302 302 307 305 304 304 305 305 305 307 306 307 308 310 314 313 313 315 316 313 315 311 313 313 313 314 314 318 316 315 318 317 318 317 317 316
299 299 304 305 304 303 302 303 304 297 302 308 306 306 305 305 306 305 306 308 307 309 309 311 312 314 314 313 312 310 312 313 311 314 320 315 318 317 312 316 317 316 316 316 316
299 304 305 305 305 304 303 304 299 303 303 310 308 307 305 305 306 306 308 308 307 312 313 314 314 313 312 315 313 311 313 318 318 319 317 310 313 317 312 308 310 311 312 315 315
302 306 305 306 304 303 304 298 301 306 308 310 310 307 310 308 309 308 308 308 307 309 315 315 316 315 311 313 314 312 311 313 316 316 315 309 314 314 310 309 309 309 310 311 312
305 306 306 306 305 304 303 295 300 298 303 309 310 312 313 310 310 311 309 311 309 307 313 316 315 313 312 312 312 314 312 307 306 303 310 311 309 308 307 308 308 308 309 310 310
305 307 307 306 306 305 298 303 299 300 305 308 311 310 312 312 313 313 312 310 310 309 309 310 316 312 313 312 312 312 308 313 306 311 313 309 308 311 309 308 306 305 307 309 309
305 307 306 306 305 304 297 301 304 305 307 309 310 310 310 312 310 309 310 311 311 309 307 308 312 314 313 313 314 313 312 308 309 307 312 311 311 305 307 305 304 304 306 309 309
307 300 307 307 304 300 302 304 307 308 307 307 308 309 309 309 310 309 309 308 310 309 309 308 311 315 315 311 310 312 312 308 311 309 302 305 310 304 304 303 304 307 309 310 309
306 306 304 305 300 301 304 309 309 309 308 308 308 307 307 308 310 309 308 308 310 309 309 308 307 313 313 311 309 313 313 308 304 303 304 312 312 303 304 307 309 309 311 312 311
303 298 302 304 303 305 306 307 310 309 308 308 307 307 308 308 306 309 309 308 308 309 310 308 306 307 308 307 308 312 312 310 310 313 309 309 309 309 307 306 307 310 311 313 314
300 297 298 296 301 301 304 306 309 309 308 308 307 308 307 309 309 309 309 308 307 310 306 306 305 303 306 307 307 309 311 312 311 312 313 312 310 311 310 308 308 310 311 312 314
298 297 297 296 299 301 302 305 307 307 307 309 308 308 306 307 306 309 308 308 309 306 307 303 304 304 305 308 307 308 308 310 312 312 311 312 312 311 309 310 307 308 309 311 312
296 296 298 296 297 301 298 300 305 304 308 307 307 307 307 307 306 305 306 306 306 306 305 304 303 304 305 305 306 307 307 307 310 310 312 313 312 309 310 309 310 311 309 311 311

GFSSW_850_thetae_078.txt.gz
Theta_e
308 308 308 308 308 307 307 307 306 305 306 307 304 306 307 307 306 305 307 309 311 313 313 315 316 318 320 324 326 326 328 327 327 325 324 324 325 324 321 322 334 328 335 339 342
307 308 308 307 307 305 307 306 303 304 304 303 305 307 307 306 305 306 306 305 311 312 314 316 317 317 321 323 324 325 328 326 325 325 325 324 325 324 324 327 326 325 331 342 343
305 306 307 307 307 305 300 306 304 305 305 306 306 306 306 304 305 304 304 308 309 311 313 316 316 318 320 322 323 324 327 324 323 323 324 325 325 323 323 325 323 322 326 342 342
307 305 305 306 306 304 298 304 305 303 303 304 304 303 303 303 305 307 307 306 310 310 311 314 316 316 318 321 322 325 324 323 324 325 325 325 324 324 324 323 322 321 326 338 341
308 306 304 305 305 306 305 299 305 302 301 301 301 301 301 303 303 303 305 307 310 310 311 314 316 315 317 319 321 324 323 323 323 324 324 323 323 324 323 323 321 322 324 336 339
306 306 305 303 305 305 303 305 301 301 302 302 301 302 303 303 302 304 304 307 310 310 309 313 315 314 315 317 321 321 322 322 323 323 322 324 323 323 322 321 322 322 323 326 336
305 305 305 304 304 305 304 303 305 301 302 302 301 301 302 303 304 304 305 305 308 310 310 312 315 315 315 317 318 320 321 322 323 323 324 322 324 323 323 322 322 322 323 323 324
305 305 305 304 303 305 304 305 303 300 301 302 302 301 302 304 303 304 305 305 307 308 308 310 313 315 316 318 319 320 320 323 322 323 322 322 326 323 323 322 322 322 322 323 322
305 304 304 304 302 305 303 304 302 299 300 300 301 301 303 304 304 302 304 306 304 306 308 309 312 314 316 318 319 320 320 320 322 321 322 322 325 322 322 321 321 321 322 322 321
305 304 304 304 302 304 304 303 303 300 300 301 302 303 304 304 302 302 305 304 306 306 309 310 311 315 316 317 319 320 320 319 321 322 322 322 322 319 320 320 321 322 322 322 322
304 303 303 303 303 304 304 302 303 304 304 303 304 303 303 302 302 305 305 305 306 307 310 310 311 316 316 315 315 318 318 318 319 320 322 322 321 320 319 319 321 321 321 322 322
304 303 302 302 304 304 302 303 302 301 303 302 303 303 302 302 304 306 304 305 307 308 310 312 314 314 315 315 315 317 318 319 319 320 321 321 321 320 318 319 319 319 321 322 322
304 301 300 304 304 303 302 300 301 301 305 304 303 304 304 303 304 305 304 304 306 307 310 313 313 313 315 316 316 317 317 319 319 321 320 320 321 320 319 319 319 319 319 322 322
302 299 299 304 304 303 303 301 302 302 308 307 305 304 304 304 305 303 304 305 306 309 311 313 312 313 315 315 315 318 316 318 319 320 320 319 320 319 319 319 319 319 319 321 322
299 299 301 304 304 303 302 302 302 302 312 306 306 304 304 306 305 305 306 307 308 310 312 315 313 313 315 315 315 315 315 316 317 317 319 319 320 319 318 319 319 319 319 321 323
300 300 305 304 304 303 302 303 303 308 312 308 307 306 305 305 306 306 307 307 309 311 311 313 311 311 314 315 314 314 316 316 317 318 320 318 319 318 318 318 319 318 318 319 321
301 305 305 305 304 303 303 304 310 313 306 310 308 307 306 305 306 306 309 310 311 315 314 314 313 314 313 316 313 316 318 320 320 320 319 315 319 318 317 316 315 317 318 318 319
305 305 306 305 304 303 303 305 316 310 312 310 308 306 308 307 308 308 308 310 310 313 316 317 316 313 315 316 316 317 316 319 317 318 317 314 319 317 315 312 311 312 312 315 317
306 306 306 305 304 304 304 312 312 309 308 311 309 311 311 309 309 310 310 311 310 310 315 316 315 313 314 315 315 316 318 311 314 310 317 316 315 314 313 313 312 311 311 312 311
306 306 306 306 305 304 305 309 308 303 308 310 313 312 312 312 312 311 313 311 312 310 310 314 317 314 314 314 314 316 312 317 316 318 317 314 314 314 314 312 311 311 309 310 311
306 307 306 306 306 304 311 309 308 306 307 310 312 312 313 313 313 313 313 312 311 311 311 312 315 314 315 315 317 316 316 315 314 313 315 314 314 313 312 311 311 312 310 309 311
306 310 306 306 306 303 310 307 307 310 307 310 310 311 312 313 312 312 313 312 311 311 312 310 314 317 317 313 313 315 316 316 318 316 312 313 314 311 311 311 310 313 312 312 311
306 305 305 305 311 310 308 310 309 310 310 310 310 309 309 311 313 312 311 309 311 311 312 311 314 316 315 313 312 315 315 314 313 313 316 316 314 308 309 311 312 313 313 313 311
305 307 302 304 303 308 310 310 311 309 309 308 309 308 310 311 310 312 312 310 310 310 309 310 312 314 316 315 314 314 314 315 315 319 316 315 314 312 311 312 311 312 313 314 312
301 303 302 308 306 306 307 309 311 311 309 309 310 310 310 312 311 312 311 309 309 310 309 311 314 309 309 309 312 313 314 315 314 315 317 315 314 313 313 313 313 311 310 312 314
300 299 298 300 301 306 305 309 310 309 310 311 311 309 309 310 309 312 311 311 312 309 310 308 313 310 312 311 310 312 312 313 314 314 315 315 315 313 312 312 311 312 311 310 312
297 298 301 298 302 307 305 305 306 306 309 308 309 309 310 309 307 306 307 308 309 311 311 310 311 311 313 308 310 311 312 312 313 313 314 315 314 313 313 312 312 313 313 312 311

GFSSW_850_thetae_081.txt.gz
Theta_e
308 307 309 308 309 308 304 308 306 304 304 304 304 304 305 307 308 308 309 308 311 312 312 316 317 318 319 322 324 325 329 330 328 327 327 325 324 325 324 325 333 329 337 341 343
308 307 306 308 307 307 300 307 306 304 305 305 305 306 307 307 307 307 307 307 308 309 313 314 317 318 319 321 324 326 329 330 327 325 326 325 324 325 324 327 329 329 332 340 342
309 308 306 305 306 308 302 304 305 304 303 305 305 306 306 305 306 306 307 305 309 311 312 314 316 317 318 319 323 325 327 325 324 323 325 325 325 324 324 327 326 326 328 340 341
308 308 307 305 306 307 305 301 305 303 302 302 303 302 303 307 308 307 307 307 307 310 312 315 316 317 318 320 321 324 324 324 324 324 325 325 324 325 325 325 324 325 330 338 341
306 307 305 305 304 306 305 306 302 302 301 301 302 301 304 305 305 304 304 307 309 307 310 314 316 317 318 318 319 322 322 323 324 325 325 324 323 325 325 324 323 325 329 337 340
307 306 305 305 303 305 305 304 306 301 302 301 301 301 305 306 304 305 305 308 310 309 309 311 315 316 316 317 319 320 321 322 324 324 325 325 324 322 324 324 324 324 326 331 337
307 305 305 305 304 305 305 305 303 302 302 301 300 303 305 305 305 305 306 307 308 310 311 310 311 315 314 317 319 320 322 323 324 324 325 325 325 323 323 323 324 324 325 326 327
306 305 304 304 304 303 305 305 306 302 300 302 302 305 304 304 305 305 306 307 305 307 311 310 309 314 315 315 319 321 321 325 324 323 324 324 326 324 322 324 324 324 324 326 325
305 305 304 305 304 303 304 304 302 301 299 300 304 305 304 305 305 304 306 306 306 305 307 308 309 314 316 318 320 320 322 321 323 323 324 324 324 324 322 323 323 323 323 324 325
305 305 303 304 303 303 304 305 303 301 302 303 304 305 304 305 304 303 306 306 307 304 308 308 310 312 317 318 320 320 319 320 322 323 323 324 324 323 322 322 323 323 322 323 324
305 304 304 303 302 304 304 305 305 306 305 305 304 304 304 304 304 306 306 306 307 305 311 309 311 314 316 316 315 316 317 317 318 321 322 323 323 323 322 321 322 322 322 323 323
303 303 303 303 304 305 304 305 305 304 306 304 304 304 303 303 304 306 305 306 307 308 311 311 314 314 315 315 317 317 320 319 320 320 321 321 321 320 321 321 321 321 321 322 323
303 302 302 303 304 304 305 304 301 301 307 306 305 305 305 305 305 304 305 305 307 307 310 314 313 314 316 316 318 317 318 319 319 320 320 320 321 321 320 320 319 320 321 322 322
301 300 301 304 305 305 305 302 301 303 310 308 306 305 305 305 306 304 304 306 308 308 310 313 312 315 316 315 315 317 317 318 319 321 321 319 319 319 320 320 319 320 320 321 322
300 300 300 304 306 305 305 302 301 304 314 307 307 305 306 306 306 305 306 307 309 309 311 314 313 315 316 315 315 316 316 317 319 320 318 320 320 318 319 320 320 319 320 320 320
300 302 305 304 305 304 303 303 305 309 312 308 307 306 306 306 307 307 308 308 309 312 313 313 312 313 315 315 315 316 317 317 317 317 320 318 319 317 320 319 318 319 319 319 320
303 306 306 305 306 303 303 306 310 315 309 310 308 307 306 307 308 308 310 312 312 313 315 313 313 312 315 316 316 315 317 320 319 320 319 317 318 318 318 317 317 317 318 318 319
306 306 305 305 304 303 306 307 315 313 313 309 307 307 309 309 308 310 310 312 312 313 315 317 316 315 315 316 317 316 316 318 317 317 316 317 318 318 317 316 314 314 315 316 319
306 306 306 305 304 304 306 313 313 312 312 311 309 311 311 309 310 310 311 312 313 314 315 316 316 312 315 316 316 317 319 314 317 316 318 318 316 316 315 315 315 314 314 315 314
307 307 306 305 305 305 308 311 311 309 311 312 314 313 311 311 311 312 312 312 313 312 313 315 317 314 315 315 315 317 315 315 319 318 315 316 315 316 315 314 314 314 312 312 313
307 308 306 306 306 306 312 313 311 308 310 312 313 313 312 313 312 313 313 313 312 312 312 314 316 315 315 316 318 317 317 317 316 316 316 314 314 315 314 315 315 315 314 312 312
308 308 306 305 307 306 313 311 309 311 310 311 312 313 314 314 314 314 314 314 312 312 313 313 316 317 316 315 315 317 317 317 318 317 315 315 315 314 314 314 315 315 315 314 313
309 305 305 305 310 312 311 312 312 312 312 312 312 311 312 314 315 314 313 311 313 312 314 313 316 317 317 316 315 316 316 316 316 316 320 316 315 313 313 312 314 314 314 315 314
308 308 305 305 307 310 312 312 312 310 311 310 311 311 312 312 312 314 313 312 313 312 311 311 314 316 318 316 316 315 315 316 316 320 316 316 315 313 313 314 314 313 314 313 315
304 309 308 309 309 310 311 312 312 312 311 310 312 312 312 313 313 313 313 312 312 312 311 313 316 313 312 311 314 315 315 315 317 316 318 315 315 314 314 314 314 314 313 312 315
303 303 302 306 306 310 308 312 312 312 312 312 312 311 311 312 312 313 313 313 314 312 313 312 316 313 314 313 312 313 313 313 314 315 316 315 315 314 314 314 314 313 313 313 312
299 300 304 303 307 310 310 310 311 310 310 311 311 312 312 311 308 309 309 310 311 313 313 313 314 313 315 310 311 312 312 313 314 314 314 316 315 314 314 314 313 313 313 313 314

GFSSW_850_thetae_084.txt.gz
Theta_e
308 310 308 306 308 308 307 302 308 305 304 304 304 303 303 305 306 307 309 309 310 311 313 312 314 317 319 320 322 326 327 329 329 326 327 324 324 324 324 329 330 334 340 345 342
307 310 308 307 305 307 308 300 306 304 303 305 306 306 306 307 307 308 308 309 309 311 311 311 315 317 318 319 323 324 327 327 326 326 326 325 323 324 324 329 329 331 333 342 342
308 308 308 307 305 306 308 305 304 303 301 303 305 305 305 305 307 307 307 308 308 308 310 311 314 316 318 318 322 323 325 325 323 325 325 325 325 324 325 327 326 326 333 341 341
306 308 307 306 306 305 307 305 305 303 301 301 301 302 302 306 307 307 306 306 309 309 310 310 314 316 318 319 319 323 321 323 323 324 325 325 324 325 326 325 325 327 331 338 344
306 307 307 305 305 303 306 306 306 302 301 302 302 302 304 307 306 304 305 306 308 309 310 310 313 316 318 316 318 321 323 323 322 324 324 324 324 324 325 323 324 327 335 339 340
306 307 307 305 305 304 306 305 306 305 301 301 301 301 306 306 305 305 305 307 307 310 310 311 313 315 317 316 317 320 321 323 323 321 324 325 325 324 325 323 324 325 330 337 338
307 306 306 305 305 304 303 305 306 305 301 301 300 303 305 306 305 305 306 307 305 307 309 311 312 312 315 317 316 319 320 321 323 322 324 324 326 325 325 324 324 324 327 328 336
305 305 305 305 304 304 303 305 305 306 301 301 301 304 305 304 302 305 306 307 306 304 307 310 310 310 314 316 317 320 320 322 323 323 323 324 325 323 324 324 324 324 326 326 325
304 305 305 304 304 304 303 304 304 301 300 300 302 306 305 305 305 304 306 306 307 304 307 308 309 311 314 316 319 320 322 321 323 322 323 324 324 323 323 324 324 323 323 326 325
303 306 304 304 304 304 304 305 304 302 305 305 305 305 305 305 304 303 306 306 307 305 306 306 308 309 314 317 320 320 321 320 321 323 323 323 323 322 322 323 323 323 323 323 324
303 305 304 303 303 304 304 305 306 306 306 306 305 304 304 304 304 305 305 306 306 306 308 307 309 313 316 316 316 318 317 319 320 322 323 323 323 322 323 322 322 322 322 322 323
303 304 304 304 304 305 305 306 305 305 307 305 305 304 304 303 304 306 305 306 307 307 305 311 313 313 316 316 316 317 317 319 321 322 322 322 321 321 321 321 322 322 322 322 322
302 302 302 303 304 304 305 305 304 301 307 307 305 305 305 305 305 305 305 306 307 307 311 313 313 312 316 316 316 315 315 319 322 320 319 319 319 319 318 319 321 321 321 322 322
302 301 300 304 305 305 305 304 301 305 310 308 307 307 306 305 306 304 305 307 307 310 311 312 311 313 316 317 318 319 317 318 319 319 321 318 317 317 317 318 318 320 320 320 321
301 300 300 305 306 305 305 302 302 305 313 308 307 304 307 307 305 307 306 308 308 309 311 313 314 315 317 316 317 318 317 319 319 319 319 318 318 315 317 318 318 318 319 320 320
301 302 305 305 305 305 304 303 306 309 310 307 307 307 307 307 308 307 309 308 308 311 312 313 312 313 315 316 316 316 317 317 316 317 316 318 317 315 316 317 316 317 319 319 320
303 305 306 306 306 303 305 306 310 313 309 309 307 307 308 308 309 309 310 311 312 313 314 312 312 312 314 317 315 316 316 316 317 313 316 316 316 316 316 315 316 316 317 318 319
306 306 305 305 304 304 306 308 314 312 313 308 308 308 310 309 309 310 312 313 312 314 313 315 315 314 315 317 316 316 316 316 315 315 315 316 316 315 315 315 315 315 315 316 317
306 306 306 305 304 305 307 311 312 312 311 310 309 311 310 309 310 310 312 312 313 313 316 316 314 313 315 316 316 316 315 313 317 315 314 315 315 315 314 314 314 314 314 315 315
307 307 306 305 305 306 309 310 310 311 312 311 314 312 310 310 311 312 313 312 313 312 313 314 314 313 316 316 315 316 315 315 315 314 314 315 315 314 312 312 312 312 312 313 314
307 308 306 305 305 307 312 312 311 310 311 312 313 313 311 311 311 312 313 312 312 312 312 314 314 315 316 315 316 316 316 316 315 313 315 313 312 311 312 312 312 313 314 313 311
307 308 306 305 308 307 312 312 310 311 310 312 312 313 313 313 312 313 313 314 312 312 314 313 314 314 315 315 315 315 317 315 313 315 312 312 313 311 311 313 314 315 315 314 313
308 306 305 306 311 312 311 311 312 312 312 312 313 312 312 314 315 313 313 313 313 312 314 312 315 317 315 315 314 315 316 316 315 313 313 312 311 311 310 311 314 314 313 314 314
308 306 305 305 306 310 312 312 313 311 311 311 311 311 312 313 313 313 313 312 313 313 311 311 314 314 313 314 315 314 314 314 314 313 315 314 314 312 311 312 313 314 313 313 314
307 309 306 307 309 310 312 312 313 312 311 311 312 312 312 313 313 314 313 313 313 312 311 312 314 308 311 311 313 315 315 314 312 313 311 314 313 313 311 311 312 313 313 312 313
304 306 307 309 309 310 310 312 311 312 312 312 313 312 311 312 311 313 313 312 313 312 312 311 312 311 310 312 311 312 312 312 313 314 315 314 314 313 313 313 313 313 313 313 313
302 304 305 306 308 310 310 310 311 311 311 311 312 312 312 311 308 308 310 311 311 312 312 313 312 310 311 310 310 310 311 312 312 312 313 314 314 312 311 312 312 312 312 313 313

GFSSW_850_thetae_087.txt.gz
Theta_e
309 310 309 308 307 305 308 308 301 306 302 303 305 305 305 304 305 306 306 305 310 311 311 312 314 313 317 318 321 324 327 326 326 324 326 322 323 324 324 330 332 337 341 339 338
308 308 308 308 307 305 307 308 304 305 301 302 304 305 306 306 306 306 306 310 310 310 310 311 312 314 315 319 319 323 327 325 324 324 325 323 323 323 325 329 335 335 341 343 340
306 306 309 308 306 306 306 307 306 304 301 301 302 302 303 304 306 307 307 307 307 310 309 309 311 313 315 317 319 322 325 324 324 325 325 324 324 323 324 324 326 335 341 343 344
307 308 308 307 305 306 304 307 306 306 301 301 301 301 301 304 307 306 305 306 305 310 307 306 309 313 315 316 318 321 321 322 322 323 324 325 324 324 325 325 326 326 331 341 342
308 306 308 307 306 306 303 306 306 305 302 302 301 301 304 307 306 305 306 305 305 307 307 307 309 312 315 316 317 321 321 321 322 324 323 324 324 324 323 325 328 331 332 340 342
306 307 307 307 305 305 304 305 305 307 304 301 300 300 305 306 305 305 305 306 306 306 309 308 308 311 314 316 316 318 321 321 322 323 321 323 325 324 323 324 330 328 337 339 341
306 306 306 306 305 305 305 302 306 307 305 301 301 301 304 305 305 304 306 307 306 304 308 309 308 312 313 316 315 317 320 321 323 322 322 323 325 325 323 324 326 327 328 338 339
304 306 306 306 304 304 303 302 304 305 304 300 301 303 305 305 304 304 305 306 307 304 304 306 310 310 311 313 316 317 319 322 323 321 321 318 320 324 323 323 323 327 326 329 337
303 304 306 305 304 304 302 304 304 302 300 299 302 305 305 305 305 303 305 305 307 305 305 306 309 309 312 315 318 319 321 321 324 321 322 320 319 323 323 323 323 324 326 325 328
302 304 306 304 303 304 304 304 302 302 305 305 305 305 304 305 304 305 305 306 307 305 305 306 308 307 312 317 319 320 320 320 323 321 320 322 323 322 322 322 323 323 322 325 324
303 304 306 304 303 304 304 305 307 306 305 306 305 304 304 304 302 305 305 305 306 307 307 304 310 311 311 312 315 317 319 319 320 322 322 323 322 321 322 322 321 322 322 322 324
303 304 304 304 304 305 305 306 305 305 306 305 305 305 304 303 305 306 304 306 307 307 304 309 312 311 313 313 316 318 319 319 320 320 319 320 321 320 319 320 321 321 322 322 322
303 302 304 303 304 304 305 305 305 302 306 307 305 305 304 304 305 305 304 306 306 307 308 310 313 313 315 316 317 317 317 319 320 321 320 320 321 320 318 321 321 321 321 321 322
302 301 301 304 305 305 305 305 302 303 307 308 307 306 306 305 305 305 305 306 306 309 311 310 311 315 315 316 315 316 316 318 321 320 321 318 321 318 317 316 317 320 321 321 322
302 301 301 305 305 305 305 303 302 306 299 308 307 306 306 307 305 305 307 308 310 311 311 313 313 315 317 317 316 317 317 318 320 319 319 318 317 315 314 315 315 315 320 320 320
301 303 304 305 305 305 303 302 306 302 305 305 307 307 308 308 308 307 308 308 308 312 312 311 311 312 314 316 315 316 317 318 317 315 313 317 315 313 314 316 315 315 319 319 319
302 305 306 305 305 303 305 306 307 302 306 308 305 308 308 309 310 309 310 311 312 307 310 310 311 310 314 314 315 317 313 316 317 312 315 313 315 314 314 313 313 313 317 319 319
305 306 306 306 304 305 306 302 302 310 308 307 307 307 308 309 309 311 311 312 310 311 313 309 308 313 312 316 316 316 314 311 316 314 313 313 314 313 312 313 315 315 315 315 316
306 305 305 304 304 305 306 300 304 306 308 308 308 309 309 309 309 309 311 311 312 312 310 310 314 313 314 314 314 314 310 312 313 311 310 312 313 311 311 311 312 313 314 314 314
306 306 305 305 304 306 306 307 305 308 310 309 312 310 309 309 309 310 312 311 312 311 311 311 315 312 315 314 315 315 313 311 307 312 314 313 314 311 310 309 309 309 311 312 314
307 307 305 304 305 307 306 307 310 309 311 312 312 312 308 310 309 311 313 311 311 311 311 312 310 313 314 314 316 315 315 315 312 311 314 312 309 307 309 310 310 311 313 312 311
307 307 305 305 306 306 306 310 310 310 310 311 311 312 309 310 310 311 313 313 312 311 313 311 310 314 314 314 314 315 316 315 310 313 308 309 310 310 309 309 313 314 313 313 312
307 305 305 306 305 305 309 311 311 311 310 311 312 311 311 312 313 312 312 312 312 311 311 311 309 307 312 311 312 314 314 315 312 309 310 310 309 308 309 311 313 314 313 314 313
306 305 305 305 306 306 309 310 312 311 311 311 310 310 311 311 311 312 312 312 313 312 311 310 311 308 306 310 311 313 313 314 311 308 313 311 312 311 308 308 310 313 312 313 314
308 304 305 305 304 304 308 310 311 311 310 310 311 311 311 311 312 313 312 312 312 312 310 310 310 304 310 310 311 312 313 312 308 311 311 313 312 312 309 309 311 312 313 312 312
305 306 305 305 307 305 308 310 310 311 310 310 311 311 309 310 309 312 311 311 311 310 311 309 308 306 306 310 310 311 310 310 311 312 312 312 312 310 312 313 312 311 311 312 312
303 305 306 305 305 305 307 309 311 309 310 311 310 310 310 309 308 308 308 309 309 310 310 310 309 306 306 309 308 308 308 310 310 310 311 313 313 311 310 310 311 311 311 311 311

GFSSW_850_thetae_090.txt.gz
Theta_e
305 307 309 309 308 307 306 308 308 303 304 302 303 304 305 306 305 305 304 304 306 309 313 311 312 313 312 315 318 322 326 325 325 319 321 322 323 323 328 332 335 339 339 339 333
306 306 308 309 308 306 306 307 308 306 305 301 302 303 304 305 305 305 306 307 311 309 310 311 310 313 313 316 318 322 325 324 322 324 324 323 323 322 329 332 338 339 339 341 339
307 307 308 309 307 306 306 305 307 307 304 301 301 301 301 303 305 306 306 306 306 306 306 308 309 312 313 315 318 318 325 324 324 325 325 325 323 323 325 325 329 340 340 342 342
306 307 306 309 307 306 306 303 306 307 305 301 302 301 301 304 305 305 304 307 307 306 306 308 308 310 312 315 316 320 319 323 323 323 324 324 323 323 324 325 330 338 339 339 340
306 306 307 307 308 306 306 303 307 306 306 301 301 300 304 306 306 305 305 304 305 305 305 306 307 309 311 313 315 318 319 319 322 323 323 324 323 323 323 326 326 327 339 339 336
306 305 304 306 306 305 305 305 304 306 308 302 301 300 304 305 304 305 304 305 306 305 305 307 306 308 310 312 314 317 318 319 322 323 322 323 323 324 323 330 331 331 332 338 338
307 305 304 306 306 305 305 305 303 306 307 303 301 301 302 303 305 304 304 306 306 306 305 308 308 307 310 313 315 316 320 318 321 322 323 321 324 325 324 326 330 331 335 336 339
307 305 303 306 305 304 304 303 303 304 304 301 301 302 303 304 304 304 303 305 306 306 304 306 306 306 311 313 314 316 319 323 322 321 322 321 326 320 323 322 330 329 333 336 338
308 304 303 305 304 303 302 304 304 302 300 299 302 304 304 304 305 304 304 306 306 306 305 305 307 308 310 314 315 317 320 321 325 321 321 320 320 319 320 323 320 329 328 333 335
308 304 303 302 304 302 304 304 302 304 305 305 305 305 304 304 304 304 305 305 306 306 306 307 308 308 309 313 316 319 319 319 322 321 320 320 321 320 320 321 321 324 326 328 331
307 303 303 301 300 303 304 305 307 306 305 305 304 304 304 303 301 303 305 305 306 306 306 306 309 311 310 313 314 316 317 318 321 320 319 321 320 319 320 320 321 320 323 324 325
307 303 303 301 301 304 305 306 305 305 306 305 305 305 304 304 305 305 305 306 307 307 306 309 310 309 308 312 314 315 318 319 321 320 320 320 321 321 321 321 322 320 320 322 323
306 303 302 300 304 304 305 305 305 303 306 307 306 305 304 304 305 304 305 306 306 307 308 312 312 312 312 315 317 317 318 318 321 321 319 318 319 319 318 320 321 321 322 322 322
305 303 301 304 305 304 305 305 304 302 298 306 306 306 306 306 304 305 306 307 306 308 310 313 312 313 314 316 315 317 316 317 320 321 323 320 321 317 317 316 317 319 320 320 322
304 302 301 305 305 305 305 304 301 305 296 304 306 306 306 306 306 305 307 308 310 311 312 312 315 315 316 316 315 317 317 319 319 319 318 321 319 316 313 317 315 316 320 321 320
303 302 302 305 305 305 304 302 305 297 301 302 306 307 308 308 308 307 308 308 309 311 311 312 311 313 313 315 315 316 318 318 318 318 320 318 318 315 313 316 316 314 318 321 320
301 304 305 305 305 304 302 305 299 300 304 304 304 307 308 309 310 309 310 311 312 309 310 311 311 311 313 315 315 316 316 319 319 317 316 314 318 317 313 311 313 313 316 318 318
303 305 305 306 304 304 306 299 300 306 306 307 306 306 308 308 308 310 311 311 310 310 312 309 313 313 313 315 316 316 315 315 318 315 313 312 317 313 310 312 314 314 315 317 318
305 306 306 305 304 305 306 297 302 304 306 307 307 308 307 308 309 309 310 311 311 311 310 307 311 313 313 313 314 316 311 311 310 308 309 311 311 311 310 310 311 312 313 313 314
305 305 304 303 304 306 301 305 303 307 308 308 309 308 308 308 309 309 310 310 311 310 310 310 309 311 313 312 314 313 312 311 307 311 315 311 312 311 310 311 310 309 310 311 313
305 305 304 304 304 306 299 302 308 309 309 310 311 310 308 308 308 309 311 310 310 310 310 310 308 311 311 312 315 314 313 312 309 309 311 312 310 305 307 307 308 310 312 312 311
307 306 304 304 306 304 304 308 309 309 310 310 310 311 307 308 309 310 312 312 311 310 311 309 309 310 313 312 313 314 315 312 307 310 305 307 309 307 308 308 310 312 312 312 312
305 304 305 305 305 303 305 310 310 309 309 310 311 310 310 311 312 311 311 311 311 310 310 310 307 312 310 310 310 313 313 314 310 307 307 308 308 307 308 309 312 312 313 313 313
305 305 304 305 305 305 308 310 311 310 310 310 310 309 310 311 310 311 311 312 312 311 310 309 308 306 306 308 309 313 313 313 310 306 312 310 312 310 308 308 308 310 312 312 313
306 302 305 305 303 304 307 309 310 310 310 309 310 310 310 311 311 312 311 312 312 311 310 308 308 303 309 310 309 311 312 312 308 311 311 313 311 311 309 308 310 312 313 312 312
306 304 304 302 304 303 306 309 309 309 309 310 310 309 309 309 310 311 310 310 310 310 310 307 307 304 306 309 309 310 309 309 310 311 311 311 312 311 311 310 311 311 311 311 311
304 307 307 304 303 304 306 308 310 309 310 310 309 308 308 307 307 308 308 308 310 309 309 309 307 305 306 307 306 307 307 308 309 309 310 311 311 310 310 310 311 311 310 311 311

GFSSW_850_thetae_093.txt.gz
Theta_e
308 307 304 308 310 309 306 306 309 309 307 304 301 302 304 305 305 305 304 304 304 306 310 311 311 313 314 313 316 319 322 324 322 319 320 321 323 323 326 332 335 332 335 330 332
309 307 305 306 309 308 306 306 306 309 307 303 300 301 302 303 304 304 305 306 310 310 309 309 310 310 313 313 313 318 320 323 321 322 320 323 322 324 331 335 338 338 340 330 333
310 308 307 305 309 308 306 306 304 307 308 305 301 301 301 301 304 306 305 305 307 307 305 304 308 309 311 313 315 317 319 318 322 324 324 325 322 322 326 328 337 340 340 339 333
311 308 307 305 307 308 306 306 304 307 308 305 301 301 301 303 303 304 305 307 307 308 307 305 307 308 310 312 312 317 317 317 323 324 324 323 323 322 323 326 335 338 337 339 334
312 309 307 304 305 307 305 305 304 307 307 307 301 300 302 305 304 304 305 304 304 306 306 305 306 307 309 310 311 315 316 315 318 321 323 324 323 323 323 328 337 337 338 337 337
314 309 307 304 305 306 305 305 305 304 307 307 301 300 301 303 304 304 304 303 305 306 305 304 306 306 308 310 311 314 315 317 317 319 322 324 322 322 323 329 331 337 339 338 338
317 310 307 303 306 306 304 305 304 303 306 307 301 301 301 300 304 304 304 303 305 306 305 304 307 307 307 310 310 312 316 317 315 319 324 322 324 323 322 332 331 331 337 336 337
316 311 306 303 305 305 304 303 302 304 305 303 300 301 301 304 304 304 304 303 305 305 305 305 306 308 308 310 313 313 315 318 319 319 320 322 327 320 320 324 331 332 331 335 335
317 312 306 303 304 302 303 303 303 303 301 299 300 304 303 304 304 305 304 304 305 305 305 304 305 307 307 309 314 313 317 318 320 317 317 322 325 319 320 321 321 328 331 333 332
319 314 306 304 303 301 304 303 301 304 303 303 304 304 304 304 304 304 304 305 304 305 306 306 307 306 305 311 314 314 318 318 320 321 318 320 321 319 320 320 321 321 327 330 331
318 311 306 303 302 301 303 303 304 305 305 305 304 304 304 304 303 303 304 304 305 306 308 306 309 309 308 312 312 313 316 318 317 319 318 317 319 320 319 320 320 321 322 326 328
318 312 305 303 301 303 305 306 306 305 305 305 305 304 304 304 304 305 304 304 306 307 306 308 310 308 309 309 312 315 316 316 319 319 318 318 317 321 321 320 320 321 321 321 325
319 311 304 301 302 304 305 305 305 304 305 306 306 305 304 305 305 304 305 305 306 306 308 310 311 309 308 310 315 315 317 319 320 319 317 318 318 317 319 320 319 320 321 321 321
318 310 303 301 303 304 305 305 304 303 295 303 306 305 305 306 303 305 305 305 304 308 310 313 311 310 309 315 314 317 317 320 320 320 324 319 321 318 317 318 317 319 320 321 321
318 307 302 304 305 304 305 304 303 303 294 302 305 306 306 307 306 306 307 307 309 312 311 313 314 311 314 316 315 317 317 318 318 318 319 321 319 317 314 317 315 314 318 320 320
316 305 301 305 305 305 305 302 302 294 295 301 306 306 307 307 308 307 308 308 308 312 312 312 311 313 313 314 316 316 317 316 317 317 319 320 319 318 312 314 315 314 315 317 319
312 302 302 305 305 305 303 303 299 294 302 302 304 306 307 308 309 309 310 311 313 314 312 312 312 312 312 315 316 316 316 320 319 319 319 316 318 316 314 312 310 313 315 317 319
305 303 305 305 305 303 303 299 295 304 303 306 306 306 306 307 308 309 309 309 310 309 308 313 309 314 312 314 316 314 314 316 319 316 313 315 318 316 310 309 311 314 315 316 317
303 305 305 305 304 303 305 297 298 303 304 306 306 308 306 308 308 308 309 310 310 310 311 308 314 312 313 313 314 314 315 310 310 308 310 312 310 310 310 310 310 311 313 313 314
305 305 306 304 304 306 300 304 302 304 306 306 307 306 307 307 308 308 308 309 310 309 308 310 311 310 313 313 314 313 310 313 310 315 312 310 311 310 311 312 310 310 309 311 312
306 304 305 304 305 305 300 301 305 308 308 308 308 308 307 308 308 310 310 310 309 309 308 308 307 310 310 312 315 314 313 310 309 307 310 312 311 306 307 309 309 309 311 311 311
306 304 303 303 304 303 302 304 308 308 310 309 309 310 306 307 309 311 312 311 310 310 311 309 308 306 313 311 312 313 315 308 307 310 303 306 309 305 306 307 309 310 311 312 312
304 304 304 304 301 302 303 309 308 308 308 309 310 310 309 309 311 310 311 311 311 309 310 309 306 303 306 307 309 312 313 310 307 305 306 307 307 306 308 309 310 311 312 312 312
305 305 304 306 305 303 307 309 310 310 309 310 309 309 309 310 308 311 311 311 311 310 310 309 306 306 305 308 308 312 312 313 309 304 310 308 310 310 309 308 307 309 312 312 313
304 302 304 305 305 305 305 308 309 310 309 309 309 309 309 311 310 311 311 311 311 310 309 307 308 302 308 309 309 311 312 311 305 311 310 312 310 310 309 308 309 310 311 312 312
305 303 304 301 303 303 305 308 309 309 308 309 309 308 308 309 309 310 310 310 310 309 308 305 305 303 306 307 308 310 309 308 309 310 310 310 310 310 311 310 309 311 311 311 312
305 304 305 303 301 303 304 306 309 308 309 308 307 307 307 307 307 308 308 309 309 309 308 307 306 304 306 305 306 306 308 307 308 308 310 310 308 308 308 308 309 311 310 310 310

GFSSW_850_thetae_096.txt.gz
Theta_e
314 310 309 306 308 311 309 307 306 308 310 307 304 301 303 303 303 304 304 304 304 306 311 310 309 311 314 314 314 318 320 322 323 321 320 319 319 321 323 330 329 328 328 328 334
320 314 310 308 307 310 309 307 306 306 310 307 304 301 301 301 302 302 303 304 308 311 309 308 307 309 311 313 313 316 317 318 320 320 318 319 321 321 331 333 333 331 333 328 330
321 317 312 308 308 309 309 307 305 304 307 308 304 301 301 300 302 304 305 309 308 305 305 304 304 308 309 311 312 314 316 315 319 320 322 324 322 322 327 332 334 332 337 329 326
322 319 313 309 308 308 308 307 306 304 307 307 306 301 300 302 301 304 304 308 307 306 307 306 305 307 308 309 311 313 314 315 316 319 321 323 323 321 325 327 333 333 335 333 330
322 319 316 309 306 306 307 306 305 304 307 307 307 301 300 304 303 304 306 305 303 305 306 305 305 307 307 307 310 311 312 315 315 319 320 323 324 322 322 326 332 337 337 331 330
322 320 316 310 306 307 307 305 306 304 305 307 306 301 300 302 301 304 304 304 303 305 306 305 304 305 306 307 309 310 311 313 316 316 318 323 323 321 323 329 334 334 337 335 333
322 321 317 310 306 307 307 304 304 302 305 307 306 301 301 300 303 304 304 304 303 305 305 304 303 305 306 307 308 310 312 311 314 317 316 315 323 322 320 329 334 334 334 335 335
320 321 317 313 305 306 305 304 301 302 305 305 304 301 300 302 304 304 304 304 303 305 305 305 304 306 307 307 309 309 312 315 314 317 316 312 322 318 320 327 329 333 332 333 335
319 321 318 310 305 304 303 303 303 303 303 301 300 303 303 304 304 304 304 304 304 305 305 305 305 306 306 309 309 310 311 314 319 316 316 312 318 318 319 321 322 328 332 332 333
318 318 314 310 304 303 302 303 301 301 300 300 303 304 303 303 303 303 303 303 304 304 305 305 303 307 307 309 309 310 313 313 316 319 316 315 310 312 318 319 319 322 328 332 332
317 315 316 309 304 302 304 301 303 305 305 305 304 303 303 304 304 303 303 304 304 305 307 305 306 308 306 308 307 310 314 316 317 318 316 316 314 315 318 319 319 320 323 327 332
315 316 315 307 303 302 303 304 305 304 305 305 305 304 304 304 304 304 304 304 306 305 305 307 309 308 307 310 310 311 314 317 319 316 316 317 316 315 315 318 319 320 321 322 327
313 316 312 306 302 303 304 305 305 305 305 306 306 306 304 304 305 304 304 304 305 306 304 308 309 308 309 310 314 312 315 318 319 317 318 318 318 316 315 316 319 319 321 321 322
311 313 309 306 302 304 304 305 305 303 294 300 305 305 305 306 303 305 305 305 304 307 309 310 309 308 308 313 314 315 314 317 318 319 322 318 319 318 316 316 316 318 319 321 322
310 312 310 305 304 304 305 304 304 303 293 300 305 306 306 306 306 305 307 306 308 311 310 313 311 311 312 315 313 316 316 317 317 319 320 320 320 318 315 316 314 314 317 321 322
311 311 305 303 305 304 304 304 302 295 293 299 305 306 306 307 308 308 308 308 309 311 313 310 304 308 313 314 315 314 315 315 316 316 317 319 318 318 314 314 314 313 315 319 321
310 309 305 303 304 305 304 302 299 293 299 302 304 305 305 307 308 309 310 312 311 311 311 312 314 313 312 314 315 314 312 314 315 317 316 317 317 316 314 311 312 310 313 316 318
309 306 303 305 305 304 302 300 297 302 301 305 305 306 306 306 307 308 309 310 309 307 305 304 313 314 313 315 317 315 313 312 318 317 314 315 318 314 310 308 309 311 312 313 314
307 304 303 305 305 302 305 298 298 300 303 305 306 307 305 307 307 307 308 309 309 308 307 309 315 311 312 313 314 315 310 309 308 307 311 314 311 308 309 309 308 308 310 311 312
304 303 304 305 303 303 301 304 301 303 305 305 307 306 307 306 307 308 307 309 309 308 307 309 315 311 313 313 313 312 310 311 307 311 312 310 310 311 307 309 308 307 308 310 311
305 304 305 304 305 305 302 300 305 307 307 308 307 306 306 307 307 309 310 310 308 308 307 307 307 311 310 312 314 311 312 309 308 307 311 311 310 306 306 305 308 307 310 311 311
303 304 304 304 304 304 304 303 307 308 309 309 308 307 305 307 308 310 311 310 309 308 310 308 306 310 313 310 311 312 313 307 308 310 302 305 309 304 305 307 308 309 311 312 312
302 303 304 305 303 303 302 307 308 308 308 309 310 309 307 308 311 310 310 310 310 308 309 308 305 302 306 307 308 311 312 308 305 304 305 305 307 305 306 307 309 310 311 312 312
303 305 303 304 305 301 305 308 309 309 308 309 308 308 308 309 307 310 311 310 311 310 309 307 304 305 304 307 308 312 312 311 307 304 308 306 309 309 307 307 307 309 311 311 312
304 303 304 304 305 304 305 308 308 309 308 308 309 308 308 310 309 311 310 310 310 309 307 305 307 302 307 309 308 311 311 310 304 309 308 310 309 309 308 308 309 310 310 311 312
303 302 303 301 304 305 305 307 308 308 308 309 308 308 308 309 308 309 309 309 310 308 307 304 305 302 305 305 307 309 308 308 309 310 309 309 309 308 309 309 309 310 310 310 311
304 303 304 303 300 305 303 306 308 307 308 308 307 306 307 307 307 308 307 307 307 308 307 306 305 304 305 304 305 305 307 307 307 307 309 310 307 304 304 305 307 308 309 309 310

GFSSW_850_thetae_099.txt.gz
Theta_e
322 322 320 317 312 308 311 310 308 306 307 310 307 304 300 301 302 302 303 303 303 305 311 310 308 310 312 313 313 316 318 319 320 321 321 319 319 320 320 327 327 326 325 324 325
322 323 322 320 315 308 310 310 308 306 305 309 307 303 300 300 300 300 301 304 308 311 310 308 307 307 310 312 313 313 316 316 317 319 320 319 319 320 324 328 330 327 328 327 326
323 323 321 318 317 309 307 309 308 306 304 308 307 304 301 300 300 304 306 308 308 305 305 305 303 304 308 310 312 313 314 314 314 316 320 322 323 322 322 327 329 328 332 329 328
320 321 321 319 316 309 306 309 307 305 304 308 308 305 301 301 301 304 306 308 308 306 305 306 304 306 308 309 309 311 311 312 314 315 319 320 322 323 321 324 325 330 331 327 326
318 320 320 319 316 311 307 308 307 305 304 307 308 305 300 302 301 304 307 307 304 303 304 305 305 305 305 306 308 310 311 311 313 313 316 320 322 322 323 323 324 330 331 328 327
316 318 320 320 318 312 307 307 305 306 304 306 307 305 300 300 300 303 304 304 303 303 305 305 305 304 305 305 307 308 308 309 310 314 316 319 320 319 322 321 324 330 332 329 327
310 314 319 317 312 308 308 307 304 304 304 306 307 305 301 300 300 303 304 303 304 302 304 305 304 303 305 306 306 307 309 310 310 311 317 316 319 318 318 320 322 328 332 331 328
309 315 317 316 312 308 304 304 302 303 304 306 306 303 300 300 301 303 303 303 303 303 304 305 305 304 304 305 307 307 308 312 311 311 316 316 319 317 313 317 320 327 332 333 331
306 312 316 315 311 307 303 302 303 305 305 305 303 300 302 303 304 303 304 304 304 304 304 305 305 304 304 308 306 308 310 313 314 312 315 315 316 317 313 314 319 320 330 332 332
307 311 315 314 310 306 302 303 304 303 301 300 301 303 302 303 303 303 303 303 303 304 304 305 305 306 307 309 307 310 309 312 316 316 314 313 313 311 312 314 318 319 323 331 332
304 310 315 313 310 306 303 303 303 305 303 304 303 303 303 304 304 303 303 303 304 305 304 305 305 307 305 306 307 310 309 311 315 317 315 315 314 313 313 313 315 319 320 329 331
303 310 313 313 309 306 303 301 304 304 304 305 304 304 304 304 304 304 304 304 305 304 305 305 308 307 306 306 307 307 310 315 316 316 316 316 317 315 314 314 315 318 320 325 329
304 309 312 311 306 307 303 302 305 305 304 305 305 306 305 304 305 304 304 304 304 304 304 306 308 308 308 308 309 306 312 316 316 317 316 317 318 317 316 316 315 317 318 320 324
304 307 311 308 307 304 303 303 305 304 294 300 305 305 305 305 304 304 305 305 306 307 307 308 307 310 308 309 311 313 313 316 317 319 322 318 320 318 317 317 316 315 318 320 320
305 305 309 307 306 305 304 305 304 304 293 299 304 305 306 307 307 307 306 306 308 308 307 312 311 308 312 312 313 313 315 316 317 319 319 319 319 318 315 319 318 315 317 320 321
303 306 308 307 306 304 305 304 303 295 293 299 305 305 306 307 308 308 308 307 307 308 307 307 306 309 313 313 312 314 315 315 316 316 319 319 317 316 318 317 315 313 315 319 321
304 308 307 307 305 304 304 302 299 295 299 302 303 305 305 306 308 309 310 311 310 310 311 311 311 312 312 316 314 313 312 316 316 317 318 312 317 316 313 314 312 312 311 313 321
305 307 306 305 303 304 302 300 297 301 300 304 305 305 305 306 307 307 308 308 308 305 308 313 317 313 313 315 316 314 311 313 317 318 316 315 317 315 308 308 308 309 310 312 315
304 306 304 304 304 304 303 297 299 299 302 305 305 305 305 306 307 306 307 308 308 307 308 314 315 312 313 313 314 314 311 309 309 308 315 312 312 308 308 308 307 307 308 309 312
306 304 304 303 304 302 299 303 301 301 304 304 305 305 307 305 307 307 306 308 308 306 307 309 317 312 312 313 313 312 309 311 310 313 312 311 310 311 308 307 307 308 307 309 311
304 302 303 304 303 303 298 300 304 305 306 307 306 306 305 307 307 308 308 309 307 308 305 306 309 312 311 312 314 314 313 308 307 307 312 311 311 306 306 305 307 308 309 310 311
303 303 304 304 303 302 303 302 306 307 308 308 307 306 306 306 308 309 310 310 309 308 309 307 307 311 312 309 309 311 312 306 310 311 303 307 310 304 306 307 308 309 310 311 311
302 303 304 304 304 303 302 306 307 307 308 309 309 308 305 308 310 309 310 310 309 308 309 307 305 305 308 307 308 310 310 306 305 305 306 309 310 305 306 307 307 308 311 311 311
303 303 303 305 303 301 304 307 308 308 307 308 307 307 308 308 306 309 310 310 310 309 309 306 304 304 304 307 307 311 311 309 306 307 309 307 309 308 307 307 308 309 309 310 311
304 304 303 304 304 302 304 306 308 309 308 307 308 308 308 309 309 310 310 309 309 308 306 305 306 301 305 307 307 310 310 310 304 308 309 309 309 309 307 306 307 307 308 309 310
303 302 303 302 304 303 305 307 307 307 308 308 307 307 307 308 308 309 309 309 309 306 306 303 305 301 305 305 305 309 307 307 309 309 310 309 310 306 305 307 308 308 308 308 308
303 303 303 303 303 306 305 305 307 306 307 307 306 306 307 307 307 307 307 306 306 307 306 305 304 304 306 304 305 306 306 307 307 307 308 309 306 304 305 306 307 305 306 306 307

GFSSW_850_thetae_102.txt.gz
Theta_e
321 321 323 321 321 319 313 309 311 309 307 306 310 307 303 301 301 301 304 305 304 305 309 310 309 310 311 312 314 315 319 318 316 317 318 318 321 321 322 321 324 328 327 327 324
317 320 322 321 321 319 315 308 311 309 307 305 309 307 302 301 300 300 301 302 307 310 310 308 307 308 309 311 312 314 316 315 315 315 317 317 320 321 321 321 322 326 328 329 324
314 317 319 320 320 319 315 308 309 309 306 305 308 307 305 301 302 304 303 306 311 308 305 305 305 305 308 309 310 311 313 313 313 314 316 318 320 320 320 322 322 323 327 330 324
311 314 317 320 320 319 314 308 309 308 305 304 308 308 305 300 304 305 309 308 309 308 305 306 306 305 306 307 307 311 310 311 311 313 315 317 319 320 322 320 322 324 327 330 326
307 312 315 318 319 316 313 309 307 306 306 305 307 307 304 304 303 303 309 308 307 304 304 305 305 305 305 305 306 307 308 308 310 311 312 314 318 320 322 322 323 323 324 329 327
306 309 313 314 319 316 312 309 305 305 306 304 306 307 303 303 300 302 304 305 304 303 305 306 305 305 305 305 306 305 306 306 309 310 312 313 317 319 320 320 322 322 324 329 327
306 307 314 314 318 315 309 308 304 304 304 303 307 307 304 303 300 303 303 304 303 304 304 305 305 305 305 305 305 305 307 308 308 308 312 313 316 319 318 318 321 322 323 326 328
304 305 310 312 316 313 309 307 305 302 303 303 307 306 303 300 300 303 304 303 303 303 303 305 305 305 305 305 306 308 307 308 308 311 311 315 315 315 317 317 318 320 322 326 329
303 305 309 311 315 313 310 308 304 305 306 306 306 304 302 302 302 304 304 304 305 304 304 305 306 305 303 307 310 307 306 306 308 311 313 316 316 317 315 315 316 318 318 322 329
302 303 308 312 314 311 308 304 304 306 305 305 301 303 304 304 303 303 303 303 304 305 305 305 306 306 307 307 310 307 307 306 309 312 314 316 317 316 315 315 315 316 318 322 328
301 303 311 314 313 310 308 305 303 304 302 304 305 304 303 303 304 304 303 303 304 304 304 304 306 308 307 308 308 308 307 308 311 311 314 315 316 316 316 316 316 316 318 322 327
302 303 308 311 309 308 305 304 303 304 306 303 304 304 304 304 305 304 304 305 305 306 304 306 307 307 307 307 307 309 310 311 314 315 315 317 318 317 317 316 315 316 318 321 328
300 305 309 310 309 308 306 305 305 304 306 306 305 305 305 304 306 306 304 305 305 306 306 307 307 305 308 306 307 309 310 312 316 317 317 318 319 319 318 316 316 317 317 319 324
301 306 310 308 307 308 305 304 305 304 308 305 306 306 305 305 307 305 304 305 306 308 308 308 307 308 309 308 308 310 309 313 316 319 322 319 322 319 319 318 318 317 318 320 322
302 304 308 309 310 307 306 303 305 304 310 303 306 305 306 308 308 308 306 306 306 307 306 311 309 308 309 310 310 312 311 316 318 319 320 319 320 318 317 320 319 318 318 319 320
301 303 307 308 308 306 304 304 303 307 306 306 306 307 308 308 308 309 308 306 306 306 309 309 308 310 313 312 311 314 315 316 317 318 321 318 319 320 319 318 318 317 318 317 320
302 304 306 308 308 306 305 304 309 309 302 307 308 307 308 309 309 310 311 312 312 315 313 311 313 312 313 315 315 316 318 320 319 321 319 317 319 316 315 316 315 315 313 312 319
302 306 307 306 306 304 304 306 310 304 306 305 307 307 310 309 309 309 312 314 312 311 315 317 318 314 314 316 316 316 315 318 318 318 319 318 322 316 312 310 310 309 310 312 313
305 306 306 305 304 304 304 310 310 306 306 308 307 309 310 308 309 310 311 313 312 311 315 316 317 313 314 315 316 316 316 311 315 316 319 315 313 312 312 311 311 310 311 311 312
305 306 304 303 304 303 307 308 308 303 306 306 308 308 310 310 311 311 312 311 312 311 309 312 319 313 312 314 315 315 311 316 317 319 317 314 314 315 312 311 312 312 311 311 311
304 303 304 303 303 303 308 307 307 306 306 308 308 309 309 310 311 312 312 311 311 312 310 310 315 315 314 316 316 317 315 312 312 313 315 315 315 311 311 310 313 312 311 311 311
304 304 303 303 304 304 306 305 306 307 308 310 308 308 310 309 312 312 313 312 310 310 312 310 314 317 316 312 311 313 314 312 317 314 311 315 315 311 311 312 312 312 311 311 311
303 303 303 303 306 305 304 307 308 309 310 310 311 309 308 311 312 312 312 311 310 311 312 310 312 317 316 313 312 315 314 313 311 314 313 316 315 310 311 312 311 311 311 311 311
304 304 304 303 303 304 307 309 309 308 310 309 309 309 310 311 311 312 312 312 311 310 308 309 310 311 314 313 312 314 314 313 313 321 314 315 313 313 312 311 310 309 310 310 310
304 305 304 306 305 305 306 309 309 310 309 308 310 310 311 311 311 312 312 311 311 308 309 311 312 309 310 310 311 313 313 313 314 312 316 313 313 310 309 310 309 309 309 309 309
304 304 303 304 304 305 307 310 309 309 310 310 311 309 310 311 310 311 311 311 312 311 310 309 312 309 311 309 310 311 310 310 312 312 313 313 312 309 309 309 308 308 308 308 308
303 303 304 303 304 306 308 309 309 309 308 307 309 310 311 309 308 307 307 307 308 310 311 310 311 311 313 308 308 311 308 309 310 310 310 311 310 309 309 308 307 308 307 307 307

GFSSW_850_thetae_105.txt.gz
Theta_e
315 316 318 320 321 321 321 317 312 311 310 307 307 310 307 303 300 306 306 307 307 307 307 311 310 310 311 312 313 315 317 318 316 316 316 316 319 321 321 323 323 323 324 329 327
310 312 315 318 322 321 321 318 312 310 309 306 307 309 308 306 302 305 304 302 303 308 311 309 308 309 309 310 311 314 316 315 314 315 316 316 316 318 319 322 322 323 324 329 328
308 308 314 315 318 320 319 318 311 309 308 305 306 308 307 305 305 304 304 301 310 309 309 308 307 306 308 308 311 312 314 313 313 313 314 315 316 318 319 321 321 323 322 328 329
305 307 310 314 316 319 318 315 312 308 306 306 306 309 308 305 307 308 309 311 310 309 307 306 306 306 306 308 309 310 310 311 311 312 313 316 317 318 319 320 319 321 325 326 328
305 307 309 312 315 319 317 315 311 307 306 306 306 307 307 306 305 305 306 309 309 307 304 304 305 305 305 305 305 306 308 309 309 310 311 313 315 317 318 319 321 322 323 325 328
304 305 306 312 313 318 317 315 311 306 307 306 305 306 306 307 302 305 306 307 305 305 305 305 305 305 306 305 306 305 305 306 306 308 310 311 312 314 316 318 321 322 323 324 326
304 304 305 312 312 317 316 313 311 307 305 305 306 307 307 307 302 304 304 304 305 305 305 305 305 305 305 306 305 306 307 306 306 307 309 310 312 313 314 317 320 320 321 322 324
304 302 303 309 312 316 314 313 310 304 302 302 308 307 307 303 303 302 304 305 305 305 305 305 305 305 305 306 306 307 308 309 307 306 308 309 313 312 312 318 318 319 321 321 322
303 301 300 308 309 313 312 311 307 305 305 306 307 308 305 303 303 303 304 305 305 306 306 305 306 306 306 306 307 307 309 308 307 306 309 310 313 313 315 318 318 319 319 319 321
303 299 308 308 310 313 311 309 305 307 306 306 305 305 304 305 305 304 304 304 305 305 306 306 306 306 306 306 308 310 309 307 307 306 309 311 314 316 317 318 318 318 319 319 323
303 299 308 312 312 312 310 305 305 305 305 305 306 306 304 304 304 305 305 305 305 305 306 305 306 307 306 307 308 309 308 307 307 306 311 312 314 315 316 317 317 317 318 320 322
302 299 307 310 311 306 308 305 306 307 307 304 306 305 306 306 306 306 305 306 306 307 306 306 307 306 308 308 310 311 309 309 309 309 311 313 315 314 316 316 316 317 317 319 322
301 300 306 308 308 308 306 304 303 305 308 307 306 307 307 306 307 307 306 307 307 308 308 308 308 307 308 309 309 309 310 310 312 312 313 313 316 318 318 317 316 317 316 319 321
301 304 306 309 308 306 306 305 305 305 312 308 308 308 307 306 308 308 305 306 307 308 308 309 307 308 309 309 308 309 309 309 314 315 318 317 319 319 319 319 318 317 319 321 322
301 302 308 308 309 307 308 304 305 305 315 307 308 307 308 308 310 309 306 305 308 309 306 312 309 309 311 309 308 311 312 311 316 318 321 321 323 319 319 320 320 320 319 321 321
301 303 306 308 308 307 304 304 304 315 312 309 308 310 309 310 311 311 309 306 306 307 309 309 308 309 311 312 310 311 313 314 317 319 320 319 321 322 317 318 320 317 320 321 321
300 302 306 307 307 304 304 304 313 315 304 309 310 309 311 312 311 311 313 312 314 316 317 313 313 312 313 314 311 310 317 322 322 322 320 319 320 320 313 312 315 315 312 319 320
301 303 305 306 306 304 304 307 316 307 309 308 309 310 312 311 312 312 314 316 312 313 316 318 316 312 314 316 317 312 317 320 323 322 321 318 319 317 314 312 311 311 312 314 317
304 306 306 306 305 304 305 313 312 309 308 310 309 312 312 311 311 312 314 314 313 312 317 318 318 314 315 316 316 317 316 312 318 317 319 318 315 315 313 313 313 313 312 313 314
305 305 304 304 303 304 309 310 310 306 308 309 311 311 312 312 313 313 314 313 314 312 311 315 317 315 316 316 317 314 312 318 321 320 318 318 318 317 314 313 313 313 312 312 312
305 304 303 303 304 305 311 310 309 307 308 310 310 311 311 312 313 313 313 313 313 313 312 313 317 317 316 317 316 317 317 315 314 315 316 317 316 312 312 314 314 313 313 312 312
304 305 303 303 306 307 309 308 307 308 310 311 310 311 312 312 313 313 314 314 312 312 313 312 316 318 317 314 312 314 315 315 320 315 316 316 315 313 313 313 313 313 312 312 312
303 303 303 304 309 308 308 309 309 310 311 311 312 311 311 312 314 313 313 312 312 313 313 311 314 318 317 316 314 315 314 314 314 319 316 318 315 313 314 313 312 312 312 312 312
305 305 303 305 305 307 309 310 309 310 311 310 311 311 312 312 312 313 313 313 312 311 309 311 313 315 318 316 314 315 314 314 317 323 317 315 315 313 311 312 311 311 311 311 311
307 305 305 306 307 307 307 310 309 311 311 310 311 312 312 312 312 312 313 312 312 310 311 314 314 312 312 312 313 313 313 314 315 315 317 315 313 312 311 311 310 310 310 310 310
308 306 305 305 306 307 308 311 309 310 311 311 312 311 312 312 312 312 312 312 313 312 312 312 313 311 312 311 312 311 311 313 313 314 314 314 312 311 310 309 309 309 309 309 308
305 305 307 305 306 307 309 311 310 310 310 310 311 312 312 311 310 310 310 310 311 312 312 312 313 314 314 310 310 313 310 311 311 310 312 313 312 310 310 309 309 309 308 306 305

GFSSW_850_thetae_108.txt.gz
Theta_e
310 313 315 315 316 320 321 321 320 314 312 309 306 309 309 307 303 306 308 308 309 308 305 312 311 310 311 311 314 315 316 317 316 316 316 316 315 316 320 321 322 322 323 326 329
308 309 308 311 315 318 321 320 320 315 312 309 305 308 309 307 305 307 306 305 304 302 308 311 309 309 309 310 311 313 316 315 314 313 313 315 315 315 316 319 321 322 323 324 327
307 307 308 309 314 316 318 319 319 316 311 307 305 308 308 307 307 308 306 304 302 307 310 308 307 307 307 308 310 311 313 313 313 313 313 313 314 314 316 318 320 321 321 325 326
306 307 306 308 312 315 319 319 318 316 313 306 305 308 308 306 308 310 303 307 310 309 308 306 306 306 307 306 307 309 310 311 311 311 311 312 313 314 316 317 319 321 321 324 326
305 306 305 306 310 314 318 318 318 314 312 306 306 308 307 308 307 306 309 309 310 308 305 304 305 305 305 305 305 305 306 307 307 309 310 310 311 312 314 316 318 320 321 321 324
304 305 305 305 310 313 317 318 317 313 309 306 307 306 307 307 304 306 307 308 307 306 305 305 305 305 305 305 305 305 305 305 305 306 306 309 310 311 311 312 314 318 322 322 324
304 303 301 306 311 311 315 316 315 311 307 306 305 307 308 306 303 304 306 305 305 305 305 305 305 305 306 306 306 306 307 307 307 306 306 307 308 310 311 311 313 319 320 320 323
305 304 301 303 310 313 315 315 312 311 305 304 307 307 308 306 305 304 304 304 305 305 305 305 305 305 305 305 306 306 306 307 307 307 306 306 308 310 310 310 312 315 319 320 320
305 304 300 300 308 310 312 313 311 304 303 305 308 308 306 304 302 303 304 305 305 306 305 305 305 306 306 306 306 306 306 307 307 308 308 305 307 307 308 310 311 317 317 318 320
304 303 301 308 305 310 311 310 306 307 306 307 307 306 305 306 305 305 305 305 305 306 305 306 306 306 306 307 304 306 308 310 309 308 308 306 308 308 310 312 312 317 318 318 319
303 302 303 310 309 309 311 307 307 307 307 306 306 306 305 305 304 305 305 305 305 305 305 305 306 305 305 306 305 306 308 308 308 308 307 305 309 309 314 317 317 318 318 318 319
301 301 302 306 309 310 309 306 306 307 306 305 306 306 306 306 307 306 305 305 306 306 305 307 307 306 306 307 308 309 309 309 309 309 308 307 309 311 312 314 317 317 318 318 319
301 301 300 306 307 308 308 306 305 306 308 306 306 307 308 307 307 308 306 307 307 309 309 309 308 308 308 308 308 309 309 309 310 310 309 310 311 313 313 314 315 316 317 317 318
301 301 303 307 308 308 307 304 305 306 312 307 308 308 307 307 308 308 307 307 307 308 309 309 307 308 308 308 308 309 309 309 310 311 314 311 313 314 316 318 317 316 317 318 321
301 308 308 307 307 308 308 305 304 305 316 308 308 307 308 309 310 309 307 306 308 309 307 311 310 308 307 309 309 308 309 314 310 314 314 315 317 318 318 319 318 318 319 321 321
301 306 307 308 308 308 306 305 304 310 309 307 309 310 310 309 311 309 308 307 307 308 308 309 309 309 310 312 312 311 312 313 310 313 320 319 320 319 316 314 318 316 320 321 323
300 305 307 307 306 305 304 305 310 314 305 309 310 310 311 313 312 312 313 312 313 314 311 313 312 311 312 314 312 311 313 319 321 321 323 318 319 316 315 312 314 314 316 321 324
300 304 307 307 307 304 305 308 310 308 310 309 310 311 312 312 312 312 315 315 313 313 315 315 311 313 315 313 313 314 316 319 322 323 323 317 318 317 313 313 314 313 314 320 321
303 302 305 306 306 304 307 313 311 310 309 311 310 312 313 312 311 313 314 314 313 312 315 318 316 314 314 315 316 317 316 313 319 317 319 320 316 315 312 312 313 314 316 317 317
302 305 305 305 305 304 310 310 309 307 309 310 312 311 312 312 313 313 315 313 313 312 311 314 317 315 316 316 316 316 313 316 317 322 321 320 316 317 313 311 313 312 312 312 312
305 304 303 304 304 306 312 310 309 307 309 311 311 312 311 312 313 313 313 313 312 312 312 313 316 316 316 316 315 316 315 314 313 314 315 318 317 314 313 312 312 312 312 311 311
304 305 304 304 307 308 310 308 308 309 311 311 311 311 312 312 313 313 313 313 312 312 313 312 314 316 317 314 312 313 313 313 313 317 313 314 316 312 311 311 312 312 312 312 312
304 303 303 305 311 309 308 309 309 311 311 312 312 312 312 312 314 313 312 312 312 312 311 311 312 313 316 314 313 314 313 313 314 315 313 313 315 312 309 310 311 311 311 311 311
305 305 304 305 307 307 310 310 309 310 311 311 311 312 312 312 312 313 313 313 312 310 310 311 312 313 311 314 314 313 313 313 314 312 314 313 312 310 309 310 310 310 310 310 309
308 305 305 307 307 308 309 310 309 311 311 311 312 312 311 311 312 312 312 312 312 311 312 312 312 308 311 312 312 311 312 312 311 313 312 311 311 310 308 308 309 309 309 308 307
309 307 305 307 306 308 308 311 309 310 311 311 312 312 311 312 312 312 311 311 311 311 312 311 311 311 311 310 311 309 310 311 311 312 311 311 311 309 309 309 309 309 307 306 304
307 307 307 306 307 308 309 311 310 310 310 310 310 312 311 310 310 310 310 310 310 310 311 311 311 311 313 310 309 311 308 309 309 309 311 312 310 308 308 309 309 309 307 305 303

GFSSW_850_thetae_111.txt.gz
Theta_e
307 308 310 310 314 315 317 320 321 320 317 312 309 305 308 308 306 304 306 308 309 309 306 311 310 310 311 311 313 313 314 316 315 315 315 314 313 313 314 314 315 320 323 324 324
305 307 307 309 310 314 316 319 320 320 317 313 309 305 308 307 305 306 306 306 306 305 307 311 309 309 309 309 310 311 313 314 313 312 312 312 311 311 313 315 317 318 326 326 325
306 306 306 307 308 313 316 319 319 319 318 314 309 306 308 306 307 307 309 306 302 308 309 309 308 307 306 307 308 310 311 312 312 312 312 312 311 311 312 314 316 319 322 325 326
305 305 306 306 307 311 315 318 317 318 317 316 307 306 308 306 308 308 303 305 307 308 307 306 305 306 306 304 305 306 307 309 310 310 310 310 310 310 310 311 313 315 320 323 324
304 306 305 305 305 309 314 317 318 318 316 313 306 308 306 307 307 307 310 311 307 305 305 304 304 305 304 304 304 303 303 304 305 305 305 306 306 309 309 310 311 313 315 320 321
304 306 305 304 306 310 314 316 317 316 314 309 306 307 307 304 306 305 307 307 307 304 305 305 305 305 304 305 304 304 305 305 306 306 305 305 305 306 307 309 310 311 311 320 321
305 306 305 300 307 311 312 315 313 314 311 306 306 306 307 303 304 305 307 306 305 305 305 305 305 305 305 304 305 305 305 305 305 306 306 306 305 305 306 307 309 310 311 317 320
304 305 304 300 305 311 313 313 313 312 307 304 306 308 307 307 306 304 304 304 305 305 304 305 304 304 304 305 305 305 304 304 305 306 306 306 306 304 306 307 309 310 310 312 317
304 304 303 301 301 309 312 313 311 309 303 306 307 308 306 304 304 303 304 304 305 305 305 305 305 305 305 305 305 304 302 304 306 306 306 307 306 305 305 306 308 309 309 310 317
304 304 302 304 305 308 311 309 305 304 307 307 307 306 304 305 303 303 303 305 305 306 306 305 305 303 304 306 303 299 305 305 307 307 307 308 307 305 305 306 306 306 308 311 317
304 302 305 310 307 310 310 308 308 307 307 306 305 305 305 305 304 304 305 305 305 304 304 305 304 303 303 304 304 304 305 305 305 307 308 307 307 306 306 308 308 310 307 315 317
301 301 306 309 308 310 309 307 305 306 305 306 305 306 306 306 306 306 305 305 305 304 305 304 306 305 305 305 305 307 308 308 307 307 308 308 308 307 307 308 308 311 314 317 318
301 301 302 309 308 309 308 307 305 306 306 305 306 307 307 306 307 306 305 306 307 308 307 306 306 307 307 308 308 307 307 308 306 308 308 308 307 307 307 308 309 311 315 317 317
302 300 301 307 306 308 308 304 305 306 305 307 307 308 307 307 308 307 306 307 307 307 308 307 307 307 309 309 308 308 307 310 311 309 306 308 311 310 309 309 311 312 315 316 317
305 305 306 307 307 307 308 306 305 305 304 307 308 308 308 309 309 308 308 307 309 309 307 310 309 310 307 307 307 308 308 309 310 312 311 311 313 316 315 316 315 314 315 316 319
306 306 307 307 308 308 308 304 305 305 300 302 308 309 309 309 310 308 307 307 308 308 308 308 309 309 309 310 311 312 311 312 311 312 314 315 314 317 314 314 313 315 317 319 320
305 307 307 308 306 306 305 305 303 299 302 306 307 310 310 311 311 311 311 311 313 312 307 312 311 309 310 313 313 312 312 316 315 314 320 315 316 315 312 314 314 314 313 321 323
306 306 306 306 304 304 305 302 300 306 306 309 310 310 310 311 311 313 314 314 313 312 310 313 307 312 314 313 312 312 314 318 321 320 321 316 317 314 311 313 314 314 316 319 321
303 306 306 306 304 305 307 301 302 307 308 310 309 310 310 310 310 311 312 312 312 310 312 314 312 313 313 314 315 317 318 313 318 318 316 317 315 313 309 312 314 316 314 313 314
303 306 305 305 305 305 302 306 304 307 308 309 310 309 310 311 311 312 313 311 312 311 311 313 315 314 315 315 315 317 314 316 315 320 321 317 316 315 310 311 312 313 312 312 312
306 305 305 304 305 306 302 305 307 308 310 310 310 309 310 311 310 311 312 312 311 311 310 311 315 313 314 314 314 313 314 313 312 313 318 318 318 307 309 313 312 310 311 311 310
304 304 305 305 305 304 304 307 308 308 310 310 309 310 310 310 310 311 313 312 311 311 312 310 312 309 315 312 311 311 312 311 311 315 312 313 315 312 311 311 311 310 310 310 310
304 303 304 305 301 302 307 308 309 310 310 310 310 310 310 311 312 311 312 312 311 310 309 309 309 307 309 308 308 312 311 312 312 309 310 311 316 310 309 309 309 309 309 309 309
305 303 304 305 306 305 308 308 309 310 310 310 310 310 310 310 310 311 311 312 311 310 310 310 309 309 308 310 311 310 311 310 309 307 311 310 309 308 308 308 308 308 308 307 306
306 302 304 299 304 306 306 308 309 310 310 310 310 310 310 310 310 310 310 309 311 311 310 309 309 305 310 311 311 308 310 310 307 310 307 309 309 307 307 306 307 308 306 304 303
307 305 305 305 306 306 307 309 309 309 310 310 310 309 308 310 310 310 309 309 310 308 309 307 308 309 310 309 308 308 307 309 310 310 309 309 309 306 307 308 308 306 305 303 302
307 306 306 305 303 304 305 309 309 310 310 309 309 309 309 309 308 309 309 309 309 309 308 308 307 306 310 309 308 308 308 308 308 308 309 310 308 306 307 307 307 307 305 303 301

GFSSW_850_thetae_114.txt.gz
Theta_e
307 306 307 308 310 313 316 317 321 320 320 318 315 307 308 308 305 303 306 307 308 307 310 311 310 310 311 312 312 312 314 314 314 315 315 314 311 311 311 311 313 318 327 326 329
306 305 307 306 309 310 314 316 319 319 319 318 317 307 308 307 305 307 306 309 306 306 307 310 308 309 309 309 310 310 312 313 312 312 311 311 311 311 311 311 313 315 321 328 328
308 305 306 306 306 308 313 315 316 318 319 318 315 307 308 305 307 309 310 309 304 305 310 308 307 307 307 307 307 308 310 310 311 311 311 311 310 310 310 311 310 312 312 323 325
307 305 304 305 305 306 312 315 317 318 317 317 313 307 308 305 309 306 310 310 308 309 308 306 305 305 305 304 304 304 305 306 307 307 306 306 306 306 307 308 309 310 310 312 323
307 305 306 303 304 305 311 315 316 317 317 316 310 307 306 306 308 307 311 309 307 304 304 304 304 304 303 304 304 303 303 305 305 305 305 305 305 304 305 305 307 309 310 310 311
306 305 306 304 302 306 310 315 317 317 316 313 307 307 307 304 307 310 305 306 305 304 304 304 305 305 304 304 303 304 304 304 304 304 305 305 305 305 305 305 305 307 309 310 311
305 305 306 303 306 310 311 314 315 316 311 307 307 306 304 304 306 306 306 307 305 304 305 305 304 304 304 304 304 304 303 303 303 304 305 305 305 305 305 305 305 306 307 309 310
305 305 305 303 304 311 313 314 313 313 307 306 306 307 306 304 305 306 306 305 305 303 304 305 305 304 303 304 304 303 303 303 303 305 305 305 304 304 304 304 305 305 306 308 309
305 304 303 301 301 310 313 313 312 307 305 306 306 307 305 305 305 304 304 304 305 305 305 304 305 304 305 303 300 302 301 302 304 306 306 305 305 305 306 305 304 304 305 307 308
305 303 302 303 302 312 312 312 306 304 307 307 307 305 304 304 303 303 304 304 305 305 305 305 305 300 301 297 299 298 299 302 303 304 304 305 306 306 307 305 304 304 304 305 305
302 304 309 305 301 309 307 306 307 307 306 305 305 305 305 304 304 303 304 305 305 305 304 305 302 301 300 303 302 303 303 304 304 305 305 306 306 306 307 306 303 304 305 306 307
301 309 309 308 307 308 309 308 307 306 305 305 305 305 305 306 305 304 305 305 305 302 304 302 304 302 304 303 304 305 306 306 305 306 306 306 307 307 307 305 305 305 306 306 308
300 308 308 308 309 308 309 307 305 305 304 305 306 307 306 306 307 306 305 305 306 306 306 305 304 307 306 306 306 306 305 306 305 306 307 307 306 307 306 307 307 307 308 311 312
300 306 308 307 308 308 308 305 306 306 300 306 307 307 307 307 307 306 306 307 307 306 306 307 305 306 308 308 307 307 306 307 308 311 306 305 305 307 312 310 307 307 307 309 312
300 307 306 306 307 308 307 305 306 305 300 306 308 307 308 308 308 308 308 307 308 308 306 307 308 308 309 307 307 307 308 309 310 314 312 308 304 311 314 313 311 310 314 313 311
305 305 306 307 307 308 307 304 305 300 301 302 308 307 308 308 309 308 307 307 308 308 307 307 308 308 309 308 308 309 312 311 312 312 311 311 309 316 314 312 310 311 314 316 315
307 307 308 307 307 307 304 305 300 300 301 305 307 309 309 310 311 310 311 310 312 310 303 310 310 309 309 311 313 312 311 314 313 312 313 316 315 314 309 309 313 313 313 317 319
307 306 306 306 305 305 306 299 301 305 304 307 308 309 309 310 310 313 313 312 310 312 309 312 307 311 312 313 311 312 312 317 319 317 318 317 316 313 310 314 315 315 314 315 316
306 306 306 304 304 305 306 299 301 306 307 309 309 309 309 310 310 312 311 311 311 309 311 312 309 311 312 314 313 317 318 313 317 318 314 317 314 311 309 310 313 313 312 313 314
306 306 306 305 305 306 301 305 304 305 308 308 309 308 310 310 310 310 311 311 311 310 310 312 314 313 314 314 314 316 314 316 314 319 316 314 315 313 309 308 309 310 312 311 311
306 306 305 305 306 306 301 304 307 308 309 309 310 309 309 310 309 310 311 311 310 310 309 311 313 313 313 313 313 312 313 312 312 316 317 317 317 308 307 307 310 311 310 309 309
305 300 306 306 305 301 304 307 308 308 310 310 308 309 310 310 310 310 312 310 311 310 311 309 310 309 312 311 310 310 311 310 311 313 311 314 314 311 311 310 310 309 308 308 308
304 304 305 306 301 301 306 307 308 309 309 309 309 309 309 310 311 310 311 311 311 310 309 309 308 306 305 306 308 310 309 309 309 306 310 312 314 309 309 308 308 307 307 306 306
305 298 304 306 305 304 307 307 308 309 309 309 309 309 309 308 308 311 310 311 311 310 310 309 307 307 303 308 309 309 308 308 306 304 309 309 310 308 308 307 306 306 304 302 301
306 302 304 299 303 305 306 307 309 309 309 309 309 308 309 309 309 309 309 308 309 309 309 307 308 304 308 309 309 307 307 308 307 308 307 308 308 306 306 305 306 305 303 302 301
306 305 305 304 304 304 304 308 308 308 309 309 309 308 307 309 309 309 308 308 309 307 307 306 307 308 309 307 307 307 307 308 308 309 308 308 309 305 306 307 306 305 303 302 300
306 306 306 303 302 303 304 308 308 309 309 309 309 308 308 308 308 308 307 307 307 308 307 307 306 305 309 305 306 307 307 308 308 308 307 309 307 305 306 307 307 306 305 303 301

GFSSW_850_thetae_117.txt.gz
Theta_e
309 307 307 307 308 311 313 318 320 320 319 319 316 313 309 308 305 303 305 308 308 307 310 309 307 309 311 313 313 313 313 313 314 315 314 312 310 311 311 311 311 314 314 321 329
309 307 304 306 306 309 310 314 317 320 319 319 316 312 309 306 305 305 307 311 305 304 309 309 309 309 309 309 311 311 310 312 311 311 311 310 310 311 310 309 311 311 314 318 324
308 308 306 307 306 306 309 312 315 318 319 318 315 312 308 305 307 309 310 310 303 305 309 308 308 309 307 307 307 308 309 310 310 309 308 310 310 309 308 308 310 309 310 314 315
308 308 307 304 304 305 307 315 315 318 317 317 315 311 307 305 308 307 310 311 307 309 308 308 307 306 303 303 303 303 304 304 304 304 305 304 305 305 306 306 307 308 309 310 312
308 307 307 305 300 304 307 314 315 317 317 315 314 308 305 307 307 309 312 308 307 306 304 304 304 304 303 303 303 302 303 304 304 304 304 305 304 303 304 305 305 306 307 309 310
306 307 306 306 303 302 307 314 316 317 316 315 310 307 306 307 310 310 307 304 303 302 303 303 304 304 304 303 303 303 303 303 303 303 303 304 304 304 304 305 306 306 306 307 308
306 305 306 305 303 308 306 313 316 316 315 310 307 306 306 309 309 306 306 305 304 304 304 304 304 304 304 303 304 304 302 301 302 302 303 304 303 303 303 303 303 303 304 305 306
305 305 305 303 308 308 311 314 315 315 309 307 306 304 304 306 306 306 305 305 304 303 304 304 304 303 303 304 303 302 302 302 302 303 304 304 304 303 305 305 305 305 305 304 304
305 305 303 301 310 312 314 314 312 312 307 306 306 306 304 305 305 305 305 304 305 304 305 305 305 304 304 301 298 300 300 301 302 304 305 305 304 304 305 305 305 305 306 305 305
304 303 303 305 310 312 312 311 311 307 307 307 305 303 304 304 304 304 304 304 305 305 305 305 304 299 298 296 299 297 297 300 302 303 303 303 304 304 304 305 305 306 306 306 305
302 307 309 307 310 309 309 306 306 305 305 305 304 304 303 302 303 303 303 303 304 305 304 304 298 301 300 301 302 302 302 303 303 303 304 305 305 306 306 305 305 305 306 305 306
309 310 305 308 307 307 307 307 306 305 305 305 304 304 304 305 304 304 304 305 304 302 303 303 303 301 302 302 303 302 305 304 304 304 305 305 306 306 306 306 306 305 305 305 305
308 305 306 305 308 308 307 306 305 305 304 306 307 306 306 306 306 305 305 305 306 306 306 306 302 306 306 306 307 306 305 306 305 305 305 306 305 305 308 307 305 305 305 305 306
307 307 308 308 308 307 305 305 305 306 301 306 306 307 307 307 306 306 306 306 306 306 307 306 305 306 306 307 306 306 305 306 307 308 309 307 310 305 309 310 307 308 310 308 307
308 307 307 308 307 308 305 305 306 306 303 305 307 307 307 308 307 307 307 307 307 307 306 304 307 308 308 308 306 306 307 309 311 312 313 309 309 306 310 310 310 308 311 314 314
306 306 306 308 308 307 306 306 305 299 299 302 307 307 308 308 308 307 308 308 308 309 308 308 307 308 308 308 307 307 309 311 312 312 310 310 309 310 312 311 310 310 312 316 316
306 308 307 308 307 307 306 304 300 301 301 305 307 308 308 310 311 310 310 311 312 310 304 310 309 307 308 310 312 311 311 310 308 305 311 314 313 314 310 310 312 314 314 316 318
306 305 307 306 304 305 306 300 301 305 304 306 307 308 308 309 311 312 313 313 309 312 312 310 308 309 310 312 313 312 312 316 317 317 313 315 315 314 310 310 312 314 314 315 316
306 304 305 304 305 307 305 299 301 305 306 308 308 309 308 308 309 313 311 309 309 308 309 310 310 309 310 313 313 315 317 314 316 317 311 314 314 311 309 306 310 311 312 312 314
305 305 305 305 306 306 301 304 303 303 307 307 309 307 309 309 309 309 310 309 310 309 308 310 313 311 313 312 313 315 314 316 312 318 316 314 315 313 309 306 306 307 308 310 309
306 306 305 306 307 305 301 302 306 307 308 309 309 309 308 309 309 310 310 310 310 310 308 309 311 310 311 312 312 311 312 313 312 315 315 315 315 312 309 307 306 306 307 306 306
306 301 305 306 305 300 303 306 308 308 309 309 308 308 309 309 309 309 310 309 310 310 310 309 308 308 310 310 309 309 311 309 309 313 310 311 314 312 311 309 309 307 305 304 303
305 305 306 306 301 301 305 306 307 309 309 309 309 308 308 309 310 310 309 310 311 309 309 308 306 304 305 305 306 309 308 308 307 308 310 311 313 308 309 310 306 304 302 300 299
305 299 305 306 304 303 304 305 306 308 309 308 308 308 308 308 307 309 308 309 309 309 310 308 305 306 303 307 307 308 306 307 306 303 309 308 311 308 307 306 304 302 300 300 300
305 302 303 299 303 303 304 305 307 307 308 308 308 307 308 309 308 308 308 307 308 308 308 306 307 304 305 306 307 307 306 306 304 306 307 308 308 306 305 304 305 303 302 301 301
306 305 304 303 303 303 303 306 307 307 308 308 309 307 307 308 308 308 308 307 308 306 306 304 306 306 308 306 304 306 305 307 308 308 307 306 307 304 306 306 305 304 302 302 301
306 306 305 302 301 302 303 306 308 308 308 308 308 307 307 307 307 308 307 306 306 306 306 305 305 305 307 303 303 304 305 306 307 307 306 308 306 303 304 304 305 305 304 302 301